Site Date LOGGERID PROGID AIRTEMP_MEAN_150_0_04 AIRTEMP_MEAN_250_0_03 AIRTEMP_MEAN_350_0_02 AIRTEMP_MEAN_450_0_01 AIRTEMP_MEAN_350_0_08 RELHUM_MEAN_150_0_04 RELHUM_MEAN_450_0_01 DEWPT_MEAN_150_0_04 DEWPT_MEAN_450_0_01 SOILTEMP_MEAN_0_10_01 SOILTEMP_MEAN_0_20_02 SOILTEMP_MEAN_0_50_03 SOILTEMP_MEAN_0_100_04 SOILWC_MEAN_0_10_01 SOILWC_MEAN_0_20_02 SOILWC_MEAN_0_50_03 SOILWC_MEAN_0_100_04 SOLAR_MEAN_850_0_01 SNOWDEP_MED_0_0_01 SWE_MED_0_0_01 WSPD_PRO_MEAN_1000_0_01 WDIR_PRO_MEAN_1000_0_01 WDIR_PRO_STDDEV_1000_0_01 AIRTEMP_MAX_150_0_04 AIRTEMP_MAX_250_0_03 AIRTEMP_MAX_350_0_02 AIRTEMP_MAX_350_0_08 AIRTEMP_MAX_450_0_01 DEWPT_MAX_150_0_04 DEWPT_MAX_450_0_01 AIRTEMP_MIN_150_0_04 AIRTEMP_MIN_250_0_03 AIRTEMP_MIN_350_0_02 AIRTEMP_MIN_350_0_08 AIRTEMP_MIN_450_0_01 DEWPT_MIN_150_0_04 DEWPT_MIN_450_0_01 WSPD_PRO_MAX_1000_0_01 SATVP_MEAN_150_0_04 VAP_MEAN_150_0_04 VPD_MEAN_150_0_04 SATVP_MEAN_450_0_01 VAP_MEAN_450_0_01 VPD_MEAN_450_0_01
VANMET_231 2018-04-21 12:15:00 231 11739.0   9.440 9.140 8.420 6.607   57.490   0.520 0.400 0.648 1.473 2.426 0.321 0.323 0.398 0.707 1084.00 816.00 -4.58 0.8740 226.50 66.54   10.030 9.660 7.216 8.830   1.197   8.540 8.380 6.191 7.945   0.024 1.8950       11.038 6.343 4.692
VANMET_231 2018-04-21 12:10:00 231 11739.0   8.610 8.370 7.806 6.104   59.720   0.452 0.400 0.647 1.474 2.426 0.321 0.323 0.398 0.707 1012.00 817.00 -4.88 0.9680 205.90 24.73   8.840 8.550 6.506 7.955   1.886   8.370 8.160 5.833 7.706   -0.322 1.9860       10.586 6.312 4.264
VANMET_231 2018-04-21 12:05:00 231 11739.0   8.420 8.290 7.608 6.228   62.020   0.798 0.400 0.647 1.474 2.426 0.321 0.323 0.398 0.707 1007.00 817.50 -5.00 1.0780 246.30 36.08   8.640 8.470 6.489 7.822   1.380   8.090 8.010 6.046 7.179   0.229 2.2610       10.444 6.472 3.967
VANMET_231 2018-04-21 12:00:00 231 11739.0   6.726 6.640 6.157 5.175   67.500   0.585 0.400 0.647 1.473 2.426 0.321 0.323 0.398 0.707 1043.00 818.00 -5.05 0.7590 210.00 44.37   7.919 7.845 6.002 7.063   1.318   5.650 5.579 4.475 5.469   -0.179 1.3920       9.453 6.373 3.072
VANMET_231 2018-04-21 11:55:00 231 11739.0   6.122 6.001 5.951 4.631   67.640   0.400 0.399 0.647 1.474 2.425 0.321 0.323 0.398 0.707 299.80 818.50 -5.00 0.7570 265.50 35.61   6.688 6.549 5.033 6.529   1.046   5.615 5.553 4.358 5.466   -0.720 1.5750       9.319 6.288 3.016
VANMET_231 2018-04-21 11:50:00 231 11739.0   7.726 7.508 7.070 5.488   63.210   0.545 0.400 0.648 1.474 2.426 0.321 0.323 0.398 0.707 421.60 819.00 -4.84 0.6800 224.70 32.85   8.600 8.340 5.978 7.457   1.315   6.822 6.681 4.933 6.576   -0.326 1.2220       10.066 6.354 3.703
VANMET_231 2018-04-21 11:45:00 231 11739.0   7.778 7.480 6.755 5.604   63.920   0.406 0.400 0.647 1.474 2.426 0.321 0.323 0.398 0.707 1102.00 819.50 -4.84 1.0060 176.60 30.17   8.580 8.280 6.052 7.427   1.370   6.675 6.425 4.917 6.020   -0.499 2.6390       9.851 6.291 3.554
VANMET_231 2018-04-21 11:40:00 231 11739.0   6.076 5.826 5.665 4.428   68.330   0.273 0.400 0.647 1.474 2.426 0.321 0.323 0.398 0.707 600.50 821.00 -4.54 0.6930 195.80 19.32   6.486 6.257 4.883 5.993   1.399   5.813 5.552 4.148 5.442   -1.234 1.4180       9.136 6.230 2.893
VANMET_231 2018-04-21 11:35:00 231 11739.0   7.141 6.907 6.625 5.155   64.240   0.339 0.400 0.647 1.474 2.427 0.321 0.323 0.398 0.707 434.10 821.00 -4.11 1.2340 226.60 20.91   8.040 7.858 5.542 7.304   1.102   6.133 5.906 4.521 5.842   -0.185 1.8750       9.763 6.260 3.491
VANMET_231 2018-04-21 11:30:00 231 11739.0   8.450 8.270 7.337 5.591   66.170   1.439 0.400 0.648 1.475 2.427 0.321 0.323 0.398 0.707 1016.00 822.50 -4.54 0.8860 265.50 36.92   8.830 8.590 5.843 7.458   2.213   8.080 7.930 5.345 7.169   0.490 1.7510       10.252 6.778 3.468
VANMET_231 2018-04-21 11:25:00 231 11739.0   7.525 7.545 6.898 5.293   67.570   1.292 0.400 0.648 1.475 2.427 0.321 0.323 0.398 0.707 917.00 824.00 -4.40 0.8720 300.00 36.66   8.060 8.010 5.576 7.153   2.735   7.119 7.208 5.012 6.748   -0.411 1.6070       9.948 6.707 3.226
VANMET_231 2018-04-21 11:20:00 231 11739.0   8.010 7.890 7.413 5.728   69.640   2.224 0.400 0.648 1.475 2.427 0.321 0.323 0.398 0.707 740.20 825.50 -4.08 0.6340 272.10 28.26   8.740 8.390 5.991 7.677   2.910   7.278 7.293 5.323 6.892   1.343 1.2410       10.306 7.170 3.129
VANMET_231 2018-04-21 11:15:00 231 11739.0   8.000 7.740 7.027 5.178   71.400   2.210 0.400 0.648 1.475 2.428 0.321 0.323 0.398 0.707 1067.00 826.50 -4.40 0.7340 240.10 32.41   8.610 8.260 5.743 7.508   2.697   7.579 7.387 4.660 6.578   1.532 1.2280       10.037 7.163 2.870
VANMET_231 2018-04-21 11:10:00 231 11739.0   7.827 7.807 6.885 4.660   68.700   1.535 0.401 0.648 1.476 2.428 0.321 0.323 0.398 0.707 956.00 827.00 -4.40 0.7000 315.80 67.04   8.040 8.030 5.108 7.148   2.112   7.513 7.481 4.099 6.562   0.930 1.4310       9.939 6.825 3.111
VANMET_231 2018-04-21 11:05:00 231 11739.0   6.991 7.152 6.326 4.170   68.220   0.901 0.401 0.648 1.475 2.428 0.321 0.323 0.398 0.707 676.90 828.00 -4.34 0.4270 275.90 47.81   7.348 7.411 4.480 6.484   1.703   6.642 6.806 3.817 6.125   0.355 0.9210       9.564 6.520 3.039
VANMET_231 2018-04-21 11:00:00 231 11739.0   7.951 7.955 6.902 4.983   70.380   1.884 0.401 0.649 1.476 2.429 0.321 0.323 0.399 0.707 656.20 831.00 -4.30 0.4790 160.00 71.79   8.260 8.230 5.327 7.301   2.968   7.184 7.305 4.589 6.416   0.660 0.9150       9.951 6.998 2.947
VANMET_231 2018-04-21 10:55:00 231 11739.0   7.022 6.835 6.311 4.744   75.170   2.243 0.401 0.649 1.476 2.428 0.321 0.323 0.399 0.708 1054.00 834.00 -4.52 0.6740 236.90 51.32   7.702 7.494 5.102 6.571   2.841   6.590 6.458 4.483 6.067   1.803 1.3330       9.554 7.180 2.372
VANMET_231 2018-04-21 10:50:00 231 11739.0   6.983 6.994 6.568 5.150   78.290   3.058 0.401 0.649 1.476 2.428 0.321 0.323 0.399 0.708 750.80 836.00 -4.52 1.1270 256.40 25.48   7.130 7.227 5.477 6.683   4.001   6.768 6.805 4.639 6.340   2.145 1.6140       9.725 7.609 2.111
VANMET_231 2018-04-21 10:45:00 231 11739.0   7.045 7.173 6.753 5.188   77.010   3.007 0.401 0.649 1.477 2.429 0.322 0.323 0.399 0.708 1052.00 839.50 -4.59 1.2400 218.10 23.56   7.411 7.489 5.405 6.930   3.946   6.684 6.864 4.959 6.608   2.123 1.6590       9.849 7.581 2.264
VANMET_231 2018-04-21 10:40:00 231 11739.0   7.492 7.360 6.751 4.975   78.870   3.343 0.401 0.649 1.477 2.429 0.322 0.323 0.399 0.708 1170.00 842.50 -4.65 1.0090 238.70 27.76   7.766 7.597 5.214 6.971   3.900   7.186 6.957 4.774 6.449   2.967 1.8880       9.848 7.764 2.081
VANMET_231 2018-04-21 10:35:00 231 11739.0   7.519 7.348 6.532 4.872   79.540   3.246 0.401 0.648 1.477 2.429 0.322 0.324 0.399 0.708 1101.00 843.00 -4.77 0.8720 221.10 31.34   7.830 7.581 5.107 6.692   4.217   7.247 7.072 4.601 6.234   2.098 1.5680       9.701 7.711 1.985
VANMET_231 2018-04-21 10:30:00 231 11739.0   7.328 7.074 5.834 4.573   81.800   2.955 0.401 0.648 1.477 2.429 0.322 0.324 0.399 0.708 1114.00 843.50 -4.65 0.8650 202.80 68.65   7.840 7.596 4.908 6.304   3.574   6.495 6.283 4.365 5.331   1.614 2.0060       9.244 7.553 1.682
VANMET_231 2018-04-21 10:25:00 231 11739.0   6.056 5.792 4.917 3.752   89.000   3.233 0.401 0.648 1.476 2.429 0.322 0.324 0.399 0.708 1073.00 844.50 -4.59 0.7800 252.10 71.87   6.645 6.286 4.361 5.331   3.856   4.874 4.683 2.907 4.042   2.058 1.7510       8.672 7.704 0.954
VANMET_231 2018-04-21 10:20:00 231 11739.0   4.147 4.003 3.525 2.804   98.500   3.311 0.401 0.648 1.476 2.428 0.322 0.324 0.399 0.708 606.20 845.50 -4.75 0.4680 179.30 25.40   4.766 4.608 2.958 4.019   3.771   3.823 3.704 2.684 3.242   3.115 1.4110       7.864 7.746 0.118
VANMET_231 2018-04-21 10:15:00 231 11739.0   3.767 3.716 3.230 2.672   96.900   2.782 0.401 0.648 1.476 2.428 0.322 0.324 0.399 0.708 244.60 846.00 -4.75 0.6640 206.60 27.66   3.869 3.839 2.800 3.319   3.034   3.688 3.624 2.519 3.168   2.595 1.0450       7.702 7.461 0.239
VANMET_231 2018-04-21 10:10:00 231 11739.0   3.688 3.797 3.221 2.727   97.400   2.854 0.401 0.648 1.476 2.428 0.322 0.324 0.399 0.708 228.70 846.50 -4.59 0.4960 241.30 24.91   3.981 4.025 2.831 3.369   3.013   3.371 3.513 2.540 3.033   2.675 1.0320       7.697 7.499 0.200
VANMET_231 2018-04-21 10:05:00 231 11739.0   3.146 3.305 2.966 2.444   96.700   2.502 0.401 0.648 1.477 2.429 0.322 0.324 0.399 0.708 267.20 846.50 -4.71 0.6740 230.40 14.51   3.346 3.482 2.546 3.020   2.693   3.027 3.182 2.311 2.904   2.217 1.8290       7.559 7.314 0.249
VANMET_231 2018-04-21 10:00:00 231 11739.0   3.383 3.514 3.144 2.565   97.000   2.710 0.401 0.647 1.476 2.428 0.322 0.324 0.399 0.708 207.20 846.50 -4.86 0.5850 242.30 21.35   3.713 3.795 2.763 3.310   2.834   3.116 3.286 2.405 3.011   2.586 1.3260       7.655 7.423 0.230
VANMET_231 2018-04-21 09:55:00 231 11739.0   3.844 3.860 3.353 2.746   96.200   2.809 0.401 0.647 1.476 2.429 0.322 0.324 0.399 0.708 263.30 847.00 -4.94 0.5840 282.70 21.51   3.937 3.939 2.810 3.417   2.891   3.737 3.801 2.668 3.294   2.717 1.0060       7.769 7.475 0.295
VANMET_231 2018-04-21 09:50:00 231 11739.0   3.722 3.675 3.216 2.707   98.400   2.987 0.401 0.648 1.476 2.429 0.322 0.324 0.399 0.708 416.80 847.00 -4.94 0.8900 232.90 26.87   3.828 3.801 2.950 3.337   3.161   3.530 3.492 2.528 2.975   2.650 1.3590       7.694 7.570 0.123
VANMET_231 2018-04-21 09:45:00 231 11739.0   3.197 3.180 2.748 2.371   99.200   2.637 0.401 0.648 1.477 2.429 0.322 0.324 0.399 0.708 356.20 847.00 -4.92 0.6550 219.40 13.56   3.473 3.437 2.728 2.945   2.899   2.939 2.953 2.170 2.597   2.488 1.2480       7.443 7.384 0.060
VANMET_231 2018-04-21 09:40:00 231 11739.0   2.777 2.789 2.533 2.146   98.300   2.299 0.401 0.648 1.477 2.430 0.322 0.324 0.399 0.708 254.40 847.00 -4.83 0.6660 253.50 17.58   2.894 2.910 2.196 2.575   2.445   2.690 2.704 2.074 2.498   2.215 1.1560       7.330 7.209 0.125
VANMET_231 2018-04-21 09:35:00 231 11739.0   3.075 3.108 2.784 2.374   97.100   2.379 0.401 0.648 1.477 2.429 0.322 0.324 0.399 0.708 229.40 847.00 -4.80 0.8690 223.20 22.95   3.305 3.335 2.531 2.894   2.518   2.779 2.783 2.173 2.595   2.188 1.3850       7.462 7.250 0.216
VANMET_231 2018-04-21 09:30:00 231 11739.0   3.462 3.511 2.966 2.391   97.200   2.573 0.401 0.648 1.477 2.430 0.322 0.324 0.399 0.708 298.50 847.00 -4.80 0.7620 209.40 12.67   3.617 3.647 2.492 3.047   2.770   3.250 3.361 2.300 2.862   2.401 1.0850       7.559 7.351 0.212
VANMET_231 2018-04-21 09:25:00 231 11739.0   2.979 3.077 2.634 2.078   98.600   2.434 0.401 0.648 1.478 2.430 0.322 0.324 0.399 0.708 424.40 847.00 -4.80 0.5750 206.10 26.49   3.198 3.333 2.275 2.852   2.530   2.684 2.805 1.863 2.413   2.266 1.0260       7.383 7.278 0.103
VANMET_231 2018-04-21 09:20:00 231 11739.0   2.547 2.646 2.312 1.849   97.800   2.003 0.401 0.648 1.478 2.430 0.322 0.324 0.399 0.708 246.50 847.00 -4.80 0.5960 217.30 39.83   2.637 2.761 1.957 2.383   2.220   2.491 2.605 1.758 2.284   1.822 0.9080       7.215 7.058 0.159
VANMET_231 2018-04-21 09:15:00 231 11739.0   2.882 2.932 2.547 1.917   95.700   1.934 0.401 0.648 1.478 2.430 0.322 0.324 0.399 0.708 231.70 847.50 -4.80 1.0590 215.20 15.37   3.410 3.447 2.075 2.933   2.220   2.546 2.648 1.729 2.324   1.811 2.1430       7.337 7.023 0.315
VANMET_231 2018-04-21 09:10:00 231 11739.0   3.396 3.469 2.956 1.807   96.000   2.381 0.401 0.648 1.478 2.430 0.322 0.324 0.399 0.708 331.80 848.00 -4.80 0.2670 241.90 48.23   3.523 3.547 2.034 3.000   2.806   3.193 3.298 1.615 2.867   2.152 1.0060       7.554 7.251 0.302
VANMET_231 2018-04-21 09:05:00 231 11739.0   3.036 3.040 2.580 1.908   100.000   2.582 0.402 0.648 1.478 2.430 0.322 0.324 0.399 0.708 449.00 848.00 -4.84 0.4180 186.00 24.99   3.202 3.245 1.977 2.817   2.818   2.737 2.725 1.856 2.292   2.294 0.7710       7.354 7.355 -0.000
VANMET_231 2018-04-21 09:00:00 231 11739.0   2.396 2.453 2.054 1.663   100.000   2.055 0.402 0.649 1.478 2.430 0.322 0.324 0.399 0.708 333.10 848.00 -4.84 0.3280 178.90 16.18   2.688 2.703 1.873 2.259   2.261   2.211 2.252 1.570 1.908   1.909 0.5950       7.083 7.084 0.000
VANMET_231 2018-04-21 08:55:00 231 11739.0   2.136 2.203 1.843 1.516   100.000   1.845 0.402 0.649 1.479 2.431 0.322 0.324 0.399 0.708 194.70 848.00 -4.84 0.3610 203.30 32.85   2.203 2.257 1.591 1.918   1.919   2.026 2.132 1.408 1.792   1.793 0.7710       6.977 6.978 0.000
VANMET_231 2018-04-21 08:50:00 231 11739.0   1.993 2.114 1.777 1.369   100.000   1.778 0.402 0.649 1.479 2.431 0.322 0.324 0.399 0.708 123.00 848.00 -4.90 0.1650 208.70 15.46   2.030 2.153 1.440 1.815   1.816   1.963 2.065 1.299 1.729   1.730 0.7710       6.944 6.945 0.000
VANMET_231 2018-04-21 08:45:00 231 11739.0   2.111 2.165 1.854 1.492   98.500   1.644 0.402 0.649 1.479 2.431 0.322 0.324 0.399 0.708 167.40 848.00 -4.98 0.6310 203.10 15.98   2.317 2.315 1.590 1.962   1.747   1.977 2.060 1.421 1.775   1.560 1.0190       6.983 6.878 0.105
VANMET_231 2018-04-21 08:40:00 231 11739.0   2.267 2.292 1.978 1.354   97.300   1.599 0.402 0.649 1.479 2.432 0.322 0.324 0.399 0.708 179.10 848.00 -5.02 0.3820 220.20 6.57   2.352 2.416 1.452 2.148   1.723   2.188 2.203 1.303 1.895   1.504 1.0450       7.045 6.856 0.190
VANMET_231 2018-04-21 08:35:00 231 11739.0   2.824 2.859 2.442 1.896   97.500   2.086 0.402 0.649 1.479 2.431 0.322 0.324 0.399 0.709 236.80 848.00 -5.02 1.0760 229.70 13.26   3.202 3.201 2.063 2.645   2.280   2.397 2.471 1.507 2.185   1.799 1.8230       7.282 7.100 0.182
VANMET_231 2018-04-21 08:30:00 231 11739.0   2.956 2.969 2.379 1.569   98.900   2.229 0.401 0.649 1.479 2.431 0.322 0.324 0.399 0.709 539.20 848.50 -5.03 0.5640 226.00 21.78   3.189 3.192 1.884 2.625   2.390   2.406 2.444 1.191 1.867   1.868 1.1370       7.250 7.173 0.080
VANMET_231 2018-04-21 08:25:00 231 11739.0   1.917 2.014 1.565 1.118   100.000   1.566 0.402 0.650 1.480 2.432 0.323 0.324 0.399 0.709 324.20 849.00 -5.04 0.1230 165.20 8.02   2.301 2.363 1.290 1.824   1.825   1.741 1.860 1.039 1.436   1.437 0.4700       6.839 6.840 0.000
VANMET_231 2018-04-21 08:20:00 231 11739.0   1.729 1.855 1.437 1.119   99.900   1.417 0.402 0.650 1.480 2.432 0.323 0.324 0.399 0.709 132.60 849.00 -5.04 0.3150 220.80 12.13   1.784 1.895 1.157 1.466   1.456   1.679 1.828 1.002 1.416   1.345 0.7120       6.777 6.767 0.007
VANMET_231 2018-04-21 08:15:00 231 11739.0   2.056 2.148 1.583 0.983   99.800   1.559 0.402 0.650 1.479 2.432 0.323 0.324 0.399 0.709 153.20 849.00 -5.04 0.4250 201.10 12.91   2.157 2.267 1.093 1.629   1.630   1.818 1.887 0.913 1.496   1.366 0.9340       6.848 6.837 0.014
VANMET_231 2018-04-21 08:10:00 231 11739.0   1.817 1.915 1.423 0.863   100.000   1.424 0.402 0.650 1.479 2.432 0.323 0.324 0.399 0.709 209.90 849.50 -5.10 0.0820 210.70 1.94   2.033 2.126 0.984 1.566   1.567   1.694 1.746 0.751 1.277   1.278 0.6530       6.770 6.771 0.000
VANMET_231 2018-04-21 08:05:00 231 11739.0   1.539 1.524 1.084 0.712   100.000   1.084 0.402 0.650 1.480 2.432 0.323 0.325 0.399 0.709 208.30 850.00 -5.22 0.0000 0.00 0.00   1.755 1.731 0.766 1.260   1.261   1.413 1.370 0.650 0.954   0.955 0.0000       6.607 6.607 0.000
VANMET_231 2018-04-21 08:00:00 231 11739.0   1.293 1.280 0.891 0.637   100.000   0.892 0.402 0.650 1.480 2.432 0.323 0.325 0.399 0.709 121.20 850.00 -5.24 0.1960 222.90 4.94   1.426 1.370 0.668 0.968   0.968   1.239 1.239 0.589 0.835   0.835 0.5160       6.515 6.516 0.000
VANMET_231 2018-04-21 07:55:00 231 11739.0   1.160 1.161 0.786 0.554   100.000   0.787 0.402 0.649 1.480 2.432 0.323 0.325 0.399 0.709 105.30 849.50 -5.39 0.0000 0.00 0.00   1.244 1.242 0.574 0.845   0.845   1.123 1.111 0.519 0.749   0.749 0.0000       6.466 6.467 0.000
VANMET_231 2018-04-21 07:50:00 231 11739.0   1.186 1.177 0.811 0.568   100.000   0.812 0.402 0.650 1.480 2.432 0.323 0.325 0.399 0.709 84.20 849.00 -5.47 0.0000 224.70 0.00   1.320 1.290 0.592 0.892   0.893   1.128 1.118 0.544 0.755   0.756 0.0070       6.478 6.478 0.000
VANMET_231 2018-04-21 07:45:00 231 11739.0   1.296 1.302 0.916 0.624   100.000   0.916 0.402 0.650 1.480 2.433 0.323 0.325 0.399 0.709 96.00 849.00 -5.51 0.4150 214.40 8.31   1.346 1.387 0.699 1.002   1.003   1.262 1.270 0.567 0.872   0.873 0.6990       6.527 6.527 0.000
VANMET_231 2018-04-21 07:40:00 231 11739.0   1.282 1.315 0.926 0.596   100.000   0.927 0.402 0.650 1.480 2.433 0.323 0.325 0.399 0.709 137.20 849.00 -5.58 0.0000 0.00 0.00   1.370 1.407 0.686 1.005   1.006   1.136 1.159 0.518 0.816   0.817 0.0000       6.532 6.532 0.000
VANMET_231 2018-04-21 07:35:00 231 11739.0   1.014 1.077 0.746 0.459   100.000   0.747 0.403 0.650 1.480 2.433 0.323 0.325 0.399 0.709 112.80 849.00 -5.69 0.0000 0.00 0.00   1.126 1.149 0.501 0.806   0.807   0.908 0.998 0.428 0.690   0.690 0.0000       6.447 6.448 0.000
VANMET_231 2018-04-21 07:30:00 231 11739.0   0.959 1.039 0.693 0.450   100.000   0.693 0.403 0.650 1.481 2.433 0.323 0.325 0.399 0.709 96.10 849.50 -5.85 0.0000 0.00 0.00   0.989 1.078 0.465 0.720   0.720   0.921 0.995 0.423 0.650   0.650 0.0000       6.423 6.423 0.000
VANMET_231 2018-04-21 07:25:00 231 11739.0   0.839 0.881 0.548 0.404   100.000   0.548 0.403 0.650 1.481 2.433 0.323 0.325 0.399 0.709 100.60 850.00 -5.93 0.0000 0.00 0.00   0.912 0.974 0.438 0.640   0.640   0.761 0.813 0.370 0.464   0.464 0.0000       6.356 6.356 0.000
VANMET_231 2018-04-21 07:20:00 231 11739.0   0.758 0.804 0.468 0.377   100.000   0.468 0.403 0.651 1.481 2.433 0.323 0.325 0.399 0.709 68.02 850.00 -5.93 0.0950 233.40 1.36   0.781 0.826 0.394 0.491   0.491   0.737 0.783 0.346 0.447   0.448 0.5160       6.319 6.319 0.000
VANMET_231 2018-04-21 07:15:00 231 11739.0   0.755 0.823 0.477 0.311   100.000   0.478 0.403 0.651 1.481 2.433 0.323 0.325 0.399 0.709 74.37 850.00 -6.03 0.0000 0.00 0.00   0.782 0.837 0.340 0.501   0.501   0.731 0.806 0.283 0.448   0.448 0.0000       6.323 6.324 0.000
VANMET_231 2018-04-21 07:10:00 231 11739.0   0.740 0.820 0.462 0.280   100.000   0.463 0.403 0.650 1.481 2.433 0.323 0.325 0.399 0.709 71.04 850.00 -6.16 0.0000 0.00 0.00   0.755 0.824 0.300 0.474   0.475   0.694 0.808 0.267 0.438   0.438 0.0000       6.316 6.317 0.000
VANMET_231 2018-04-21 07:05:00 231 11739.0   0.676 0.771 0.400 0.261   100.000   0.400 0.403 0.651 1.482 2.434 0.323 0.325 0.399 0.709 70.44 850.50 -6.19 0.0000 0.00 0.00   0.687 0.798 0.277 0.421   0.422   0.663 0.743 0.246 0.375   0.375 0.0000       6.288 6.288 0.000
VANMET_231 2018-04-21 07:00:00 231 11739.0   0.555 0.704 0.326 0.262   100.000   0.327 0.403 0.652 1.482 2.434 0.323 0.325 0.399 0.710 67.34 851.00 -6.21 0.0000 268.40 0.00   0.677 0.801 0.286 0.411   0.412   0.445 0.585 0.238 0.245   0.245 0.0070       6.254 6.255 0.000
VANMET_231 2018-04-21 06:55:00 231 11739.0   0.387 0.515 0.193 0.214   100.000   0.193 0.404 0.651 1.482 2.434 0.323 0.325 0.399 0.710 55.24 851.00 -6.27 0.0920 256.40 7.49   0.435 0.572 0.241 0.245   0.245   0.350 0.459 0.198 0.139   0.139 0.3790       6.194 6.194 0.000
VANMET_231 2018-04-21 06:50:00 231 11739.0   0.315 0.425 0.127 0.166   100.000   0.128 0.403 0.651 1.482 2.434 0.323 0.325 0.399 0.710 44.77 851.00 -6.31 0.2830 228.70 13.68   0.349 0.456 0.199 0.155   0.156   0.300 0.413 0.149 0.102   0.102 0.5160       6.164 6.165 0.000
VANMET_231 2018-04-21 06:45:00 231 11739.0   0.278 0.407 0.105 0.167   100.000   0.105 0.403 0.651 1.482 2.434 0.323 0.325 0.399 0.710 35.08 851.00 -6.35 0.1230 241.90 32.39   0.295 0.417 0.199 0.119   0.119   0.270 0.392 0.152 0.092   0.092 0.4770       6.155 6.155 0.000
VANMET_231 2018-04-21 06:40:00 231 11739.0   0.253 0.387 0.082 0.214   100.000   0.082 0.404 0.652 1.482 2.435 0.323 0.325 0.399 0.710 37.24 851.00 -6.43 0.2430 284.00 0.02   0.273 0.410 0.232 0.106   0.106   0.233 0.368 0.195 0.063   0.063 0.3070       6.144 6.144 0.000
VANMET_231 2018-04-21 06:35:00 231 11739.0   0.228 0.365 0.051 0.175   100.000   0.051 0.404 0.652 1.482 2.435 0.323 0.325 0.399 0.710 30.32 851.00 -6.49 0.0830 284.00 0.00   0.238 0.374 0.190 0.069   0.069   0.204 0.339 0.165 0.016   0.016 0.2810       6.131 6.131 0.000
VANMET_231 2018-04-21 06:30:00 231 11739.0   0.158 0.290 -0.012 0.145   100.000   -0.012 0.404 0.652 1.483 2.435 0.323 0.325 0.399 0.710 28.21 851.00 -6.57 0.0770 285.60 0.87   0.202 0.335 0.171 0.023   0.023   0.110 0.249 0.129 -0.047   -0.047 0.2680       6.102 6.102 0.000
VANMET_231 2018-04-21 06:25:00 231 11739.0   0.080 0.222 -0.059 0.121   100.000   -0.059 0.403 0.652 1.483 2.435 0.323 0.325 0.399 0.710 24.86 850.50 -6.67 0.0610 287.00 0.01   0.108 0.245 0.138 -0.034   -0.034   0.048 0.199 0.099 -0.084   -0.084 0.2810       6.082 6.082 -0.000
VANMET_231 2018-04-21 06:20:00 231 11739.0   0.031 0.172 -0.112 0.120   100.000   -0.112 0.404 0.652 1.483 2.435 0.323 0.325 0.399 0.710 16.85 850.50 -6.74 0.1130 282.90 4.76   0.045 0.194 0.139 -0.084   -0.084   0.009 0.147 0.105 -0.134   -0.134 0.2680       6.058 6.058 0.000
VANMET_231 2018-04-21 06:15:00 231 11739.0   -0.007 0.133 -0.136 0.069   100.000   -0.136 0.404 0.652 1.483 2.435 0.323 0.325 0.399 0.710 15.54 850.50 -6.80 0.2260 274.10 1.56   0.006 0.144 0.101 -0.117   -0.117   -0.015 0.127 0.038 -0.150   -0.150 0.5420       6.048 6.048 0.000
VANMET_231 2018-04-21 06:10:00 231 11739.0   -0.028 0.118 -0.149 0.071   100.000   -0.149 0.404 0.652 1.483 2.435 0.323 0.325 0.399 0.710 13.89 850.50 -6.87 0.2210 290.90 1.40   -0.008 0.133 0.085 -0.130   -0.130   -0.045 0.105 0.051 -0.180   -0.180 0.4380       6.042 6.042 0.000
VANMET_231 2018-04-21 06:05:00 231 11739.0   -0.057 0.092 -0.179 0.046   100.000   -0.179 0.404 0.652 1.483 2.436 0.323 0.325 0.399 0.710 12.82 850.50 -6.97 0.2740 291.50 2.12   -0.047 0.101 0.065 -0.163   -0.163   -0.065 0.081 0.020 -0.197   -0.197 0.3460       6.029 6.029 0.000
VANMET_231 2018-04-21 06:00:00 231 11739.0   -0.083 0.058 -0.216 0.026   100.000   -0.216 0.404 0.652 1.483 2.435 0.323 0.325 0.399 0.710 13.98 851.00 -7.07 0.2480 294.30 0.07   -0.067 0.078 0.038 -0.197   -0.197   -0.098 0.039 0.008 -0.240   -0.240 0.4180       6.012 6.012 -0.000
VANMET_231 2018-04-21 05:55:00 231 11739.0   -0.116 0.019 -0.249 0.006   100.000   -0.250 0.404 0.652 1.484 2.436 0.323 0.325 0.399 0.710 12.18 850.00 -7.19 0.3860 292.10 5.85   -0.102 0.038 0.024 -0.227   -0.227   -0.129 0.004 -0.010 -0.283   -0.283 0.6530       5.998 5.998 -0.000
VANMET_231 2018-04-21 05:50:00 231 11739.0   -0.158 -0.029 -0.288 -0.049   100.000   -0.288 0.404 0.653 1.484 2.435 0.323 0.325 0.399 0.710 11.34 850.50 -7.29 0.3930 289.10 21.19   -0.132 0.000 -0.005 -0.263   -0.263   -0.176 -0.051 -0.093 -0.307   -0.307 0.6080       5.981 5.981 0.000
VANMET_231 2018-04-21 05:45:00 231 11739.0   -0.177 -0.047 -0.307 -0.078   100.000   -0.307 0.404 0.653 1.484 2.436 0.323 0.325 0.399 0.710 9.57 850.50 -7.41 0.4820 249.00 18.71   -0.168 -0.038 -0.051 -0.287   -0.287   -0.191 -0.057 -0.099 -0.327   -0.327 1.0520       5.973 5.973 0.000
VANMET_231 2018-04-21 05:40:00 231 11739.0   -0.207 -0.072 -0.336 -0.083   100.000   -0.336 0.404 0.653 1.484 2.436 0.323 0.325 0.399 0.710 6.46 850.50 -7.50 0.4990 262.00 18.54   -0.192 -0.059 -0.061 -0.320   -0.320   -0.218 -0.080 -0.103 -0.357   -0.357 1.0000       5.960 5.960 0.000
VANMET_231 2018-04-21 05:35:00 231 11739.0   -0.236 -0.100 -0.356 -0.098   100.000   -0.357 0.404 0.653 1.484 2.436 0.323 0.325 0.399 0.710 5.41 850.50 -7.54 0.5670 287.50 9.08   -0.220 -0.082 -0.074 -0.343   -0.343   -0.253 -0.116 -0.122 -0.373   -0.373 1.1560       5.951 5.951 0.000
VANMET_231 2018-04-21 05:30:00 231 11739.0   -0.242 -0.111 -0.365 -0.116   100.000   -0.365 0.404 0.653 1.484 2.436 0.323 0.325 0.399 0.711 3.85 850.50 -7.59 0.5990 270.90 13.28   -0.234 -0.104 -0.101 -0.353   -0.353   -0.249 -0.115 -0.124 -0.380   -0.380 1.0260       5.947 5.947 -0.000
VANMET_231 2018-04-21 05:25:00 231 11739.0   -0.255 -0.123 -0.376 -0.124   100.000   -0.377 0.404 0.654 1.485 2.436 0.323 0.325 0.399 0.711 2.71 850.50 -7.67 0.5310 261.90 27.35   -0.235 -0.102 -0.087 -0.356   -0.356   -0.270 -0.139 -0.165 -0.400   -0.400 1.4310       5.943 5.942 0.000
VANMET_231 2018-04-21 05:20:00 231 11739.0   -0.285 -0.151 -0.399 -0.143   100.000   -0.400 0.404 0.654 1.484 2.436 0.323 0.325 0.399 0.711 2.16 849.00 -7.75 0.6010 328.30 23.75   -0.268 -0.136 -0.122 -0.380   -0.380   -0.294 -0.159 -0.167 -0.420   -0.420 0.9280       5.933 5.932 0.000
VANMET_231 2018-04-21 05:15:00 231 11739.0   -0.303 -0.166 -0.416 -0.143   100.000   -0.416 0.404 0.654 1.485 2.436 0.323 0.325 0.399 0.711 1.53 848.00 -7.81 0.1460 294.40 9.51   -0.285 -0.150 -0.122 -0.393   -0.393   -0.321 -0.181 -0.169 -0.446   -0.447 0.6470       5.925 5.925 0.000
VANMET_231 2018-04-21 05:10:00 231 11739.0   -0.358 -0.217 -0.465 -0.198   100.000   -0.465 0.404 0.654 1.484 2.437 0.323 0.325 0.399 0.711 0.96 848.00 -7.87 0.0000 0.00 0.00   -0.322 -0.183 -0.149 -0.433   -0.433   -0.378 -0.236 -0.241 -0.486   -0.487 0.0000       5.904 5.904 0.000
VANMET_231 2018-04-21 05:05:00 231 11739.0   -0.397 -0.256 -0.498 -0.215   100.000   -0.499 0.404 0.654 1.485 2.436 0.323 0.325 0.399 0.711 0.37 847.50 -7.91 0.1440 320.30 4.79   -0.378 -0.233 -0.187 -0.476   -0.477   -0.415 -0.276 -0.250 -0.513   -0.513 0.4700       5.890 5.890 0.000
VANMET_231 2018-04-21 05:00:00 231 11739.0   -0.443 -0.300 -0.542 -0.264   100.000   -0.542 0.404 0.654 1.485 2.437 0.323 0.325 0.399 0.711 0.01 847.50 -7.96 0.2350 304.40 2.99   -0.418 -0.275 -0.234 -0.510   -0.510   -0.481 -0.335 -0.297 -0.576   -0.577 0.5160       5.871 5.871 0.000
VANMET_231 2018-04-21 04:55:00 231 11739.0   -0.507 -0.356 -0.572 -0.378   100.000   -0.572 0.404 0.654 1.485 2.436 0.323 0.325 0.399 0.711 0.00 847.50 -8.01 0.1330 299.10 0.02   -0.485 -0.339 -0.298 -0.536   -0.537   -0.518 -0.367 -0.436 -0.593   -0.593 0.4250       5.858 5.858 0.000
VANMET_231 2018-04-21 04:50:00 231 11739.0   -0.461 -0.317 -0.542 -0.382   100.000   -0.542 0.404 0.654 1.485 2.436 0.323 0.325 0.399 0.711 0.00 847.00 -8.03 0.0000 0.00 0.00   -0.436 -0.297 -0.296 -0.527   -0.527   -0.502 -0.350 -0.447 -0.566   -0.567 0.0000       5.871 5.871 0.000
VANMET_231 2018-04-21 04:45:00 231 11739.0   -0.445 -0.306 -0.536 -0.323   100.000   -0.536 0.405 0.654 1.485 2.437 0.323 0.325 0.399 0.711 0.00 847.50 -8.07 0.2160 213.10 1.56   -0.441 -0.301 -0.294 -0.517   -0.517   -0.456 -0.312 -0.352 -0.550   -0.550 0.4250       5.874 5.874 -0.000
VANMET_231 2018-04-21 04:40:00 231 11739.0   -0.451 -0.307 -0.528 -0.343   99.900   -0.545 0.405 0.654 1.485 2.437 0.323 0.325 0.400 0.711 0.00 847.00 -8.13 0.0130 218.60 0.00   -0.443 -0.301 -0.325 -0.517   -0.520   -0.458 -0.315 -0.350 -0.540   -0.564 0.2610       5.877 5.870 0.006
VANMET_231 2018-04-21 04:35:00 231 11739.0   -0.423 -0.275 -0.488 -0.318   99.700   -0.535 0.405 0.654 1.485 2.437 0.323 0.325 0.400 0.711 0.00 847.50 -8.23 0.1150 244.90 1.88   -0.402 -0.251 -0.278 -0.457   -0.512   -0.443 -0.298 -0.345 -0.520   -0.557 0.4440       5.894 5.874 0.018
VANMET_231 2018-04-21 04:30:00 231 11739.0   -0.373 -0.220 -0.436 -0.261   98.700   -0.609 0.405 0.655 1.485 2.437 0.323 0.325 0.400 0.711 0.00 848.00 -8.35 0.3840 264.60 14.58   -0.343 -0.194 -0.207 -0.414   -0.563   -0.404 -0.251 -0.308 -0.464   -0.668 0.7250       5.917 5.842 0.077
VANMET_231 2018-04-21 04:25:00 231 11739.0   -0.301 -0.148 -0.353 -0.193   98.000   -0.635 0.405 0.655 1.486 2.437 0.323 0.325 0.400 0.711 0.00 848.00 -8.43 0.5880 260.90 32.23   -0.274 -0.120 -0.154 -0.308   -0.617   -0.335 -0.188 -0.240 -0.397   -0.658 1.2020       5.953 5.831 0.119
VANMET_231 2018-04-21 04:20:00 231 11739.0   -0.223 -0.071 -0.273 -0.133   96.900   -0.705 0.405 0.655 1.486 2.437 0.323 0.325 0.400 0.711 0.00 848.50 -8.46 0.4470 256.20 19.24   -0.175 -0.028 -0.113 -0.221   -0.641   -0.264 -0.112 -0.189 -0.311   -0.774 0.6140       5.988 5.801 0.186
VANMET_231 2018-04-21 04:15:00 231 11739.0   -0.129 0.025 -0.174 -0.040   94.900   -0.890 0.405 0.654 1.486 2.437 0.323 0.325 0.400 0.711 0.00 849.00 -8.50 0.7100 247.70 18.08   -0.071 0.080 0.011 -0.115   -0.775   -0.171 -0.023 -0.093 -0.221   -0.987 1.2350       6.031 5.723 0.308
VANMET_231 2018-04-21 04:10:00 231 11739.0   0.019 0.179 -0.017 0.108   93.400   -0.961 0.405 0.655 1.486 2.437 0.323 0.325 0.400 0.711 0.00 849.00 -8.55 0.6780 240.90 23.74   0.084 0.254 0.215 0.058   -0.897   -0.060 0.085 0.015 -0.105   -1.024 1.2480       6.100 5.694 0.403
VANMET_231 2018-04-21 04:05:00 231 11739.0   0.152 0.326 0.132 0.274   91.200   -1.133 0.405 0.655 1.486 2.437 0.323 0.325 0.400 0.711 0.00 849.00 -8.57 0.7130 258.90 26.41   0.217 0.383 0.341 0.204   -1.029   0.089 0.261 0.217 0.071   -1.304 1.0850       6.167 5.622 0.543
VANMET_231 2018-04-21 04:00:00 231 11739.0   0.296 0.466 0.268 0.441   88.600   -1.391 0.404 0.655 1.486 2.437 0.324 0.325 0.400 0.711 0.00 849.00 -8.59 1.0460 248.30 21.26   0.335 0.507 0.514 0.304   -1.249   0.224 0.388 0.351 0.204   -1.511 2.6000       6.228 5.516 0.710
VANMET_231 2018-04-21 03:55:00 231 11739.0   0.335 0.512 0.312 0.553   86.900   -1.613 0.405 0.655 1.486 2.437 0.323 0.325 0.400 0.711 0.00 849.00 -8.61 0.4940 241.00 18.55   0.340 0.520 0.575 0.337   -1.518   0.328 0.508 0.527 0.291   -1.691 1.5030       6.248 5.427 0.818
VANMET_231 2018-04-21 03:50:00 231 11739.0   0.358 0.539 0.344 0.537   86.700   -1.608 0.405 0.656 1.487 2.437 0.323 0.325 0.400 0.711 0.00 849.00 -8.64 0.5570 274.60 24.02   0.376 0.557 0.560 0.367   -1.489   0.340 0.520 0.509 0.330   -1.710 1.4370       6.262 5.429 0.833
VANMET_231 2018-04-21 03:45:00 231 11739.0   0.398 0.581 0.380 0.591   86.200   -1.649 0.405 0.656 1.487 2.437 0.323 0.325 0.400 0.711 0.00 849.00 -8.68 0.6880 259.50 20.42   0.408 0.590 0.647 0.397   -1.552   0.378 0.561 0.547 0.363   -1.784 1.1960       6.279 5.413 0.866
VANMET_231 2018-04-21 03:40:00 231 11739.0   0.404 0.583 0.388 0.615   85.600   -1.743 0.405 0.656 1.487 2.438 0.323 0.325 0.400 0.711 0.00 849.50 -8.72 0.4700 265.70 21.71   0.409 0.592 0.652 0.407   -1.661   0.396 0.573 0.585 0.363   -1.904 1.2410       6.282 5.375 0.905
VANMET_231 2018-04-21 03:35:00 231 11739.0   0.427 0.613 0.423 0.603   85.400   -1.733 0.405 0.656 1.487 2.438 0.323 0.325 0.400 0.711 0.00 849.00 -8.75 0.4490 274.20 18.44   0.447 0.639 0.638 0.459   -1.660   0.411 0.593 0.570 0.396   -1.794 0.7380       6.298 5.379 0.920
VANMET_231 2018-04-21 03:30:00 231 11739.0   0.462 0.653 0.453 0.654   84.100   -1.926 0.405 0.656 1.487 2.438 0.323 0.325 0.400 0.711 0.00 849.00 -8.75 0.5370 264.90 21.08   0.469 0.660 0.728 0.472   -1.839   0.450 0.643 0.592 0.436   -2.056 0.9870       6.312 5.303 1.004
VANMET_231 2018-04-21 03:25:00 231 11739.0   0.488 0.685 0.498 0.676   83.400   -1.991 0.405 0.656 1.487 2.438 0.323 0.325 0.400 0.711 0.00 849.00 -8.75 0.5390 268.20 23.00   0.502 0.705 0.721 0.529   -1.943   0.470 0.658 0.630 0.479   -2.074 1.1040       6.333 5.277 1.051
VANMET_231 2018-04-21 03:20:00 231 11739.0   0.551 0.759 0.573 0.726   83.300   -1.924 0.405 0.656 1.487 2.438 0.323 0.325 0.400 0.711 0.00 849.00 -8.72 0.5670 267.00 27.55   0.602 0.808 0.819 0.615   -1.791   0.505 0.708 0.659 0.525   -2.131 1.6200       6.367 5.304 1.063
VANMET_231 2018-04-21 03:15:00 231 11739.0   0.608 0.811 0.570 0.866   81.900   -2.160 0.405 0.656 1.488 2.438 0.323 0.325 0.400 0.711 0.00 849.00 -8.72 0.7120 243.10 17.82   0.642 0.839 0.948 0.602   -1.899   0.555 0.760 0.806 0.509   -2.402 1.5940       6.366 5.212 1.152
VANMET_231 2018-04-21 03:10:00 231 11739.0   0.477 0.701 0.486 0.757   82.700   -2.111 0.406 0.656 1.487 2.438 0.323 0.325 0.400 0.711 0.00 849.50 -8.68 1.0460 244.40 27.07   0.553 0.761 0.889 0.532   -1.950   0.447 0.671 0.684 0.455   -2.333 1.8360       6.327 5.231 1.095
VANMET_231 2018-04-21 03:05:00 231 11739.0   0.444 0.668 0.473 0.686   84.500   -1.837 0.406 0.656 1.488 2.438 0.323 0.325 0.400 0.711 0.00 849.50 -8.67 0.6550 241.00 22.22   0.453 0.672 0.719 0.492   -1.711   0.436 0.660 0.637 0.458   -1.961 1.8750       6.321 5.338 0.980
VANMET_231 2018-04-21 03:00:00 231 11739.0   0.428 0.659 0.455 0.687   84.400   -1.868 0.406 0.657 1.488 2.438 0.323 0.325 0.400 0.711 0.00 849.50 -8.67 0.8290 246.70 26.86   0.439 0.672 0.767 0.481   -1.562   0.411 0.644 0.641 0.425   -2.112 1.8290       6.313 5.326 0.985
VANMET_231 2018-04-21 02:55:00 231 11739.0   0.365 0.569 0.359 0.636   86.500   -1.623 0.406 0.657 1.488 2.438 0.323 0.325 0.400 0.711 0.00 850.00 -8.67 1.0420 249.10 30.14   0.409 0.641 0.752 0.428   -1.437   0.331 0.525 0.591 0.314   -2.079 1.7640       6.269 5.423 0.846
VANMET_231 2018-04-21 02:50:00 231 11739.0   0.274 0.470 0.262 0.594   87.900   -1.513 0.406 0.657 1.488 2.438 0.323 0.325 0.400 0.711 0.00 849.50 -8.66 0.6900 253.00 27.23   0.324 0.518 0.619 0.314   -1.449   0.220 0.418 0.566 0.201   -1.652 1.1760       6.225 5.467 0.753
VANMET_231 2018-04-21 02:45:00 231 11739.0   0.149 0.336 0.158 0.385   89.300   -1.393 0.406 0.657 1.488 2.438 0.323 0.325 0.400 0.711 0.00 849.50 -8.64 0.6870 264.80 11.95   0.215 0.413 0.561 0.185   -1.224   0.128 0.309 0.268 0.144   -1.699 1.3650       6.178 5.516 0.661
VANMET_231 2018-04-21 02:40:00 231 11739.0   0.187 0.385 0.263 0.346   89.000   -1.343 0.406 0.657 1.489 2.438 0.323 0.325 0.400 0.711 0.00 849.50 -8.64 0.8520 274.90 17.41   0.230 0.454 0.459 0.324   -1.248   0.136 0.324 0.262 0.194   -1.543 1.8360       6.226 5.536 0.685
VANMET_231 2018-04-21 02:35:00 231 11739.0   0.266 0.471 0.350 0.471   87.800   -1.435 0.406 0.658 1.489 2.438 0.323 0.325 0.400 0.711 0.00 849.50 -8.64 0.9050 253.90 15.63   0.295 0.500 0.549 0.374   -1.322   0.213 0.416 0.370 0.314   -1.570 1.5090       6.265 5.499 0.764
VANMET_231 2018-04-21 02:30:00 231 11739.0   0.297 0.497 0.381 0.531   88.100   -1.361 0.406 0.658 1.489 2.438 0.323 0.325 0.400 0.711 0.00 848.50 -8.64 1.1370 252.60 20.52   0.323 0.520 0.583 0.413   -1.292   0.267 0.470 0.464 0.354   -1.523 1.9600       6.279 5.529 0.747
VANMET_231 2018-04-21 02:25:00 231 11739.0   0.329 0.543 0.446 0.526   88.300   -1.269 0.407 0.658 1.489 2.438 0.323 0.325 0.400 0.711 0.00 848.50 -8.64 0.7600 266.50 11.62   0.377 0.605 0.552 0.529   -1.204   0.287 0.490 0.492 0.383   -1.346 1.2350       6.309 5.566 0.738
VANMET_231 2018-04-21 02:20:00 231 11739.0   0.458 0.698 0.581 0.693   87.300   -1.283 0.406 0.658 1.489 2.438 0.323 0.325 0.400 0.711 0.00 848.00 -8.72 1.2420 258.40 15.90   0.498 0.744 0.794 0.612   -1.196   0.387 0.618 0.532 0.526   -1.422 2.7570       6.371 5.561 0.809
VANMET_231 2018-04-21 02:15:00 231 11739.0   0.480 0.723 0.625 0.707   87.300   -1.234 0.407 0.659 1.489 2.439 0.323 0.325 0.400 0.712 0.00 848.50 -8.81 1.0940 254.50 22.18   0.546 0.773 0.772 0.705   -1.152   0.437 0.685 0.656 0.572   -1.334 3.0900       6.391 5.581 0.812
VANMET_231 2018-04-21 02:10:00 231 11739.0   0.653 0.889 0.791 0.840   85.500   -1.357 0.407 0.658 1.489 2.438 0.323 0.325 0.400 0.711 0.00 848.00 -8.84 0.9840 256.50 31.53   0.754 0.995 0.968 0.874   -1.259   0.558 0.785 0.724 0.695   -1.489 1.7840       6.468 5.530 0.938
VANMET_231 2018-04-21 02:05:00 231 11739.0   0.774 1.015 0.865 1.043   85.000   -1.368 0.407 0.658 1.489 2.439 0.323 0.325 0.400 0.711 0.00 848.00 -8.85 1.3050 255.20 22.24   0.828 1.065 1.142 0.897   -1.195   0.735 0.986 0.952 0.820   -1.576 2.3590       6.503 5.526 0.975
VANMET_231 2018-04-21 02:00:00 231 11739.0   0.723 0.955 0.792 1.013   86.500   -1.196 0.407 0.659 1.489 2.438 0.323 0.325 0.400 0.711 0.00 848.00 -8.85 1.3930 243.40 18.88   0.744 0.999 1.078 0.850   -1.057   0.676 0.882 0.905 0.740   -1.377 2.5680       6.469 5.596 0.873
VANMET_231 2018-04-21 01:55:00 231 11739.0   0.699 0.905 0.759 0.947   85.500   -1.390 0.407 0.659 1.490 2.438 0.323 0.325 0.400 0.712 0.00 848.00 -8.88 1.0050 257.60 27.37   0.723 0.930 1.063 0.807   -1.190   0.684 0.888 0.867 0.734   -1.563 2.0060       6.454 5.517 0.936
VANMET_231 2018-04-21 01:50:00 231 11739.0   0.765 0.991 0.836 0.985   86.100   -1.228 0.406 0.659 1.489 2.438 0.323 0.325 0.400 0.712 0.00 848.00 -8.88 0.8490 254.50 16.50   0.814 1.035 1.070 0.866   -1.168   0.697 0.917 0.864 0.793   -1.337 1.7050       6.490 5.583 0.902
VANMET_231 2018-04-21 01:45:00 231 11739.0   0.826 1.058 0.882 1.058   86.300   -1.141 0.406 0.659 1.489 2.438 0.323 0.325 0.400 0.712 0.00 848.00 -8.92 0.6960 253.60 7.14   0.863 1.087 1.098 0.902   -1.006   0.807 1.037 1.027 0.849   -1.239 1.6660       6.511 5.619 0.892
VANMET_231 2018-04-21 01:40:00 231 11739.0   0.834 1.050 0.874 1.103   86.400   -1.131 0.407 0.659 1.490 2.438 0.323 0.325 0.400 0.712 0.00 848.00 -8.93 0.8840 242.10 17.01   0.882 1.095 1.204 0.912   -0.886   0.801 1.011 1.023 0.848   -1.485 1.6730       6.507 5.623 0.885
VANMET_231 2018-04-21 01:35:00 231 11739.0   0.830 1.053 0.919 1.074   88.000   -0.840 0.407 0.659 1.490 2.439 0.323 0.325 0.400 0.712 0.00 848.00 -8.93 0.7030 254.50 17.58   0.855 1.081 1.128 0.955   -0.643   0.807 1.022 1.042 0.882   -0.982 1.4370       6.529 5.744 0.783
VANMET_231 2018-04-21 01:30:00 231 11739.0   0.885 1.109 0.974 1.135   89.200   -0.602 0.408 0.660 1.490 2.439 0.323 0.325 0.400 0.712 0.00 848.00 -8.98 0.6760 271.40 11.92   0.925 1.146 1.151 1.027   -0.293   0.860 1.087 1.118 0.945   -0.699 1.2540       6.555 5.845 0.708
VANMET_231 2018-04-21 01:25:00 231 11739.0   0.951 1.178 1.042 1.213   91.200   -0.224 0.407 0.660 1.490 2.439 0.323 0.325 0.400 0.712 0.00 848.00 -9.03 0.7430 260.20 15.77   0.965 1.194 1.264 1.064   -0.116   0.931 1.151 1.163 1.020   -0.317 1.2940       6.587 6.009 0.580
VANMET_231 2018-04-21 01:20:00 231 11739.0   0.960 1.193 1.077 1.273   92.700   0.030 0.407 0.660 1.490 2.439 0.323 0.325 0.400 0.712 0.00 848.00 -9.04 0.6280 255.00 18.48   0.981 1.211 1.307 1.113   0.223   0.948 1.181 1.249 1.047   -0.121 1.1240       6.603 6.121 0.482
VANMET_231 2018-04-21 01:15:00 231 11739.0   0.990 1.228 1.135 1.260   94.500   0.344 0.407 0.660 1.490 2.439 0.323 0.325 0.400 0.712 0.00 848.00 -9.04 0.6300 264.50 12.75   1.002 1.248 1.285 1.173   0.390   0.983 1.214 1.225 1.103   0.253 0.9020       6.631 6.262 0.365
VANMET_231 2018-04-21 01:10:00 231 11739.0   1.042 1.286 1.194 1.303   94.300   0.376 0.407 0.660 1.490 2.438 0.323 0.324 0.400 0.712 0.00 847.50 -9.04 0.6920 261.10 13.29   1.093 1.333 1.355 1.229   0.421   1.007 1.253 1.266 1.156   0.315 1.3390       6.659 6.277 0.380
VANMET_231 2018-04-21 01:05:00 231 11739.0   1.118 1.374 1.273 1.342   94.200   0.448 0.407 0.661 1.491 2.439 0.323 0.324 0.400 0.712 0.00 847.00 -9.04 0.8360 259.80 15.29   1.190 1.447 1.407 1.351   0.519   1.089 1.335 1.311 1.225   0.395 1.7770       6.697 6.310 0.388
VANMET_231 2018-04-21 01:00:00 231 11739.0   1.261 1.512 1.408 1.497   94.100   0.561 0.407 0.662 1.491 2.439 0.322 0.324 0.400 0.712 0.00 847.00 -9.05 0.9540 264.50 28.67   1.317 1.558 1.588 1.464   0.688   1.198 1.456 1.433 1.344   0.463 1.7970       6.763 6.362 0.399
VANMET_231 2018-04-21 00:55:00 231 11739.0   1.395 1.638 1.561 1.611   94.000   0.702 0.408 0.662 1.492 2.439 0.322 0.324 0.400 0.712 0.00 847.00 -9.06 1.0030 256.40 22.33   1.467 1.713 1.714 1.650   0.760   1.331 1.574 1.520 1.497   0.599 1.9010       6.838 6.427 0.410
VANMET_231 2018-04-21 00:50:00 231 11739.0   1.570 1.832 1.764 1.792   95.200   1.074 0.408 0.662 1.492 2.439 0.322 0.324 0.400 0.712 0.00 847.00 -9.08 1.2130 238.20 29.65   1.683 1.941 1.917 1.855   1.227   1.475 1.723 1.672 1.653   0.807 2.5940       6.938 6.602 0.333
VANMET_231 2018-04-21 00:45:00 231 11739.0   1.755 2.029 1.943 2.013   95.700   1.334 0.407 0.661 1.492 2.439 0.322 0.324 0.400 0.712 0.00 847.00 -9.07 1.2850 244.70 22.31   1.826 2.100 2.104 2.004   1.493   1.690 1.950 1.939 1.871   1.107 2.7510       7.027 6.727 0.302
VANMET_231 2018-04-21 00:40:00 231 11739.0   1.905 2.160 2.062 2.127   96.400   1.553 0.408 0.662 1.492 2.438 0.322 0.324 0.399 0.712 0.00 847.50 -9.07 1.2420 247.20 19.17   1.970 2.219 2.191 2.114   1.611   1.830 2.104 2.064 2.014   1.498 2.3650       7.087 6.834 0.255
VANMET_231 2018-04-21 00:35:00 231 11739.0   2.045 2.299 2.188 2.265   96.100   1.638 0.408 0.662 1.492 2.439 0.322 0.324 0.399 0.712 0.00 847.50 -9.07 1.1120 244.60 29.97   2.101 2.374 2.353 2.257   1.690   1.978 2.226 2.176 2.121   1.582 1.7970       7.152 6.875 0.279
VANMET_231 2018-04-21 00:30:00 231 11739.0   2.117 2.392 2.277 2.386   96.000   1.712 0.408 0.662 1.492 2.439 0.322 0.324 0.399 0.712 0.00 847.50 -9.05 1.2940 236.60 18.57   2.136 2.404 2.430 2.320   1.772   2.088 2.375 2.323 2.240   1.657 2.0120       7.197 6.912 0.288
VANMET_231 2018-04-21 00:25:00 231 11739.0   2.174 2.453 2.367 2.420   95.900   1.778 0.408 0.662 1.492 2.438 0.322 0.324 0.399 0.712 0.00 847.00 -9.04 1.6190 233.20 24.37   2.223 2.492 2.503 2.453   1.839   2.113 2.401 2.328 2.317   1.717 2.6390       7.244 6.945 0.297
VANMET_231 2018-04-21 00:20:00 231 11739.0   2.288 2.589 2.519 2.532   95.300   1.847 0.408 0.662 1.492 2.438 0.322 0.324 0.399 0.712 0.00 848.00 -9.04 1.0120 249.20 17.77   2.342 2.664 2.595 2.593   1.892   2.221 2.504 2.452 2.457   1.818 2.1040       7.323 6.979 0.344
VANMET_231 2018-04-21 00:15:00 231 11739.0   2.494 2.777 2.685 2.718   94.600   1.909 0.408 0.663 1.492 2.438 0.322 0.324 0.399 0.712 0.00 848.00 -9.01 1.1600 249.40 21.37   2.619 2.853 2.901 2.755   2.044   2.352 2.675 2.536 2.599   1.851 2.9790       7.410 7.010 0.400
VANMET_231 2018-04-21 00:10:00 231 11739.0   2.647 2.925 2.867 2.898   95.500   2.215 0.409 0.663 1.492 2.438 0.322 0.324 0.399 0.712 0.00 848.50 -8.99 1.2830 253.60 28.56   2.714 3.010 2.981 2.961   2.325   2.577 2.829 2.784 2.778   2.082 2.4300       7.506 7.165 0.338
VANMET_231 2018-04-21 00:05:00 231 11739.0   2.806 3.106 3.031 3.075   95.700   2.410 0.409 0.663 1.492 2.439 0.322 0.324 0.399 0.712 0.00 848.50 -8.98 1.2250 243.30 26.70   2.873 3.160 3.187 3.087   2.518   2.709 3.023 2.970 2.968   2.321 2.2080       7.594 7.266 0.327
VANMET_231 2018-04-21 00:00:00 231 11739.0   2.973 3.274 3.170 3.252   96.700   2.703 0.409 0.663 1.493 2.438 0.322 0.323 0.399 0.712 0.00 849.00 -8.98 1.5840 240.40 20.22   3.078 3.370 3.385 3.240   2.830   2.876 3.180 3.080 3.094   2.544 2.9990       7.669 7.419 0.253
VANMET_231 2018-04-20 23:55:00 231 11739.0   3.047 3.357 3.241 3.387   97.700   2.909 0.409 0.663 1.493 2.438 0.322 0.323 0.399 0.712 0.00 849.00 -8.96 1.6780 237.00 21.08   3.116 3.385 3.432 3.254   2.991   2.967 3.319 3.311 3.227   2.810 3.1160       7.708 7.529 0.177
VANMET_231 2018-04-20 23:50:00 231 11739.0   2.933 3.314 3.239 3.336   99.000   3.095 0.409 0.663 1.493 2.439 0.321 0.323 0.399 0.712 0.00 848.50 -8.93 1.5810 238.40 17.72   2.984 3.350 3.436 3.260   3.217   2.868 3.265 3.221 3.210   2.971 3.9270       7.707 7.629 0.077
VANMET_231 2018-04-20 23:45:00 231 11739.0   2.838 3.248 3.252 3.179   99.800   3.228 0.409 0.664 1.493 2.438 0.321 0.323 0.399 0.712 0.00 848.50 -8.93 1.2250 244.90 14.60   2.969 3.324 3.304 3.323   3.261   2.782 3.210 3.041 3.207   3.200 2.2740       7.714 7.701 0.015
VANMET_231 2018-04-20 23:40:00 231 11739.0   3.193 3.477 3.412 3.522   99.900   3.401 0.409 0.664 1.494 2.439 0.321 0.323 0.399 0.712 0.00 848.00 -8.87 0.6150 242.80 64.10   3.276 3.536 3.629 3.459   3.462   3.001 3.347 3.217 3.330   3.258 1.0060       7.802 7.796 0.008
VANMET_231 2018-04-20 23:35:00 231 11739.0   3.167 3.514 3.463 3.599   100.000   3.465 0.410 0.664 1.493 2.439 0.321 0.323 0.399 0.712 0.00 848.00 -8.87 0.8400 220.30 21.10   3.258 3.562 3.686 3.476   3.478   3.054 3.446 3.430 3.449   3.452 1.9670       7.830 7.831 0.000
VANMET_231 2018-04-20 23:30:00 231 11739.0   3.221 3.557 3.528 3.557   100.000   3.530 0.410 0.665 1.494 2.439 0.321 0.323 0.399 0.712 0.00 848.00 -8.85 0.7190 252.00 13.79   3.329 3.625 3.776 3.565   3.568   3.041 3.448 3.341 3.466   3.468 1.1370       7.866 7.867 0.000
VANMET_231 2018-04-20 23:25:00 231 11739.0   3.267 3.612 3.580 3.673   100.000   3.582 0.410 0.665 1.493 2.439 0.321 0.323 0.399 0.712 0.00 848.00 -8.83 0.2170 243.80 19.76   3.291 3.656 3.742 3.615   3.618   3.259 3.578 3.639 3.542   3.545 0.6080       7.895 7.896 0.000
VANMET_231 2018-04-20 23:20:00 231 11739.0   3.320 3.684 3.642 3.674   100.000   3.645 0.410 0.665 1.494 2.439 0.321 0.323 0.399 0.712 0.00 848.00 -8.77 0.8710 255.70 14.37   3.389 3.734 3.745 3.681   3.684   3.257 3.640 3.594 3.605   3.608 1.9730       7.930 7.931 0.000
VANMET_231 2018-04-20 23:15:00 231 11739.0   3.448 3.746 3.688 3.782   99.900   3.683 0.410 0.665 1.494 2.439 0.321 0.323 0.399 0.712 0.00 847.50 -8.71 0.7260 246.40 17.28   3.487 3.769 3.855 3.718   3.701   3.411 3.724 3.711 3.652   3.654 1.3130       7.955 7.953 0.008
VANMET_231 2018-04-20 23:10:00 231 11739.0   3.538 3.814 3.767 3.857   99.800   3.737 0.410 0.665 1.494 2.439 0.321 0.322 0.399 0.712 0.00 847.00 -8.70 0.7450 241.80 25.06   3.562 3.840 3.903 3.801   3.777   3.499 3.774 3.791 3.724   3.708 1.2540       8.000 7.983 0.016
VANMET_231 2018-04-20 23:05:00 231 11739.0   3.582 3.895 3.866 3.904   99.300   3.776 0.410 0.666 1.494 2.439 0.320 0.322 0.399 0.712 0.00 847.00 -8.66 0.5740 241.30 14.12   3.644 3.953 3.991 3.914   3.821   3.538 3.841 3.846 3.811   3.715 1.1110       8.056 8.005 0.056
VANMET_231 2018-04-20 23:00:00 231 11739.0   3.676 3.969 3.923 4.051   99.100   3.796 0.411 0.666 1.495 2.439 0.320 0.322 0.399 0.712 0.00 847.00 -8.62 0.8290 236.80 17.67   3.720 4.002 4.123 3.934   3.858   3.636 3.938 3.962 3.907   3.729 1.2740       8.088 8.016 0.073
VANMET_231 2018-04-20 22:55:00 231 11739.0   3.654 3.959 3.941 4.040   98.600   3.741 0.410 0.666 1.495 2.439 0.320 0.322 0.399 0.712 0.00 847.00 -8.59 0.6620 250.40 20.47   3.708 4.001 4.168 3.964   3.778   3.581 3.921 3.953 3.920   3.687 1.0190       8.099 7.985 0.113
VANMET_231 2018-04-20 22:50:00 231 11739.0   3.519 3.899 3.927 3.990   97.900   3.624 0.411 0.667 1.495 2.440 0.320 0.322 0.399 0.712 0.00 847.00 -8.56 0.5200 256.20 15.09   3.566 3.917 4.025 3.944   3.674   3.479 3.875 3.921 3.907   3.547 1.0320       8.091 7.920 0.170
VANMET_231 2018-04-20 22:45:00 231 11739.0   3.469 3.892 3.960 3.876   96.900   3.522 0.411 0.667 1.495 2.440 0.320 0.322 0.399 0.712 0.00 847.00 -8.55 0.6700 259.70 16.47   3.499 3.939 3.981 3.993   3.564   3.449 3.866 3.793 3.927   3.478 1.1500       8.109 7.863 0.251
VANMET_231 2018-04-20 22:40:00 231 11739.0   3.622 4.032 4.046 3.994   96.300   3.506 0.411 0.667 1.495 2.440 0.320 0.322 0.399 0.712 0.00 847.00 -8.51 0.7830 248.90 19.92   3.737 4.088 4.131 4.076   3.553   3.508 3.926 3.809 4.016   3.452 1.7440       8.159 7.854 0.302
VANMET_231 2018-04-20 22:35:00 231 11739.0   3.744 4.110 4.108 4.132   95.500   3.460 0.411 0.668 1.495 2.440 0.320 0.322 0.399 0.712 0.00 847.00 -8.45 0.8300 237.00 27.57   3.803 4.147 4.242 4.139   3.520   3.719 4.068 4.036 4.069   3.386 1.2670       8.194 7.828 0.369
VANMET_231 2018-04-20 22:30:00 231 11739.0   3.718 4.147 4.149 4.180   95.100   3.433 0.412 0.668 1.496 2.440 0.319 0.321 0.399 0.712 0.00 847.00 -8.41 0.7410 251.50 26.20   3.746 4.193 4.266 4.172   3.496   3.671 4.112 4.066 4.133   3.343 1.5350       8.218 7.813 0.403
VANMET_231 2018-04-20 22:25:00 231 11739.0   3.821 4.235 4.292 4.116   93.700   3.373 0.412 0.669 1.495 2.440 0.319 0.321 0.399 0.712 0.00 847.00 -8.41 0.6660 277.90 18.88   3.997 4.406 4.439 4.415   3.508   3.676 4.115 3.908 4.173   3.292 1.0260       8.301 7.780 0.523
VANMET_231 2018-04-20 22:20:00 231 11739.0   4.045 4.446 4.424 4.524   93.700   3.507 0.412 0.669 1.496 2.440 0.319 0.321 0.399 0.712 0.00 847.00 -8.40 0.7180 256.50 28.19   4.089 4.469 4.677 4.444   3.532   4.008 4.412 4.405 4.411   3.471 0.9670       8.378 7.854 0.528
VANMET_231 2018-04-20 22:15:00 231 11739.0   4.069 4.459 4.442 4.538   93.700   3.519 0.412 0.669 1.496 2.440 0.319 0.321 0.399 0.712 0.00 847.00 -8.38 1.1160 252.80 26.20   4.182 4.545 4.689 4.484   3.585   3.940 4.374 4.391 4.394   3.436 2.2150       8.389 7.861 0.528
VANMET_231 2018-04-20 22:10:00 231 11739.0   3.919 4.379 4.393 4.438   94.500   3.589 0.412 0.669 1.496 2.440 0.319 0.321 0.399 0.712 0.00 847.00 -8.29 0.6630 257.20 14.79   3.956 4.403 4.520 4.427   3.624   3.886 4.348 4.334 4.368   3.566 1.0190       8.360 7.900 0.460
VANMET_231 2018-04-20 22:05:00 231 11739.0   3.928 4.414 4.433 4.467   94.200   3.586 0.412 0.669 1.496 2.439 0.319 0.321 0.399 0.712 0.00 847.00 -8.22 0.6560 268.60 26.28   3.967 4.446 4.571 4.454   3.622   3.888 4.382 4.378 4.401   3.524 1.6990       8.383 7.898 0.486
VANMET_231 2018-04-20 22:00:00 231 11739.0   3.963 4.432 4.452 4.579   94.600   3.668 0.412 0.669 1.496 2.439 0.319 0.321 0.399 0.712 0.00 847.00 -8.22 0.6790 255.40 20.02   3.997 4.484 4.632 4.483   3.716   3.926 4.384 4.494 4.427   3.590 1.3390       8.395 7.944 0.453
VANMET_231 2018-04-20 21:55:00 231 11739.0   3.885 4.333 4.375 4.497   95.100   3.657 0.413 0.670 1.497 2.439 0.319 0.320 0.399 0.712 0.00 847.50 -8.20 0.9140 244.50 24.47   3.967 4.422 4.733 4.446   3.697   3.779 4.237 4.318 4.333   3.625 1.7970       8.349 7.938 0.409
VANMET_231 2018-04-20 21:50:00 231 11739.0   3.731 4.202 4.304 4.284   95.000   3.580 0.412 0.670 1.497 2.439 0.318 0.320 0.399 0.712 0.00 848.00 -8.12 0.5930 262.70 14.34   3.793 4.251 4.421 4.340   3.660   3.667 4.179 4.179 4.277   3.500 1.1110       8.308 7.895 0.415
VANMET_231 2018-04-20 21:45:00 231 11739.0   3.681 4.212 4.339 4.149   94.000   3.457 0.412 0.670 1.497 2.439 0.318 0.320 0.399 0.712 0.00 848.00 -8.00 0.8100 262.20 18.32   3.772 4.318 4.276 4.403   3.502   3.641 4.136 4.013 4.273   3.404 1.4440       8.328 7.827 0.500
VANMET_231 2018-04-20 21:40:00 231 11739.0   3.784 4.323 4.383 4.394   94.100   3.521 0.413 0.671 1.497 2.439 0.318 0.320 0.399 0.712 0.00 848.50 -7.92 0.7570 270.60 14.20   3.817 4.369 4.491 4.436   3.552   3.740 4.244 4.201 4.339   3.466 1.7570       8.354 7.862 0.493
VANMET_231 2018-04-20 21:35:00 231 11739.0   3.792 4.273 4.367 4.362   93.900   3.467 0.413 0.671 1.497 2.439 0.318 0.320 0.399 0.712 0.00 849.00 -7.84 0.8570 272.50 24.71   3.860 4.331 4.550 4.395   3.538   3.735 4.222 4.241 4.299   3.376 1.9670       8.345 7.832 0.509
VANMET_231 2018-04-20 21:30:00 231 11739.0   3.662 4.156 4.301 4.228   93.900   3.415 0.413 0.671 1.497 2.439 0.318 0.320 0.399 0.712 0.00 848.50 -7.78 0.4260 268.70 22.27   3.695 4.197 4.363 4.319   3.469   3.637 4.132 4.120 4.279   3.373 0.9930       8.306 7.803 0.507
VANMET_231 2018-04-20 21:25:00 231 11739.0   3.769 4.210 4.357 4.213   93.200   3.356 0.414 0.671 1.497 2.439 0.318 0.319 0.399 0.712 0.00 848.00 -7.72 0.5970 288.10 18.07   3.829 4.278 4.341 4.418   3.420   3.700 4.146 4.080 4.302   3.303 0.8040       8.339 7.771 0.567
VANMET_231 2018-04-20 21:20:00 231 11739.0   3.917 4.354 4.475 4.384   92.600   3.390 0.414 0.672 1.497 2.439 0.317 0.319 0.399 0.712 0.00 848.00 -7.60 0.8110 281.80 23.74   3.981 4.412 4.534 4.528   3.465   3.823 4.277 4.249 4.421   3.324 1.3390       8.408 7.790 0.622
VANMET_231 2018-04-20 21:15:00 231 11739.0   3.963 4.377 4.513 4.424   92.100   3.340 0.414 0.672 1.498 2.440 0.317 0.319 0.398 0.712 0.00 848.00 -7.52 0.7670 279.80 29.09   4.053 4.449 4.600 4.557   3.407   3.858 4.287 4.214 4.454   3.245 1.6790       8.431 7.762 0.666
VANMET_231 2018-04-20 21:10:00 231 11739.0   3.975 4.418 4.583 4.553   91.800   3.364 0.414 0.673 1.498 2.439 0.317 0.319 0.398 0.712 0.00 848.00 -7.50 0.7430 283.40 29.57   4.051 4.488 4.790 4.646   3.478   3.935 4.371 4.436 4.544   3.295 1.3070       8.472 7.775 0.695
VANMET_231 2018-04-20 21:05:00 231 11739.0   3.967 4.424 4.575 4.694   92.500   3.466 0.415 0.673 1.498 2.439 0.317 0.319 0.398 0.712 0.00 848.00 -7.43 0.4040 259.40 38.51   4.041 4.502 4.863 4.640   3.510   3.918 4.364 4.555 4.533   3.434 0.8040       8.467 7.832 0.635
VANMET_231 2018-04-20 21:00:00 231 11739.0   3.900 4.347 4.547 4.508   92.100   3.384 0.415 0.673 1.498 2.439 0.317 0.318 0.398 0.712 0.00 848.00 -7.29 0.5280 287.80 31.63   3.927 4.377 4.726 4.589   3.437   3.856 4.307 4.366 4.503   3.337 1.1370       8.451 7.786 0.668
VANMET_231 2018-04-20 20:55:00 231 11739.0   3.960 4.415 4.613 4.499   91.300   3.316 0.414 0.673 1.498 2.439 0.316 0.318 0.398 0.712 0.00 848.00 -7.21 0.6460 297.70 21.09   4.010 4.463 4.559 4.648   3.360   3.918 4.370 4.459 4.565   3.287 1.3260       8.490 7.749 0.739
VANMET_231 2018-04-20 20:50:00 231 11739.0   4.022 4.511 4.670 4.624   90.900   3.316 0.415 0.673 1.498 2.439 0.316 0.318 0.398 0.712 0.00 848.00 -7.10 0.6810 300.90 22.88   4.036 4.540 4.682 4.684   3.344   4.004 4.474 4.555 4.648   3.277 0.8620       8.524 7.749 0.776
VANMET_231 2018-04-20 20:45:00 231 11739.0   4.028 4.547 4.672 4.662   90.700   3.284 0.415 0.674 1.498 2.439 0.316 0.318 0.398 0.712 0.00 848.00 -6.91 0.6890 321.70 11.82   4.071 4.591 4.835 4.691   3.324   3.985 4.527 4.530 4.654   3.247 1.2220       8.525 7.731 0.793
VANMET_231 2018-04-20 20:40:00 231 11739.0   3.963 4.472 4.659 4.552   90.100   3.174 0.415 0.674 1.498 2.439 0.316 0.318 0.398 0.712 0.00 848.00 -6.81 0.7400 305.40 27.61   4.050 4.547 4.711 4.710   3.308   3.913 4.426 4.437 4.620   3.092 1.1370       8.517 7.671 0.843
VANMET_231 2018-04-20 20:35:00 231 11739.0   3.941 4.509 4.780 4.545   89.100   3.139 0.415 0.674 1.498 2.439 0.316 0.318 0.398 0.712 0.00 848.00 -6.78 0.5400 313.80 17.85   3.958 4.538 4.627 4.846   3.183   3.927 4.480 4.483 4.707   3.089 0.9410       8.590 7.652 0.936
VANMET_231 2018-04-20 20:30:00 231 11739.0   4.080 4.660 4.984 4.618   88.700   3.272 0.416 0.675 1.498 2.439 0.315 0.317 0.398 0.712 0.00 848.00 -6.65 0.6710 296.70 38.54   4.202 4.793 4.834 5.101   3.387   3.948 4.540 4.455 4.879   3.103 0.9600       8.713 7.725 0.985
VANMET_231 2018-04-20 20:25:00 231 11739.0   4.301 4.865 5.147 4.915   88.600   3.425 0.416 0.675 1.498 2.439 0.315 0.317 0.398 0.712 0.00 848.00 -6.49 0.4650 293.40 21.56   4.402 4.919 5.108 5.187   3.503   4.217 4.798 4.791 5.111   3.379 0.6340       8.813 7.809 1.005
VANMET_231 2018-04-20 20:20:00 231 11739.0   4.478 4.990 5.245 4.968   88.500   3.503 0.416 0.675 1.499 2.439 0.315 0.317 0.398 0.712 0.00 848.00 -6.40 0.5590 293.90 36.72   4.615 5.121 5.146 5.359   3.579   4.365 4.880 4.782 5.147   3.448 0.8430       8.873 7.852 1.020
VANMET_231 2018-04-20 20:15:00 231 11739.0   4.707 5.200 5.381 5.329   88.300   3.602 0.416 0.675 1.499 2.439 0.315 0.317 0.398 0.712 0.00 848.00 -6.27 0.5460 280.00 36.24   4.770 5.257 5.612 5.409   3.703   4.623 5.134 5.111 5.349   3.543 1.2870       8.957 7.907 1.048
VANMET_231 2018-04-20 20:10:00 231 11739.0   4.740 5.251 5.424 5.391   88.800   3.728 0.416 0.676 1.499 2.439 0.315 0.316 0.398 0.712 0.00 848.50 -6.11 0.6510 266.30 24.40   4.785 5.294 5.547 5.448   3.826   4.715 5.212 5.291 5.395   3.677 1.1110       8.984 7.978 1.006
VANMET_231 2018-04-20 20:05:00 231 11739.0   4.704 5.188 5.376 5.378   89.400   3.770 0.416 0.676 1.499 2.439 0.314 0.316 0.398 0.712 0.00 848.50 -5.89 0.4760 258.10 15.54   4.744 5.226 5.477 5.401   3.816   4.671 5.162 5.277 5.351   3.692 1.1040       8.954 8.002 0.949
VANMET_231 2018-04-20 20:00:00 231 11739.0   4.633 5.186 5.349 5.348   89.300   3.733 0.416 0.676 1.498 2.439 0.314 0.316 0.398 0.712 0.00 849.00 -5.70 0.6300 269.30 24.36   4.700 5.209 5.458 5.381   3.818   4.576 5.158 5.239 5.328   3.659 1.3200       8.937 7.981 0.956
VANMET_231 2018-04-20 19:55:00 231 11739.0   4.600 5.151 5.383 5.258   89.000   3.719 0.416 0.676 1.498 2.439 0.314 0.316 0.398 0.712 0.00 848.50 -5.65 0.6790 285.40 13.68   4.626 5.178 5.308 5.410   3.781   4.579 5.129 5.205 5.364   3.663 1.5680       8.959 7.973 0.985
VANMET_231 2018-04-20 19:50:00 231 11739.0   4.646 5.175 5.394 5.194   89.000   3.731 0.417 0.677 1.498 2.438 0.314 0.316 0.398 0.712 0.00 849.00 -5.56 0.6120 289.10 14.92   4.728 5.264 5.310 5.439   3.787   4.601 5.140 5.087 5.366   3.660 1.0000       8.965 7.980 0.986
VANMET_231 2018-04-20 19:45:00 231 11739.0   4.810 5.341 5.486 5.368   88.300   3.707 0.417 0.677 1.499 2.438 0.314 0.315 0.398 0.712 0.00 849.50 -5.40 0.7440 280.30 18.31   4.869 5.400 5.507 5.532   3.783   4.736 5.274 5.252 5.433   3.573 1.4110       9.023 7.966 1.056
VANMET_231 2018-04-20 19:40:00 231 11739.0   4.844 5.377 5.571 5.432   88.100   3.769 0.417 0.677 1.499 2.438 0.313 0.315 0.398 0.712 0.00 850.50 -5.24 0.7470 278.30 27.63   4.879 5.401 5.670 5.601   3.841   4.783 5.330 5.285 5.495   3.669 1.3460       9.076 8.001 1.080
VANMET_231 2018-04-20 19:35:00 231 11739.0   4.960 5.517 5.696 5.489   87.100   3.730 0.417 0.678 1.499 2.438 0.313 0.315 0.398 0.712 0.00 850.00 -5.02 0.6460 298.80 18.26   5.051 5.642 5.668 5.790   3.793   4.868 5.400 5.309 5.614   3.674 1.1890       9.156 7.979 1.181
VANMET_231 2018-04-20 19:30:00 231 11739.0   5.118 5.710 5.845 5.681   86.800   3.826 0.418 0.678 1.499 2.438 0.313 0.315 0.398 0.712 0.00 851.00 -4.85 0.8160 274.00 29.23   5.224 5.781 5.754 5.909   3.888   5.061 5.655 5.475 5.793   3.726 1.3520       9.251 8.033 1.221
VANMET_231 2018-04-20 19:25:00 231 11739.0   5.375 5.929 6.030 5.887   86.200   3.910 0.418 0.678 1.499 2.438 0.313 0.314 0.398 0.712 0.00 851.00 -4.68 0.7770 289.80 20.92   5.529 6.077 6.315 6.115   4.057   5.229 5.776 5.637 5.922   3.830 1.5290       9.370 8.081 1.293
VANMET_231 2018-04-20 19:20:00 231 11739.0   5.487 6.045 6.129 6.075   86.900   4.113 0.418 0.679 1.499 2.438 0.312 0.314 0.398 0.712 0.00 850.00 -4.51 0.7660 264.30 25.49   5.549 6.086 6.157 6.194   4.165   5.430 5.985 5.992 6.081   4.071 1.4900       9.434 8.197 1.236
VANMET_231 2018-04-20 19:15:00 231 11739.0   5.528 6.098 6.209 6.051   86.300   4.094 0.418 0.678 1.498 2.437 0.312 0.314 0.398 0.712 0.00 849.50 -4.27 1.1040 262.70 19.19   5.702 6.219 6.216 6.289   4.234   5.431 6.022 5.798 6.163   3.970 2.5090       9.487 8.186 1.300
VANMET_231 2018-04-20 19:10:00 231 11739.0   5.738 6.259 6.339 6.277   86.000   4.172 0.418 0.679 1.498 2.438 0.312 0.314 0.398 0.712 0.01 849.00 -4.05 0.6340 262.60 12.92   5.799 6.326 6.373 6.418   4.251   5.708 6.221 6.193 6.286   4.106 1.0850       9.572 8.231 1.340
VANMET_231 2018-04-20 19:05:00 231 11739.0   5.844 6.386 6.469 6.410   85.400   4.195 0.418 0.679 1.498 2.438 0.312 0.314 0.398 0.712 0.20 849.50 -4.00 0.7350 258.30 12.23   5.868 6.430 6.466 6.521   4.243   5.809 6.333 6.335 6.415   4.114 1.1040       9.659 8.244 1.410
VANMET_231 2018-04-20 19:00:00 231 11739.0   5.819 6.447 6.542 6.466   85.000   4.201 0.419 0.679 1.499 2.438 0.312 0.313 0.398 0.712 0.51 849.50 -3.76 0.4710 254.80 9.64   5.871 6.483 6.512 6.580   4.258   5.777 6.423 6.414 6.514   4.120 0.7710       9.707 8.248 1.456
VANMET_231 2018-04-20 18:55:00 231 11739.0   5.893 6.503 6.574 6.644   84.400   4.144 0.419 0.679 1.499 2.438 0.311 0.313 0.398 0.712 0.52 849.50 -3.40 0.6580 252.70 18.75   5.952 6.539 6.753 6.613   4.235   5.797 6.432 6.512 6.520   4.048 1.4370       9.729 8.215 1.518
VANMET_231 2018-04-20 18:50:00 231 11739.0   5.771 6.430 6.558 6.393   84.200   4.087 0.419 0.679 1.499 2.437 0.311 0.313 0.397 0.712 0.94 848.50 -3.18 0.7580 255.50 25.62   5.813 6.472 6.509 6.612   4.198   5.686 6.394 6.283 6.506   3.975 1.4500       9.718 8.182 1.535
VANMET_231 2018-04-20 18:45:00 231 11739.0   5.946 6.542 6.677 6.517   84.400   4.244 0.419 0.679 1.499 2.438 0.311 0.313 0.397 0.712 3.08 848.50 -3.02 0.5480 259.50 20.69   6.033 6.598 6.599 6.738   4.299   5.869 6.498 6.408 6.622   4.169 0.7580       9.798 8.273 1.528
VANMET_231 2018-04-20 18:40:00 231 11739.0   6.225 6.735 6.845 6.663   84.200   4.366 0.419 0.680 1.499 2.438 0.310 0.312 0.397 0.712 9.45 848.00 -2.93 0.5370 280.60 15.85   6.365 6.843 6.915 6.919   4.460   6.051 6.607 6.463 6.741   4.294 0.7770       9.912 8.344 1.566
VANMET_231 2018-04-20 18:35:00 231 11739.0   6.198 6.753 6.861 6.742   83.400   4.243 0.420 0.681 1.499 2.438 0.310 0.312 0.397 0.712 15.29 848.00 -2.82 1.1000 260.10 19.73   6.361 6.855 7.011 6.912   4.348   6.119 6.702 6.481 6.826   4.105 1.9470       9.923 8.272 1.647
VANMET_231 2018-04-20 18:30:00 231 11739.0   6.294 6.874 7.002 6.755   82.200   4.188 0.420 0.681 1.499 2.438 0.310 0.312 0.397 0.712 21.02 847.50 -2.47 0.7790 269.30 18.94   6.374 6.947 6.893 7.090   4.282   6.149 6.730 6.482 6.892   4.073 1.2940       10.019 8.240 1.783
VANMET_231 2018-04-20 18:25:00 231 11739.0   6.497 7.070 7.196 6.947   81.300   4.215 0.420 0.681 1.499 2.437 0.310 0.311 0.397 0.712 24.64 847.50 -2.11 0.7140 264.70 35.09   6.575 7.158 7.122 7.266   4.317   6.359 6.944 6.742 7.110   4.128 1.2150       10.154 8.256 1.899
VANMET_231 2018-04-20 18:20:00 231 11739.0   6.603 7.227 7.331 7.151   80.400   4.187 0.420 0.682 1.499 2.437 0.309 0.311 0.397 0.712 31.54 847.00 -1.89 0.7960 251.40 31.35   6.669 7.275 7.310 7.365   4.266   6.521 7.135 6.986 7.279   4.142 1.3000       10.248 8.240 2.009
VANMET_231 2018-04-20 18:15:00 231 11739.0   6.681 7.309 7.420 7.164   80.100   4.218 0.420 0.682 1.498 2.437 0.309 0.311 0.397 0.712 40.76 846.50 -1.76 0.9640 256.10 20.31   6.789 7.391 7.324 7.471   4.272   6.593 7.220 7.059 7.355   4.088 1.4310       10.311 8.258 2.052
VANMET_231 2018-04-20 18:10:00 231 11739.0   6.856 7.453 7.527 7.304   79.790   4.270 0.420 0.682 1.498 2.437 0.309 0.311 0.397 0.712 52.39 846.00 -1.42 0.8870 252.10 19.78   6.984 7.522 7.543 7.563   4.372   6.739 7.339 7.073 7.451   4.175 1.5220       10.386 8.288 2.099
VANMET_231 2018-04-20 18:05:00 231 11739.0   6.808 7.403 7.519 7.283   79.510   4.212 0.420 0.682 1.498 2.437 0.308 0.310 0.397 0.712 56.03 845.50 -1.02 0.9150 245.20 18.92   6.963 7.499 7.561 7.546   4.301   6.765 7.378 7.171 7.490   4.020 1.5160       10.381 8.254 2.127
VANMET_231 2018-04-20 18:00:00 231 11739.0   6.733 7.325 7.482 7.108   79.380   4.152 0.421 0.682 1.498 2.437 0.308 0.310 0.397 0.712 58.50 844.50 -0.85 0.9710 256.30 19.44   6.819 7.434 7.385 7.548   4.252   6.639 7.199 6.855 7.419   4.060 2.6720       10.354 8.220 2.135
VANMET_231 2018-04-20 17:55:00 231 11739.0   6.979 7.536 7.630 7.463   78.350   4.110 0.421 0.683 1.498 2.437 0.308 0.310 0.397 0.712 41.52 843.00 -0.62 0.8470 271.00 14.05   7.081 7.605 7.691 7.664   4.254   6.790 7.404 7.106 7.574   3.928 2.0250       10.460 8.195 2.265
VANMET_231 2018-04-20 17:50:00 231 11739.0   6.984 7.552 7.688 7.501   78.010   4.104 0.421 0.683 1.498 2.437 0.307 0.309 0.397 0.712 20.45 841.50 -0.26 1.0890 254.10 24.29   7.038 7.617 7.671 7.720   4.342   6.929 7.501 7.381 7.650   3.888 1.9270       10.501 8.192 2.309
VANMET_231 2018-04-20 17:45:00 231 11739.0   7.143 7.723 7.881 7.490   76.300   3.976 0.421 0.683 1.498 2.437 0.307 0.309 0.397 0.712 25.66 840.50 0.16 1.0100 271.40 19.32   7.297 7.888 7.752 8.000   4.164   6.965 7.534 7.048 7.716   3.791 1.7250       10.640 8.118 2.522
VANMET_231 2018-04-20 17:40:00 231 11739.0   7.418 7.961 8.090 7.743   75.910   4.109 0.421 0.683 1.498 2.437 0.306 0.308 0.397 0.712 43.77 838.50 0.52 0.9280 262.70 19.94   7.527 8.050 7.894 8.220   4.264   7.282 7.882 7.657 8.020   3.618 2.5940       10.793 8.195 2.600
VANMET_231 2018-04-20 17:35:00 231 11739.0   7.649 8.190 8.360 7.878   75.660   4.324 0.421 0.683 1.498 2.437 0.305 0.307 0.397 0.712 63.36 836.00 0.92 0.5200 272.40 31.36   7.793 8.310 8.000 8.510   4.510   7.544 8.060 7.781 8.230   4.226 0.7770       10.993 8.320 2.676
VANMET_231 2018-04-20 17:30:00 231 11739.0   7.937 8.490 8.660 8.180   74.860   4.458 0.422 0.684 1.499 2.437 0.304 0.306 0.397 0.711 68.04 836.00 1.36 0.6930 251.10 24.81   8.090 8.670 8.350 8.830   4.567   7.835 8.340 8.030 8.520   4.102 1.5290       11.219 8.398 2.820
VANMET_231 2018-04-20 17:25:00 231 11739.0   8.180 8.840 8.960 8.480   73.100   4.403 0.422 0.684 1.498 2.437 0.303 0.307 0.397 0.711 76.09 835.00 1.59 0.5040 254.50 28.10   8.290 8.940 8.690 9.040   4.602   8.090 8.700 8.340 8.830   4.040 1.1170       11.449 8.366 3.080
VANMET_231 2018-04-20 17:20:00 231 11739.0   8.410 9.070 9.120 8.670   72.630   4.467 0.422 0.684 1.498 2.436 0.302 0.307 0.397 0.711 97.80 835.00 1.70 0.3240 246.40 36.17   8.550 9.140 8.850 9.180   4.665   8.240 8.960 8.510 9.060   4.352 0.9210       11.573 8.403 3.168
VANMET_231 2018-04-20 17:15:00 231 11739.0   8.590 9.120 9.200 8.650   70.760   4.177 0.422 0.684 1.498 2.436 0.302 0.307 0.397 0.711 121.30 835.00 2.05 0.7790 224.30 33.69   8.670 9.210 8.780 9.360   4.487   8.520 9.090 8.350 9.140   3.947 1.6010       11.636 8.234 3.402
VANMET_231 2018-04-20 17:10:00 231 11739.0   8.770 9.310 9.490 8.880   68.650   4.020 0.422 0.684 1.498 2.436 0.301 0.307 0.397 0.711 157.50 835.00 2.32 1.1630 243.60 46.05   8.830 9.440 9.040 9.680   4.168   8.710 9.230 8.430 9.360   3.830 2.0320       11.865 8.144 3.720
VANMET_231 2018-04-20 17:05:00 231 11739.0   9.120 9.650 9.810 9.150   68.750   4.348 0.422 0.685 1.498 2.437 0.301 0.307 0.397 0.711 225.30 837.50 2.44 0.9640 242.70 25.39   9.220 9.710 9.240 9.870   4.582   8.870 9.490 8.880 9.720   4.026 1.4770       12.123 8.334 3.789
VANMET_231 2018-04-20 17:00:00 231 11739.0   9.300 9.850 10.020 9.240   65.560   3.876 0.422 0.685 1.498 2.436 0.300 0.307 0.397 0.711 255.60 840.50 2.63 1.0530 226.70 33.93   9.390 9.910 9.480 10.140   4.233   9.230 9.720 9.000 9.880   3.524 3.3520       12.295 8.062 4.234
VANMET_231 2018-04-20 16:55:00 231 11739.0   9.510 10.110 10.210 9.460   66.220   4.196 0.422 0.685 1.498 2.436 0.300 0.307 0.397 0.711 234.00 843.00 2.72 1.3020 267.10 29.44   9.690 10.290 9.660 10.320   4.311   9.260 9.880 8.950 10.080   4.001 2.5280       12.453 8.245 4.206
VANMET_231 2018-04-20 16:50:00 231 11739.0   9.780 10.260 10.340 9.550   64.580   3.964 0.422 0.685 1.498 2.436 0.299 0.307 0.397 0.711 328.00 846.00 2.93 1.1040 239.30 29.26   9.960 10.340 9.760 10.440   4.216   9.680 10.170 9.410 10.290   3.716 3.6720       12.561 8.112 4.449
VANMET_231 2018-04-20 16:45:00 231 11739.0   10.030 10.470 10.470 9.620   63.660   3.885 0.422 0.685 1.497 2.437 0.299 0.307 0.397 0.711 317.40 846.00 3.22 1.1540 249.30 34.10   10.250 10.690 9.890 10.590   4.194   9.910 10.380 9.390 10.410   3.513 1.9670       12.671 8.067 4.605
VANMET_231 2018-04-20 16:40:00 231 11739.0   10.200 10.710 10.470 9.690   62.630   3.640 0.422 0.685 1.498 2.436 0.299 0.307 0.397 0.711 375.90 846.00 3.60 1.3320 226.20 24.40   10.420 10.930 10.030 10.600   4.281   9.890 10.430 9.260 10.230   2.971 2.2280       12.671 7.928 4.735
VANMET_231 2018-04-20 16:35:00 231 11739.0   9.540 10.040 9.960 9.350   65.340   3.764 0.423 0.686 1.497 2.436 0.298 0.307 0.397 0.711 348.80 846.00 3.92 0.9630 236.00 27.56   9.900 10.400 9.640 10.190   4.155   9.090 9.600 9.040 9.670   3.439 1.8230       12.246 7.998 4.244
VANMET_231 2018-04-20 16:30:00 231 11739.0   9.180 9.670 9.700 9.160   64.680   3.381 0.423 0.685 1.497 2.436 0.298 0.308 0.397 0.711 172.60 846.50 4.15 1.1570 237.90 21.72   9.300 9.790 9.420 9.750   3.659   9.120 9.590 8.950 9.660   2.962 2.6720       12.034 7.785 4.250
VANMET_231 2018-04-20 16:25:00 231 11739.0   9.160 9.660 9.670 9.310   62.620   2.895 0.423 0.686 1.497 2.436 0.297 0.308 0.397 0.711 191.20 847.50 4.76 1.2400 230.50 21.59   9.290 9.790 9.500 9.730   3.175   9.020 9.520 9.100 9.590   2.544 2.1560       12.010 7.521 4.489
VANMET_231 2018-04-20 16:20:00 231 11739.0   9.080 9.560 9.640 8.910   62.220   2.767 0.423 0.686 1.497 2.435 0.297 0.308 0.397 0.711 186.40 847.50 5.41 0.9640 243.30 52.77   9.360 9.760 9.330 9.760   3.162   8.950 9.460 8.470 9.560   2.595 2.5350       11.986 7.453 4.528
VANMET_231 2018-04-20 16:15:00 231 11739.0   9.170 9.650 9.700 9.130   61.990   2.774 0.423 0.686 1.497 2.435 0.297 0.308 0.397 0.711 175.10 847.50 5.62 0.8010 240.00 23.12   9.330 9.770 9.500 9.750   3.166   9.090 9.560 8.690 9.660   2.513 1.5160       12.034 7.457 4.574
VANMET_231 2018-04-20 16:10:00 231 11739.0   9.100 9.660 9.770 9.130   61.390   2.706 0.423 0.686 1.497 2.436 0.297 0.308 0.397 0.711 173.50 846.50 5.73 0.6060 258.40 21.91   9.120 9.700 9.200 9.800   2.829   9.080 9.630 9.030 9.740   2.218 1.4240       12.091 7.421 4.668
VANMET_231 2018-04-20 16:05:00 231 11739.0   9.120 9.680 9.860 9.230   58.980   2.222 0.423 0.686 1.496 2.435 0.296 0.308 0.397 0.711 137.90 846.50 5.98 0.7040 261.40 18.28   9.300 9.860 9.430 9.980   2.506   9.030 9.590 9.140 9.760   1.656 1.8820       12.164 7.169 4.990
VANMET_231 2018-04-20 16:00:00 231 11739.0   9.250 9.880 10.070 9.430   56.930   1.928 0.423 0.685 1.496 2.435 0.296 0.308 0.397 0.711 131.80 847.00 6.13 1.1880 252.90 29.97   9.370 10.030 9.590 10.210   2.310   9.060 9.760 9.220 9.970   1.560 3.1030       12.336 7.020 5.313
VANMET_231 2018-04-20 15:55:00 231 11739.0   9.570 10.210 10.390 9.590   55.280   1.802 0.422 0.686 1.496 2.435 0.296 0.308 0.397 0.711 140.90 846.50 6.29 1.2560 238.80 49.08   9.780 10.400 9.890 10.600   2.646   9.370 10.040 9.390 10.220   0.620 3.6850       12.603 6.957 5.636
VANMET_231 2018-04-20 15:50:00 231 11739.0   10.110 10.710 10.900 9.860   53.790   1.904 0.422 0.686 1.496 2.435 0.296 0.308 0.397 0.711 171.40 846.50 6.59 1.3390 239.80 29.94   10.480 11.110 10.280 11.160   3.001   9.820 10.400 9.450 10.650   1.015 2.6200       13.039 7.008 6.025
VANMET_231 2018-04-20 15:45:00 231 11739.0   10.750 11.300 11.260 10.420   54.830   2.510 0.422 0.686 1.496 2.435 0.296 0.308 0.397 0.711 186.30 847.00 6.88 0.6290 238.00 44.94   10.910 11.400 10.520 11.340   3.405   10.500 11.130 10.340 11.150   1.924 1.0910       13.355 7.318 6.032
VANMET_231 2018-04-20 15:40:00 231 11739.0   10.860 11.430 11.370 10.580   52.690   2.055 0.422 0.686 1.496 2.435 0.296 0.308 0.397 0.711 201.70 847.00 7.13 0.6920 222.00 35.60   10.930 11.450 10.760 11.400   2.564   10.790 11.400 10.440 11.320   1.691 1.2940       13.452 7.084 6.364
VANMET_231 2018-04-20 15:35:00 231 11739.0   10.790 11.410 11.260 10.710   52.540   1.918 0.422 0.686 1.496 2.435 0.296 0.308 0.397 0.711 282.50 847.50 7.28 0.9930 249.90 27.69   10.910 11.550 10.930 11.380   2.403   10.600 11.180 10.390 11.090   1.575 1.7900       13.355 7.015 6.338
VANMET_231 2018-04-20 15:30:00 231 11739.0   10.290 10.860 10.850 10.140   56.030   2.434 0.423 0.686 1.496 2.435 0.296 0.308 0.397 0.711 320.90 847.50 7.51 0.6250 267.50 27.23   10.550 11.120 10.300 11.050   2.674   10.150 10.720 9.990 10.770   2.053 1.0060       12.996 7.278 5.714
VANMET_231 2018-04-20 15:25:00 231 11739.0   10.180 10.730 10.790 10.150   57.300   2.694 0.422 0.686 1.495 2.435 0.295 0.308 0.397 0.711 207.50 847.50 7.82 0.6480 245.20 18.25   10.250 10.780 10.340 10.820   3.023   10.110 10.660 10.000 10.760   2.241 1.1240       12.944 7.414 5.527
VANMET_231 2018-04-20 15:20:00 231 11739.0   10.250 10.740 10.800 10.240   53.350   1.694 0.422 0.686 1.495 2.435 0.295 0.308 0.397 0.711 152.40 848.00 8.00 0.8420 224.70 15.48   10.300 10.760 10.500 10.860   2.597   10.210 10.720 10.020 10.760   0.913 1.6860       12.953 6.903 6.042
VANMET_231 2018-04-20 15:15:00 231 11739.0   10.350 10.810 10.930 10.330   53.130   1.756 0.422 0.686 1.495 2.435 0.295 0.308 0.397 0.711 165.10 848.00 8.09 0.7280 249.90 17.31   10.460 10.920 10.560 11.010   2.338   10.230 10.750 10.210 10.880   0.403 1.7510       13.065 6.934 6.124
VANMET_231 2018-04-20 15:10:00 231 11739.0   10.490 11.010 11.110 10.520   50.810   1.306 0.422 0.687 1.495 2.435 0.295 0.308 0.397 0.711 182.00 848.00 8.28 0.9700 230.80 34.43   10.550 11.100 10.650 11.190   2.376   10.370 10.910 10.390 11.020   0.350 1.9600       13.222 6.713 6.504
VANMET_231 2018-04-20 15:05:00 231 11739.0   10.590 11.120 11.240 10.480   50.040   1.214 0.422 0.687 1.495 2.435 0.295 0.308 0.397 0.711 186.20 848.50 8.38 0.9220 239.90 36.92   10.750 11.190 10.690 11.280   1.912   10.510 11.070 10.300 11.210   0.281 2.1630       13.337 6.669 6.663
VANMET_231 2018-04-20 15:00:00 231 11739.0   10.920 11.330 11.380 10.500   46.950   0.453 0.422 0.687 1.495 2.434 0.295 0.308 0.397 0.711 194.50 849.00 8.56 0.5880 208.90 86.40   11.180 11.540 10.740 11.560   1.785   10.720 11.180 10.170 11.250   0.009 1.8550       13.461 6.312 7.141
VANMET_231 2018-04-20 14:55:00 231 11739.0   11.450 11.780 11.820 11.060   44.180   0.018 0.423 0.687 1.495 2.435 0.295 0.308 0.397 0.711 215.50 849.00 8.90 1.0370 224.80 29.36   11.720 12.040 11.220 11.990   0.853   11.220 11.590 10.890 11.600   -0.866 2.4430       13.859 6.116 7.736
VANMET_231 2018-04-20 14:50:00 231 11739.0   12.010 12.240 12.160 11.160   42.350   -0.268 0.423 0.688 1.496 2.435 0.295 0.308 0.397 0.711 247.70 849.00 8.90 0.7840 203.70 42.72   12.370 12.500 11.330 12.300   0.737   11.710 12.010 11.030 12.010   -1.022 1.7440       14.173 5.990 8.171
VANMET_231 2018-04-20 14:45:00 231 11739.0   12.520 12.720 12.510 11.680   36.090   -2.134 0.423 0.688 1.496 2.436 0.295 0.308 0.397 0.711 299.30 849.00 9.12 0.9660 168.00 43.52   12.750 12.950 11.890 12.720   -0.935   12.380 12.530 11.400 12.330   -3.148 2.3850       14.503 5.222 9.269
VANMET_231 2018-04-20 14:40:00 231 11739.0   12.740 12.950 12.750 11.810   33.690   -2.843 0.423 0.688 1.496 2.436 0.295 0.308 0.397 0.711 365.60 849.00 9.25 0.9090 186.70 44.59   12.850 13.080 11.890 12.870   -1.722   12.630 12.820 11.660 12.660   -3.698 1.9470       14.733 4.954 9.770
VANMET_231 2018-04-20 14:35:00 231 11739.0   12.990 13.050 12.890 12.020   30.950   -3.851 0.423 0.688 1.496 2.437 0.295 0.308 0.397 0.711 381.40 849.50 9.49 0.9770 171.30 47.26   13.240 13.320 12.290 13.120   -3.370   12.720 12.820 11.790 12.690   -4.514 2.4240       14.869 4.594 10.267
VANMET_231 2018-04-20 14:30:00 231 11739.0   13.230 13.280 13.160 12.140   27.860   -5.041 0.423 0.688 1.496 2.436 0.295 0.308 0.397 0.711 440.10 849.00 9.64 1.1200 212.80 34.48   13.460 13.470 12.360 13.310   -2.807   13.060 13.170 11.820 13.010   -7.002 2.7900       15.134 4.199 10.918
VANMET_231 2018-04-20 14:25:00 231 11739.0   13.800 13.850 13.680 12.130   29.880   -3.634 0.423 0.688 1.496 2.436 0.295 0.308 0.398 0.711 361.20 848.50 10.12 0.7290 162.40 39.67   14.190 14.380 12.400 14.240   -2.743   13.380 13.410 12.000 13.250   -4.833 1.5350       15.656 4.669 10.978
VANMET_231 2018-04-20 14:20:00 231 11739.0   15.670 15.620 15.010 13.010   27.210   -3.744 0.424 0.688 1.496 2.437 0.295 0.308 0.398 0.711 399.90 848.50 10.12 1.3050 222.10 36.26   16.920 17.070 13.400 15.700   -2.385   14.390 14.520 12.550 14.320   -4.595 2.0450       17.063 4.631 12.420
VANMET_231 2018-04-20 14:15:00 231 11739.0   16.510 16.440 15.360 13.200   29.260   -2.459 0.424 0.689 1.497 2.437 0.295 0.308 0.398 0.711 727.40 849.00 10.12 0.7810 217.00 42.78   17.220 17.100 13.470 15.700   -1.271   15.500 15.430 12.960 14.810   -3.744 1.3460       17.451 5.097 12.345
VANMET_231 2018-04-20 14:10:00 231 11739.0   15.050 15.180 14.830 12.960   30.550   -2.346 0.423 0.688 1.496 2.437 0.295 0.308 0.398 0.711 824.00 849.50 9.95 1.1080 173.00 43.66   15.360 15.360 13.440 14.990   -1.179   14.800 14.970 12.450 14.720   -3.747 1.9530       16.866 5.140 11.714
VANMET_231 2018-04-20 14:05:00 231 11739.0   14.970 15.020 14.810 13.390   28.250   -3.421 0.423 0.688 1.496 2.437 0.295 0.308 0.398 0.711 827.00 850.50 10.38 1.3220 205.60 52.43   15.160 15.180 13.750 14.930   -1.344   14.760 14.800 13.030 14.730   -5.155 2.8810       16.844 4.744 12.086
VANMET_231 2018-04-20 14:00:00 231 11739.0   15.760 15.820 15.140 13.250   29.670   -2.477 0.424 0.689 1.497 2.437 0.295 0.308 0.398 0.712 838.00 850.50 10.59 1.1710 199.60 50.03   16.110 16.030 13.660 15.310   -1.326   15.270 15.330 12.460 14.940   -5.541 1.9010       17.206 5.091 12.101
VANMET_231 2018-04-20 13:55:00 231 11739.0   15.030 15.190 14.820 13.030   27.620   -3.748 0.424 0.689 1.496 2.437 0.295 0.308 0.398 0.712 868.00 852.00 10.59 1.0690 197.20 48.89   15.510 15.650 13.450 14.910   -1.907   14.540 14.760 12.510 14.700   -5.821 1.9270       16.855 4.629 12.200
VANMET_231 2018-04-20 13:50:00 231 11739.0   15.070 15.080 14.610 12.940   28.430   -3.511 0.423 0.689 1.496 2.437 0.295 0.308 0.398 0.712 856.00 853.00 10.76 1.0620 179.20 38.34   15.380 15.290 13.360 14.810   -1.688   14.810 14.810 12.510 14.390   -5.243 1.6270       16.628 4.713 11.901
VANMET_231 2018-04-20 13:45:00 231 11739.0   14.870 14.820 14.550 13.170   26.860   -4.309 0.424 0.689 1.496 2.437 0.295 0.308 0.398 0.712 903.00 854.00 11.01 1.4210 231.70 46.32   15.170 14.980 13.300 14.690   -3.347   14.740 14.630 12.980 14.380   -5.686 2.5410       16.564 4.438 12.115
VANMET_231 2018-04-20 13:40:00 231 11739.0   14.730 14.610 14.210 12.290   31.220   -2.589 0.424 0.689 1.496 2.437 0.295 0.308 0.398 0.712 892.00 857.00 11.01 1.2900 191.70 29.44   15.160 14.910 13.060 14.460   -1.771   14.220 14.160 11.440 13.880   -3.920 2.5280       16.204 5.048 11.145
VANMET_231 2018-04-20 13:35:00 231 11739.0   14.690 14.730 14.380 12.670   27.960   -3.919 0.423 0.689 1.495 2.437 0.295 0.308 0.398 0.712 768.40 857.00 11.01 1.2010 238.50 30.35   14.830 14.870 13.120 14.490   -3.023   14.430 14.500 12.240 14.230   -5.233 2.0840       16.383 4.570 11.802
VANMET_231 2018-04-20 13:30:00 231 11739.0   14.190 14.420 13.990 12.050   27.720   -4.374 0.423 0.689 1.495 2.437 0.295 0.308 0.398 0.712 932.00 859.50 10.99 1.0280 230.50 48.22   14.490 14.690 12.550 14.340   -2.952   13.530 13.770 11.510 13.570   -5.518 2.1490       15.974 4.416 11.546
VANMET_231 2018-04-20 13:25:00 231 11739.0   13.560 13.760 13.750 12.020   28.170   -4.359 0.423 0.689 1.495 2.437 0.295 0.308 0.398 0.712 656.30 861.50 11.12 1.0990 287.50 63.39   14.100 14.300 12.490 14.300   -3.063   13.200 13.330 11.620 13.340   -5.307 1.9080       15.727 4.421 11.297
VANMET_231 2018-04-20 13:20:00 231 11739.0   14.360 14.450 14.180 12.380   29.500   -3.374 0.423 0.689 1.495 2.437 0.295 0.308 0.398 0.712 897.00 864.00 11.12 1.1840 210.40 55.32   14.680 14.790 12.710 14.370   -2.266   14.050 14.120 12.000 13.900   -4.663 2.2080       16.172 4.761 11.401
VANMET_231 2018-04-20 13:15:00 231 11739.0   14.460 14.500 14.170 12.550   27.490   -4.344 0.423 0.689 1.495 2.437 0.295 0.308 0.398 0.712 916.00 865.50 11.12 1.1200 192.90 46.40   14.600 14.640 13.020 14.420   -2.075   14.270 14.390 12.050 14.050   -5.822 2.1360       16.162 4.426 11.719
VANMET_231 2018-04-20 13:10:00 231 11739.0   14.790 14.660 14.200 12.610   27.800   -4.165 0.423 0.689 1.495 2.437 0.295 0.308 0.398 0.712 920.00 868.00 11.18 1.3480 199.60 24.08   15.010 14.840 13.030 14.310   -2.718   14.540 14.410 12.260 14.100   -5.651 2.6460       16.193 4.486 11.692
VANMET_231 2018-04-20 13:05:00 231 11739.0   14.640 14.700 14.100 12.320   26.250   -4.999 0.423 0.688 1.495 2.437 0.295 0.308 0.398 0.712 892.00 870.50 11.28 1.0270 216.00 60.25   14.870 14.930 12.720 14.360   -3.732   14.380 14.440 11.950 13.850   -6.842 1.8950       16.089 4.212 11.865
VANMET_231 2018-04-20 13:00:00 231 11739.0   14.480 14.580 13.840 11.970   23.850   -6.474 0.423 0.688 1.495 2.437 0.295 0.308 0.398 0.712 984.00 870.50 11.15 1.0810 232.00 44.48   14.940 15.040 12.390 14.160   -4.562   13.870 14.040 11.500 13.560   -7.263 2.3000       15.819 3.763 12.046
VANMET_231 2018-04-20 12:55:00 231 11739.0   13.200 13.490 13.060 11.540   27.040   -5.571 0.423 0.688 1.495 2.436 0.295 0.308 0.398 0.712 985.00 870.50 11.15 0.9920 260.60 30.28   13.810 13.980 11.960 13.590   -3.754   12.590 12.890 11.000 12.590   -7.941 1.4900       15.035 4.033 10.970
VANMET_231 2018-04-20 12:50:00 231 11739.0   12.770 13.000 12.510 10.860   34.510   -2.758 0.422 0.687 1.494 2.436 0.295 0.308 0.398 0.712 566.50 872.00 11.28 0.8630 209.60 42.84   13.020 13.150 11.030 12.600   -1.218   12.570 12.870 10.650 12.420   -5.050 1.8690       14.503 4.985 9.498
VANMET_231 2018-04-20 12:45:00 231 11739.0   12.020 12.430 12.150 10.870   34.960   -2.870 0.423 0.687 1.494 2.436 0.295 0.308 0.398 0.712 523.50 874.00 11.28 0.4340 223.10 33.52   12.500 12.910 10.980 12.400   -2.163   11.670 12.020 10.730 11.870   -3.707 1.0000       14.164 4.944 9.212
VANMET_231 2018-04-20 12:40:00 231 11739.0   11.700 12.040 11.820 10.740   36.920   -2.435 0.423 0.687 1.494 2.436 0.295 0.308 0.398 0.712 476.20 875.00 11.28 0.7500 263.60 44.27   11.790 12.130 10.820 11.890   -1.550   11.550 11.880 10.600 11.640   -3.300 1.1500       13.859 5.107 8.742
VANMET_231 2018-04-20 12:35:00 231 11739.0   11.700 12.070 11.900 10.800   36.120   -2.660 0.423 0.688 1.495 2.437 0.295 0.308 0.398 0.713 449.70 875.50 11.32 1.0790 247.00 14.09   12.130 12.520 10.940 12.260   -1.786   11.440 11.780 10.620 11.640   -4.442 2.1040       13.932 5.022 8.900
VANMET_231 2018-04-20 12:30:00 231 11739.0   12.110 12.380 12.220 10.880   33.940   -3.230 0.423 0.688 1.495 2.437 0.295 0.308 0.398 0.713 504.30 877.50 11.34 0.7850 256.50 26.04   12.220 12.530 10.920 12.260   -1.779   11.970 12.180 10.780 12.170   -4.460 1.4700       14.229 4.813 9.400
VANMET_231 2018-04-20 12:25:00 231 11739.0   12.190 12.470 12.410 11.000   32.890   -3.471 0.423 0.688 1.495 2.437 0.295 0.308 0.398 0.713 572.10 879.50 11.43 1.0510 257.70 21.87   12.510 12.760 11.100 12.580   -2.247   11.940 12.180 10.870 12.190   -4.704 1.5160       14.408 4.727 9.669
VANMET_231 2018-04-20 12:20:00 231 11739.0   12.420 12.670 12.590 11.100   32.430   -3.495 0.423 0.688 1.495 2.436 0.295 0.308 0.398 0.713 608.20 881.00 11.43 0.8990 248.50 22.76   12.520 12.740 11.290 12.710   -2.643   12.320 12.610 10.960 12.510   -4.812 1.8490       14.579 4.718 9.851
VANMET_231 2018-04-20 12:15:00 231 11739.0   12.910 12.850 12.950 11.320   28.510   -4.925 0.423 0.688 1.494 2.436 0.295 0.308 0.398 0.713 568.60 883.50 11.34 0.8990 251.50 36.97   13.420 13.180 11.960 13.470   -3.098   12.470 12.710 11.150 12.750   -6.211 2.1950       14.928 4.236 10.672
VANMET_231 2018-04-20 12:10:00 231 11739.0   15.050 14.630 14.440 12.400   32.140   -2.064 0.423 0.688 1.495 2.437 0.295 0.308 0.398 0.713 766.30 884.00 11.65 1.4630 210.80 28.12   16.440 15.650 12.960 14.800   1.165   13.460 13.270 12.080 13.600   -5.315 3.6590       16.447 5.249 11.161
VANMET_231 2018-04-20 12:05:00 231 11739.0   15.810 15.510 14.560 12.160   37.420   0.187 0.423 0.688 1.495 2.437 0.295 0.308 0.398 0.713 942.00 885.00 11.30 0.8480 188.10 19.97   16.390 15.700 12.450 14.690   1.601   15.470 15.320 11.870 14.350   -0.773 1.8360       16.575 6.191 10.373
VANMET_231 2018-04-20 12:00:00 231 11739.0   15.040 14.960 14.230 12.180   37.620   -0.035 0.423 0.688 1.494 2.437 0.295 0.308 0.398 0.713 889.00 888.00 11.65 0.9960 197.00 41.14   15.360 15.200 12.640 14.330   1.224   14.760 14.780 11.690 14.050   -1.082 2.0580       16.225 6.092 10.121
VANMET_231 2018-04-20 11:55:00 231 11739.0   14.270 14.110 13.420 11.470   36.430   -1.196 0.423 0.687 1.494 2.437 0.295 0.308 0.398 0.713 949.00 890.50 11.57 0.8970 181.00 38.25   14.920 14.760 11.960 14.040   -0.122   13.510 13.480 11.070 12.890   -2.293 1.8750       15.393 5.596 9.785
VANMET_231 2018-04-20 11:50:00 231 11739.0   13.320 13.180 12.910 11.210   38.680   -0.889 0.423 0.688 1.495 2.437 0.295 0.308 0.398 0.714 963.00 891.50 11.30 1.1630 200.30 44.07   13.610 13.440 11.480 13.140   0.957   12.870 12.790 10.940 12.680   -3.153 2.7900       14.889 5.724 9.130
VANMET_231 2018-04-20 11:45:00 231 11739.0   12.720 12.850 12.640 10.710   39.580   -0.762 0.423 0.687 1.494 2.437 0.295 0.308 0.398 0.714 769.10 893.00 11.30 0.7180 215.30 26.25   12.970 13.030 11.010 12.720   0.510   12.510 12.660 10.440 12.570   -1.924 1.5750       14.627 5.777 8.838
VANMET_231 2018-04-20 11:40:00 231 11739.0   12.610 12.540 11.990 10.230   40.100   -1.161 0.423 0.687 1.494 2.436 0.295 0.308 0.399 0.714 818.00 894.00 11.47 0.6830 158.30 44.23   13.240 13.260 10.540 12.530   0.732   12.070 11.980 9.750 11.520   -2.526 1.3000       14.015 5.611 8.395
VANMET_231 2018-04-20 11:35:00 231 11739.0   12.170 11.990 11.760 10.180   39.140   -1.709 0.423 0.688 1.495 2.437 0.295 0.308 0.399 0.714 705.60 894.00 11.70 0.8740 179.10 77.58   12.290 12.140 10.290 11.960   0.270   11.990 11.830 10.040 11.590   -2.937 1.8550       13.804 5.389 8.401
VANMET_231 2018-04-20 11:30:00 231 11739.0   12.390 12.400 12.250 10.370   40.600   -0.760 0.423 0.688 1.494 2.437 0.295 0.308 0.399 0.714 685.40 894.50 11.70 0.9970 203.00 35.44   12.660 12.740 10.810 12.600   0.406   12.100 12.040 10.080 11.930   -1.500 1.8100       14.257 5.778 8.469
VANMET_231 2018-04-20 11:25:00 231 11739.0   12.620 12.640 12.490 10.710   40.520   -0.578 0.423 0.688 1.494 2.437 0.295 0.308 0.399 0.714 775.40 895.50 11.70 0.8900 186.80 22.20   12.850 12.750 11.120 12.590   0.780   12.490 12.520 10.270 12.420   -1.849 1.4370       14.484 5.856 8.615
VANMET_231 2018-04-20 11:20:00 231 11739.0   12.730 12.770 12.750 10.860   40.930   -0.195 0.423 0.687 1.494 2.437 0.295 0.308 0.399 0.714 845.00 896.00 11.83 1.0220 227.30 36.21   13.000 13.180 11.280 13.210   0.434   12.470 12.520 10.370 12.440   -1.219 2.2800       14.733 6.022 8.703
VANMET_231 2018-04-20 11:15:00 231 11739.0   13.250 13.230 13.110 11.230   41.530   0.318 0.423 0.687 1.494 2.437 0.295 0.308 0.399 0.714 909.00 896.00 12.10 1.0080 226.50 25.97   13.490 13.440 11.440 13.340   1.788   13.090 13.070 11.090 12.750   -0.648 1.9800       15.085 6.251 8.820
VANMET_231 2018-04-20 11:10:00 231 11739.0   12.750 12.800 12.440 10.800   41.880   -0.171 0.423 0.688 1.494 2.437 0.295 0.308 0.399 0.714 894.00 896.00 11.83 0.9740 186.30 25.60   13.060 13.030 11.180 12.680   0.967   12.470 12.600 10.120 12.250   -1.414 1.9140       14.437 6.032 8.391
VANMET_231 2018-04-20 11:05:00 231 11739.0   12.690 12.600 12.370 11.010   41.170   -0.459 0.423 0.688 1.494 2.437 0.295 0.308 0.399 0.715 877.00 896.50 11.97 1.5460 208.80 12.76   12.780 12.690 11.340 12.470   0.542   12.480 12.460 10.490 12.180   -1.661 2.4700       14.370 5.907 8.454
VANMET_231 2018-04-20 11:00:00 231 11739.0   12.970 12.750 12.250 10.480   38.410   -1.522 0.423 0.687 1.494 2.437 0.295 0.308 0.399 0.715 881.00 897.50 11.83 1.1960 186.20 42.70   13.090 12.890 10.670 12.320   0.141   12.790 12.640 10.140 12.120   -3.150 2.0380       14.257 5.464 8.781
VANMET_231 2018-04-20 10:55:00 231 11739.0   12.920 12.740 12.130 10.270   40.140   -1.024 0.423 0.687 1.493 2.436 0.295 0.308 0.399 0.715 872.00 898.50 11.73 0.8530 177.00 41.26   13.210 12.880 10.590 12.320   0.098   12.600 12.490 10.000 11.950   -2.542 1.3200       14.145 5.667 8.467
VANMET_231 2018-04-20 10:50:00 231 11739.0   12.400 12.260 11.700 9.930   40.700   -1.230 0.423 0.687 1.493 2.437 0.294 0.308 0.399 0.715 859.00 899.00 11.97 0.7750 184.60 49.79   13.090 12.920 10.140 12.160   0.024   11.880 11.820 9.630 11.380   -2.456 1.8030       13.749 5.582 8.153
VANMET_231 2018-04-20 10:45:00 231 11739.0   11.670 11.650 11.410 10.190   38.650   -2.207 0.423 0.687 1.494 2.437 0.294 0.308 0.399 0.716 853.00 899.50 12.14 1.1080 191.00 41.07   11.970 11.820 10.430 11.500   -1.023   11.290 11.390 9.950 11.300   -4.009 2.0970       13.488 5.194 8.275
VANMET_231 2018-04-20 10:40:00 231 11739.0   11.910 11.900 11.730 10.280   35.640   -3.003 0.423 0.687 1.494 2.437 0.294 0.308 0.399 0.717 844.00 900.00 12.14 1.5170 222.90 15.84   12.470 12.420 10.510 12.020   -1.707   11.360 11.450 10.060 11.420   -5.482 2.7900       13.777 4.895 8.867
VANMET_231 2018-04-20 10:35:00 231 11739.0   12.500 12.290 11.830 9.810   32.260   -4.284 0.424 0.688 1.494 2.437 0.294 0.308 0.399 0.717 833.00 901.50 11.97 0.7830 207.70 26.92   12.920 12.600 10.030 11.990   -1.776   12.190 11.970 9.580 11.490   -6.384 1.5550       13.868 4.446 9.394
VANMET_231 2018-04-20 10:30:00 231 11739.0   12.250 12.050 11.580 9.750   26.990   -6.863 0.423 0.687 1.493 2.437 0.294 0.307 0.399 0.718 825.00 903.00 11.97 0.7720 188.80 35.84   12.530 12.290 10.010 11.690   -4.760   11.980 11.820 9.500 11.460   -9.130 1.2350       13.641 3.652 9.959
VANMET_231 2018-04-20 10:25:00 231 11739.0   12.230 11.990 11.420 9.740   26.140   -7.384 0.423 0.687 1.494 2.437 0.294 0.307 0.399 0.718 819.00 903.00 11.97 0.8860 184.00 41.00   12.480 12.310 9.980 11.650   -4.930   11.820 11.710 9.480 11.130   -9.150 1.9270       13.497 3.508 9.969
VANMET_231 2018-04-20 10:20:00 231 11739.0   11.740 11.610 11.000 9.150   29.830   -6.119 0.423 0.687 1.493 2.437 0.294 0.307 0.399 0.718 811.00 904.00 11.76 0.9500 141.40 42.44   12.400 12.110 9.500 11.210   -2.229   11.350 11.290 8.720 10.800   -8.870 1.5810       13.126 3.867 9.211
VANMET_231 2018-04-20 10:15:00 231 11739.0   11.560 11.300 10.920 9.290   30.190   -5.899 0.423 0.687 1.493 2.437 0.294 0.307 0.399 0.719 803.00 905.50 11.76 0.7770 203.20 39.56   12.240 12.000 9.410 11.180   -5.095   11.180 10.900 9.110 10.750   -6.471 1.6990       13.056 3.933 9.115
VANMET_231 2018-04-20 10:10:00 231 11739.0   11.590 11.330 10.780 8.910   35.350   -3.990 0.422 0.687 1.493 2.436 0.294 0.307 0.399 0.719 794.20 907.00 11.76 0.7960 183.70 19.29   11.940 11.560 9.120 10.980   -1.919   11.200 11.140 8.620 10.610   -6.104 1.1300       12.935 4.546 8.363
VANMET_231 2018-04-20 10:05:00 231 11739.0   11.090 10.910 10.330 8.690   40.150   -2.778 0.423 0.686 1.492 2.437 0.294 0.307 0.399 0.719 785.70 908.50 11.35 0.7090 171.40 30.27   11.630 11.350 9.070 10.630   0.722   10.330 10.270 8.290 9.930   -5.047 1.2540       12.553 4.978 7.513
VANMET_231 2018-04-20 10:00:00 231 11739.0   10.290 10.240 9.960 8.550   47.180   -0.845 0.423 0.687 1.493 2.436 0.294 0.307 0.399 0.719 777.40 908.50 11.52 0.9230 146.20 29.75   10.770 10.660 8.980 10.250   1.378   9.960 9.940 8.110 9.700   -4.282 1.4310       12.246 5.742 6.468
VANMET_231 2018-04-20 09:55:00 231 11739.0   10.410 10.440 10.140 8.660   49.820   0.111 0.423 0.686 1.493 2.436 0.294 0.307 0.399 0.719 766.90 908.50 11.52 0.9480 194.20 38.47   10.620 10.630 8.990 10.210   1.638   10.210 10.260 8.290 10.030   -1.239 1.5220       12.394 6.157 6.220
VANMET_231 2018-04-20 09:50:00 231 11739.0   10.410 10.270 9.910 8.360   53.120   0.793 0.423 0.686 1.492 2.436 0.294 0.307 0.399 0.720 756.40 908.50 11.20 1.0110 164.40 39.97   11.180 10.760 8.590 10.250   2.198   9.900 9.800 8.150 9.600   -0.490 1.8550       12.205 6.469 5.722
VANMET_231 2018-04-20 09:45:00 231 11739.0   11.070 10.690 10.020 8.280   56.820   1.840 0.423 0.687 1.493 2.436 0.294 0.307 0.399 0.720 746.40 909.00 10.84 0.6200 171.80 27.09   11.640 11.070 8.670 10.170   3.379   10.530 10.460 8.120 9.940   0.923 1.3980       12.295 6.976 5.309
VANMET_231 2018-04-20 09:40:00 231 11739.0   10.010 10.020 9.620 8.500   61.130   2.500 0.423 0.686 1.493 2.436 0.294 0.307 0.399 0.721 736.10 909.00 10.84 0.9280 208.60 31.01   10.820 10.710 8.630 10.090   2.778   9.630 9.590 8.380 9.360   1.853 1.6860       11.970 7.313 4.653
VANMET_231 2018-04-20 09:35:00 231 11739.0   9.830 9.760 9.290 8.230   60.180   1.972 0.423 0.686 1.492 2.436 0.294 0.307 0.399 0.721 725.60 908.50 10.84 1.1390 215.30 41.38   10.020 9.920 8.510 9.420   2.461   9.700 9.590 7.880 9.120   1.406 1.7380       11.707 7.042 4.662
VANMET_231 2018-04-20 09:30:00 231 11739.0   9.670 9.550 9.070 8.050   62.630   2.319 0.423 0.686 1.493 2.436 0.294 0.307 0.399 0.721 714.70 907.50 10.53 1.1420 207.70 33.04   9.790 9.670 8.240 9.220   2.935   9.560 9.400 7.594 8.940   1.527 2.0120       11.534 7.219 4.310
VANMET_231 2018-04-20 09:25:00 231 11739.0   9.130 9.020 8.720 7.863   66.640   2.865 0.423 0.686 1.492 2.436 0.294 0.307 0.399 0.721 704.50 907.50 10.44 1.4520 216.60 31.84   9.630 9.490 8.230 8.890   3.292   8.870 8.780 7.397 8.610   2.498 2.3390       11.264 7.505 3.758
VANMET_231 2018-04-20 09:20:00 231 11739.0   9.390 9.230 9.000 7.748   65.490   2.889 0.424 0.686 1.493 2.437 0.294 0.307 0.399 0.722 690.60 907.00 10.36 1.2720 213.90 23.00   9.650 9.390 7.946 9.070   3.343   9.140 9.050 7.524 8.890   2.554 2.5480       11.480 7.518 3.962
VANMET_231 2018-04-20 09:15:00 231 11739.0   9.490 9.340 9.050 7.692   66.530   3.156 0.424 0.687 1.493 2.437 0.294 0.307 0.399 0.722 678.10 907.00 10.23 1.2070 204.90 38.72   9.780 9.600 7.998 9.190   3.667   9.270 9.140 7.323 8.910   2.586 2.0320       11.519 7.662 3.855
VANMET_231 2018-04-20 09:10:00 231 11739.0   9.750 9.340 8.970 7.521   66.600   3.089 0.424 0.686 1.493 2.437 0.294 0.307 0.399 0.722 665.40 905.50 9.91 0.9000 209.70 29.75   9.880 9.480 7.738 9.080   3.361   9.550 9.140 7.318 8.810   2.772 1.2870       11.457 7.625 3.826
VANMET_231 2018-04-20 09:05:00 231 11739.0   10.300 9.700 9.170 7.413   64.990   2.942 0.423 0.687 1.493 2.438 0.294 0.307 0.399 0.722 650.60 903.00 9.91 1.2310 225.30 17.91   10.810 10.150 7.675 9.300   3.199   9.520 9.110 6.966 8.920   2.486 1.8290       11.612 7.546 4.065
VANMET_231 2018-04-20 09:00:00 231 11739.0   10.340 9.900 9.020 7.035   64.340   2.648 0.424 0.687 1.493 2.437 0.294 0.307 0.399 0.722 635.50 902.00 9.91 0.5270 178.00 40.77   10.600 10.150 7.193 9.120   3.261   9.920 9.690 6.914 8.920   1.875 1.0390       11.495 7.390 4.099
VANMET_231 2018-04-20 08:55:00 231 11739.0   9.440 9.340 8.830 7.236   66.150   2.864 0.424 0.688 1.493 2.437 0.294 0.307 0.400 0.722 623.40 903.00 9.91 0.7360 199.90 27.96   9.870 9.660 7.345 9.030   3.179   9.210 9.100 7.127 8.720   2.360 1.3260       11.349 7.504 3.842
VANMET_231 2018-04-20 08:50:00 231 11739.0   9.870 9.720 9.010 7.027   65.420   2.884 0.424 0.688 1.494 2.438 0.294 0.307 0.400 0.723 609.60 904.00 10.24 0.9000 209.30 22.69   10.550 10.330 7.236 9.190   3.180   9.410 9.270 6.778 8.800   2.362 1.3070       11.488 7.515 3.972
VANMET_231 2018-04-20 08:45:00 231 11739.0   9.450 9.520 9.020 6.994   65.580   2.925 0.424 0.687 1.494 2.438 0.294 0.307 0.400 0.723 594.90 904.00 10.81 0.6770 178.90 26.91   10.190 10.220 7.196 9.210   3.239   8.980 9.060 6.769 8.800   2.616 1.1110       11.495 7.537 3.957
VANMET_231 2018-04-20 08:40:00 231 11739.0   9.280 9.250 8.860 6.937   62.920   2.187 0.424 0.688 1.494 2.438 0.294 0.307 0.400 0.724 580.20 904.00 10.97 0.6620 212.00 24.79   9.650 9.620 7.267 9.170   2.662   8.670 8.700 6.644 8.460   1.276 1.8100       11.372 7.151 4.217
VANMET_231 2018-04-20 08:35:00 231 11739.0   8.560 8.620 8.460 7.578   57.320   0.513 0.424 0.688 1.494 2.439 0.294 0.307 0.400 0.724 567.50 903.00 11.67 1.1680 213.20 20.02   8.660 8.690 7.665 8.500   1.286   8.480 8.570 7.395 8.430   -0.382 1.6590       11.068 6.340 4.724
VANMET_231 2018-04-20 08:30:00 231 11739.0   8.900 8.850 8.620 7.405   59.030   1.066 0.425 0.688 1.494 2.439 0.294 0.307 0.400 0.725 551.50 902.00 12.17 1.0430 215.40 10.36   9.130 9.050 7.476 8.780   2.341   8.660 8.630 7.305 8.510   0.064 1.3260       11.188 6.598 4.584
VANMET_231 2018-04-20 08:25:00 231 11739.0   10.060 9.780 9.180 7.117   57.680   1.257 0.424 0.688 1.494 2.438 0.294 0.307 0.400 0.725 534.70 902.00 12.72 0.9800 222.90 12.91   10.700 10.410 7.399 9.390   2.154   9.110 9.060 6.605 8.820   0.450 1.6200       11.620 6.690 4.918
VANMET_231 2018-04-20 08:20:00 231 11739.0   10.420 10.160 9.690 6.814   57.380   1.673 0.424 0.688 1.494 2.438 0.294 0.307 0.400 0.729 518.50 902.00 12.95 0.4780 219.90 19.53   10.860 10.710 7.031 10.310   2.368   10.270 9.990 6.629 9.360   0.973 0.9600       12.026 6.893 5.125
VANMET_231 2018-04-20 08:15:00 231 11739.0   11.280 11.670 10.610 6.470   58.990   2.926 0.425 0.688 1.494 2.438 0.294 0.307 0.400 0.733 502.20 903.00 13.07 0.4150 195.90 21.06   11.770 12.050 6.711 10.850   3.545   10.740 10.950 6.309 10.170   2.363 1.0980       12.790 7.538 5.245
VANMET_231 2018-04-20 08:10:00 231 11739.0   10.240 10.570 9.560 6.329   64.290   3.149 0.425 0.688 1.494 2.439 0.294 0.307 0.400 0.733 487.50 904.00 13.26 0.2470 181.40 20.45   10.740 11.160 6.405 10.100   3.572   9.750 9.890 6.268 8.920   2.789 0.5750       11.921 7.658 4.257
VANMET_231 2018-04-20 08:05:00 231 11739.0   9.240 9.310 8.360 6.199   68.530   2.912 0.424 0.688 1.494 2.438 0.294 0.307 0.400 0.733 473.20 905.50 13.53 0.4730 185.70 21.37   9.680 9.800 6.281 8.870   3.269   8.570 8.510 6.106 7.852   2.626 0.8100       10.993 7.530 3.459
VANMET_231 2018-04-20 08:00:00 231 11739.0   8.380 8.730 7.982 6.245   69.010   2.648 0.424 0.687 1.493 2.438 0.294 0.307 0.400 0.733 457.90 907.00 13.68 0.6390 205.10 17.50   8.550 8.990 6.493 8.120   3.344   8.090 8.540 6.106 7.852   2.126 1.0260       10.714 7.390 3.320
VANMET_231 2018-04-20 07:55:00 231 11739.0   7.476 8.210 7.936 6.073   70.860   2.980 0.424 0.687 1.493 2.437 0.294 0.307 0.400 0.733 442.10 908.00 13.71 0.5520 201.60 18.73   8.010 8.710 6.204 8.090   3.299   7.123 8.050 5.915 7.864   2.686 0.9080       10.680 7.567 3.112
VANMET_231 2018-04-20 07:50:00 231 11739.0   6.641 8.020 8.230 5.977   70.070   3.107 0.424 0.687 1.493 2.437 0.294 0.307 0.400 0.733 425.80 909.50 13.75 0.4000 202.90 12.21   7.052 8.150 6.173 8.360   3.414   6.254 7.772 5.822 8.040   2.772 0.8690       10.896 7.635 3.261
VANMET_231 2018-04-20 07:45:00 231 11739.0   6.017 7.590 7.926 5.556   71.340   3.066 0.424 0.686 1.493 2.437 0.294 0.307 0.400 0.733 409.50 909.50 13.75 0.4470 215.60 9.89   6.231 7.727 5.780 8.020   3.526   5.936 7.457 5.291 7.802   2.612 0.7380       10.673 7.613 3.059
VANMET_231 2018-04-20 07:40:00 231 11739.0   5.988 7.448 7.423 5.614   74.540   3.201 0.424 0.686 1.493 2.437 0.294 0.307 0.400 0.733 392.60 911.00 13.87 0.1300 201.80 5.76   6.082 7.723 5.798 7.883   3.554   5.873 7.155 5.399 6.942   2.777 0.4770       10.313 7.686 2.626
VANMET_231 2018-04-20 07:35:00 231 11739.0   5.739 6.860 6.391 5.309   78.250   2.886 0.424 0.686 1.492 2.437 0.294 0.307 0.400 0.733 350.60 912.00 13.98 0.0000 0.00 0.00   5.862 7.123 5.441 6.879   3.339   5.550 6.672 5.148 6.081   2.567 0.0000       9.607 7.516 2.089
VANMET_231 2018-04-20 07:30:00 231 11739.0   5.117 6.207 5.704 4.924   81.900   2.854 0.424 0.686 1.492 2.437 0.294 0.307 0.400 0.733 184.70 912.00 14.03 0.0000 0.00 0.00   5.504 6.619 5.162 6.015   2.956   4.722 5.803 4.622 5.434   2.744 0.0000       9.161 7.499 1.658
VANMET_231 2018-04-20 07:25:00 231 11739.0   4.272 5.385 5.158 4.672   83.900   2.671 0.424 0.686 1.492 2.437 0.294 0.307 0.400 0.733 54.99 912.00 14.10 0.0740 179.80 3.07   4.678 5.737 4.785 5.414   2.950   3.942 4.944 4.569 4.933   2.346 0.3850       8.819 7.402 1.420
VANMET_231 2018-04-20 07:20:00 231 11739.0   3.784 4.517 4.756 4.375   84.300   2.338 0.424 0.686 1.492 2.437 0.293 0.307 0.400 0.733 45.45 912.00 14.17 0.3760 203.90 14.11   3.950 4.874 4.665 4.906   2.463   3.677 4.356 4.236 4.574   2.173 0.5490       8.575 7.229 1.346
VANMET_231 2018-04-20 07:15:00 231 11739.0   3.633 4.324 4.531 4.356   84.100   2.076 0.423 0.686 1.492 2.437 0.294 0.307 0.400 0.733 43.77 912.00 14.21 0.1640 211.70 5.57   3.689 4.351 4.486 4.571   2.185   3.526 4.277 4.231 4.498   1.981 0.5030       8.441 7.095 1.342
VANMET_231 2018-04-20 07:10:00 231 11739.0   3.471 4.253 4.468 4.271   85.000   2.164 0.424 0.686 1.492 2.437 0.293 0.307 0.400 0.733 44.66 912.00 14.29 0.4170 217.40 5.26   3.526 4.281 4.447 4.505   2.280   3.332 4.161 4.197 4.399   1.933 0.8560       8.404 7.139 1.261
VANMET_231 2018-04-20 07:05:00 231 11739.0   3.318 4.123 4.343 4.114   84.200   1.913 0.424 0.686 1.492 2.437 0.293 0.307 0.400 0.733 56.60 912.00 14.47 0.2140 238.30 12.77   3.400 4.154 4.468 4.403   2.019   3.246 4.096 3.912 4.260   1.753 0.5620       8.331 7.012 1.316
VANMET_231 2018-04-20 07:00:00 231 11739.0   3.109 3.932 4.137 4.379   83.500   1.594 0.424 0.686 1.492 2.437 0.293 0.307 0.400 0.733 81.00 912.00 14.74 0.3640 216.10 6.47   3.345 4.079 4.596 4.247   1.846   2.864 3.733 4.251 4.001   1.353 0.5950       8.211 6.854 1.355
VANMET_231 2018-04-20 06:55:00 231 11739.0   2.571 3.451 3.837 3.904   85.100   1.561 0.424 0.687 1.492 2.438 0.293 0.307 0.400 0.733 221.20 913.00 15.03 0.0000 0.00 0.00   2.781 3.681 4.249 4.001   1.766   2.387 3.262 3.548 3.659   1.333 0.0000       8.039 6.838 1.198
VANMET_231 2018-04-20 06:50:00 231 11739.0   2.335 3.130 3.440 3.457   87.200   1.519 0.424 0.686 1.492 2.437 0.293 0.307 0.400 0.733 208.10 913.00 15.21 0.0480 259.70 0.01   2.377 3.247 3.543 3.625   1.609   2.219 2.913 3.352 3.197   1.410 0.3270       7.817 6.817 1.001
VANMET_231 2018-04-20 06:45:00 231 11739.0   2.060 2.682 3.059 2.917   89.900   1.569 0.424 0.687 1.492 2.437 0.293 0.307 0.400 0.733 149.50 915.50 15.25 0.0400 266.60 0.00   2.204 2.880 3.288 3.180   1.689   1.993 2.598 2.785 2.898   1.423 0.2290       7.609 6.841 0.769
VANMET_231 2018-04-20 06:40:00 231 11739.0   1.865 2.426 2.611 2.680   92.500   1.525 0.424 0.686 1.492 2.437 0.293 0.307 0.400 0.733 88.40 917.00 15.37 0.0780 271.70 4.64   1.955 2.539 2.832 2.868   1.598   1.685 2.209 2.313 2.286   1.412 0.5230       7.371 6.820 0.553
VANMET_231 2018-04-20 06:35:00 231 11739.0   1.537 2.060 2.095 2.234   96.200   1.553 0.425 0.687 1.492 2.438 0.293 0.307 0.400 0.733 68.37 917.50 15.47 0.0620 15.53 2.96   1.666 2.199 2.503 2.263   1.604   1.401 1.835 1.796 1.901   1.431 0.3200       7.104 6.834 0.270
VANMET_231 2018-04-20 06:30:00 231 11739.0   1.415 1.848 1.903 1.735   96.000   1.335 0.424 0.687 1.492 2.438 0.293 0.307 0.400 0.733 45.96 918.50 15.51 0.3690 24.82 6.80   1.435 1.878 1.780 1.924   1.443   1.401 1.829 1.697 1.871   1.263 0.5030       7.007 6.727 0.280
VANMET_231 2018-04-20 06:25:00 231 11739.0   1.359 1.752 1.779 1.747   96.500   1.279 0.425 0.687 1.492 2.438 0.293 0.307 0.400 0.733 34.38 920.00 15.57 0.2140 48.31 5.89   1.416 1.821 1.827 1.884   1.329   1.304 1.677 1.632 1.692   1.235 0.5950       6.945 6.700 0.243
VANMET_231 2018-04-20 06:20:00 231 11739.0   1.237 1.613 1.626 1.604   97.000   1.198 0.425 0.687 1.492 2.438 0.293 0.307 0.400 0.733 28.79 921.00 15.64 0.0000 0.00 0.00   1.297 1.668 1.632 1.688   1.241   1.200 1.559 1.530 1.565   1.151 0.0000       6.869 6.661 0.206
VANMET_231 2018-04-20 06:15:00 231 11739.0   1.125 1.512 1.549 1.518   96.800   1.097 0.424 0.687 1.492 2.438 0.293 0.307 0.400 0.733 26.98 921.50 15.70 0.0120 5.32 0.01   1.192 1.554 1.555 1.572   1.145   1.056 1.470 1.486 1.512   1.053 0.1890       6.832 6.613 0.219
VANMET_231 2018-04-20 06:10:00 231 11739.0   1.044 1.427 1.459 1.407   96.900   1.019 0.424 0.687 1.492 2.438 0.293 0.307 0.400 0.733 24.91 921.00 15.70 0.3510 4.56 1.22   1.053 1.465 1.555 1.509   1.059   1.036 1.414 1.329 1.432   0.979 0.4900       6.788 6.576 0.210
VANMET_231 2018-04-20 06:05:00 231 11739.0   1.056 1.463 1.462 1.420   96.300   0.942 0.424 0.686 1.492 2.437 0.293 0.307 0.400 0.733 22.59 921.50 15.70 0.2860 2.83 0.08   1.076 1.490 1.481 1.482   0.979   1.040 1.421 1.340 1.429   0.906 0.6340       6.789 6.539 0.251
VANMET_231 2018-04-20 06:00:00 231 11739.0   0.971 1.391 1.368 1.440   96.900   0.929 0.424 0.687 1.492 2.438 0.293 0.307 0.400 0.733 20.23 922.00 15.70 0.1960 3.81 6.51   1.030 1.452 1.481 1.422   0.971   0.945 1.366 1.385 1.319   0.901 0.4640       6.743 6.533 0.209
VANMET_231 2018-04-20 05:55:00 231 11739.0   0.877 1.261 1.201 1.335   98.500   0.986 0.424 0.687 1.491 2.438 0.293 0.306 0.400 0.733 17.77 922.00 15.70 0.3900 343.90 17.92   0.972 1.362 1.500 1.313   1.000   0.828 1.207 1.186 1.140   0.961 0.6660       6.663 6.560 0.100
VANMET_231 2018-04-20 05:50:00 231 11739.0   0.792 1.140 1.063 1.117   99.400   0.980 0.424 0.686 1.492 2.438 0.293 0.306 0.400 0.733 15.35 922.50 15.70 0.8060 358.10 6.17   0.861 1.212 1.217 1.137   1.015   0.738 1.080 1.004 1.003   0.928 1.0520       6.597 6.557 0.040
VANMET_231 2018-04-20 05:45:00 231 11739.0   0.720 1.056 0.981 1.029   98.700   0.801 0.424 0.686 1.491 2.438 0.293 0.306 0.400 0.733 13.10 923.50 15.70 0.9370 4.67 3.75   0.737 1.080 1.053 1.017   0.928   0.675 1.011 1.006 0.931   0.687 1.1110       6.558 6.473 0.085
VANMET_231 2018-04-20 05:40:00 231 11739.0   0.659 0.982 0.892 1.000   98.500   0.684 0.425 0.687 1.491 2.438 0.293 0.306 0.400 0.733 10.87 923.50 15.70 0.9480 5.96 1.53   0.676 1.005 1.020 0.940   0.717   0.635 0.964 0.968 0.871   0.648 1.1630       6.516 6.419 0.098
VANMET_231 2018-04-20 05:35:00 231 11739.0   0.617 0.979 0.877 0.991   98.100   0.611 0.424 0.686 1.491 2.438 0.293 0.306 0.400 0.733 8.62 923.50 15.68 0.7360 1.88 1.47   0.631 0.993 1.026 0.907   0.659   0.598 0.954 0.968 0.834   0.507 0.9410       6.509 6.385 0.124
VANMET_231 2018-04-20 05:30:00 231 11739.0   0.561 0.887 0.779 0.946   98.700   0.598 0.424 0.687 1.491 2.437 0.293 0.306 0.400 0.733 6.08 923.00 15.60 0.7540 5.92 1.95   0.594 0.945 0.980 0.847   0.692   0.511 0.825 0.902 0.731   0.520 0.9730       6.463 6.379 0.084
VANMET_231 2018-04-20 05:25:00 231 11739.0   0.455 0.760 0.685 0.845   100.000   0.678 0.425 0.686 1.491 2.437 0.293 0.306 0.400 0.733 3.68 923.00 15.50 0.6620 355.70 2.47   0.499 0.816 0.954 0.724   0.711   0.438 0.726 0.733 0.654   0.655 0.7580       6.419 6.416 0.000
VANMET_231 2018-04-20 05:20:00 231 11739.0   0.399 0.700 0.641 0.699   99.800   0.617 0.424 0.686 1.491 2.438 0.293 0.306 0.400 0.733 1.69 923.50 15.44 0.6590 358.50 11.69   0.443 0.721 0.758 0.664   0.665   0.377 0.680 0.628 0.618   0.584 0.8620       6.399 6.388 0.013
VANMET_231 2018-04-20 05:15:00 231 11739.0   0.389 0.688 0.620 0.688   99.400   0.531 0.424 0.686 1.491 2.438 0.293 0.306 0.400 0.733 0.25 923.00 15.38 0.7160 1.01 0.44   0.413 0.719 0.705 0.651   0.570   0.381 0.661 0.671 0.591   0.469 0.9020       6.389 6.348 0.038
VANMET_231 2018-04-20 05:10:00 231 11739.0   0.385 0.652 0.592 0.658   99.100   0.463 0.424 0.686 1.491 2.437 0.293 0.306 0.400 0.733 0.00 923.00 15.28 0.8720 7.11 0.79   0.397 0.662 0.681 0.611   0.495   0.373 0.647 0.643 0.578   0.439 1.1110       6.376 6.317 0.057
VANMET_231 2018-04-20 05:05:00 231 11739.0   0.408 0.710 0.635 0.734   98.600   0.442 0.424 0.686 1.491 2.437 0.293 0.306 0.400 0.733 0.00 923.00 15.20 0.8760 10.20 1.03   0.428 0.756 0.795 0.677   0.486   0.384 0.666 0.667 0.588   0.406 1.0130       6.396 6.307 0.090
VANMET_231 2018-04-20 05:00:00 231 11739.0   0.443 0.764 0.693 0.817   98.200   0.449 0.424 0.686 1.490 2.437 0.292 0.306 0.400 0.733 0.00 923.50 15.14 0.7230 17.27 8.36   0.452 0.772 0.862 0.707   0.482   0.429 0.758 0.766 0.677   0.406 0.9670       6.423 6.310 0.116
VANMET_231 2018-04-20 04:55:00 231 11739.0   0.364 0.668 0.582 0.713   99.600   0.526 0.424 0.686 1.490 2.437 0.292 0.306 0.400 0.733 0.00 924.00 15.11 0.5420 2.02 18.04   0.446 0.756 0.847 0.651   0.575   0.284 0.588 0.633 0.531   0.415 0.6530       6.371 6.346 0.025
VANMET_231 2018-04-20 04:50:00 231 11739.0   0.337 0.652 0.603 0.612   99.400   0.515 0.424 0.686 1.490 2.437 0.292 0.306 0.400 0.734 0.00 924.00 15.03 0.6960 359.30 11.74   0.398 0.714 0.681 0.648   0.567   0.278 0.585 0.557 0.545   0.479 0.9280       6.381 6.341 0.038
VANMET_231 2018-04-20 04:45:00 231 11739.0   0.440 0.759 0.652 0.755   98.800   0.492 0.424 0.686 1.491 2.437 0.292 0.306 0.400 0.734 0.00 924.00 14.95 0.7830 3.07 1.52   0.468 0.776 0.821 0.678   0.546   0.403 0.722 0.686 0.628   0.447 0.9870       6.404 6.330 0.077
VANMET_231 2018-04-20 04:40:00 231 11739.0   0.471 0.758 0.660 0.763   98.900   0.501 0.424 0.686 1.490 2.437 0.292 0.306 0.400 0.734 0.00 924.00 14.94 0.7870 3.55 1.07   0.477 0.780 0.817 0.677   0.526   0.466 0.739 0.712 0.648   0.476 0.9410       6.407 6.334 0.070
VANMET_231 2018-04-20 04:35:00 231 11739.0   0.466 0.749 0.681 0.719   99.000   0.543 0.424 0.686 1.490 2.437 0.292 0.306 0.400 0.734 0.00 924.50 14.94 0.7800 1.58 1.17   0.473 0.771 0.728 0.708   0.582   0.462 0.741 0.710 0.658   0.506 1.0000       6.417 6.353 0.064
VANMET_231 2018-04-20 04:30:00 231 11739.0   0.479 0.794 0.727 0.785   99.000   0.589 0.424 0.686 1.490 2.437 0.292 0.306 0.400 0.734 0.00 924.50 14.90 0.6640 3.79 1.15   0.492 0.809 0.818 0.737   0.628   0.465 0.776 0.732 0.711   0.552 0.8300       6.439 6.375 0.064
VANMET_231 2018-04-20 04:25:00 231 11739.0   0.467 0.815 0.726 0.779   99.000   0.586 0.424 0.685 1.490 2.437 0.292 0.306 0.400 0.734 0.00 924.50 14.86 0.7430 3.33 1.11   0.477 0.838 0.800 0.744   0.620   0.459 0.785 0.766 0.707   0.548 0.9470       6.438 6.373 0.064
VANMET_231 2018-04-20 04:20:00 231 11739.0   0.499 0.865 0.780 0.845   98.500   0.574 0.424 0.686 1.490 2.437 0.292 0.306 0.400 0.733 0.00 925.00 14.84 0.7490 9.81 1.72   0.529 0.903 0.898 0.837   0.625   0.477 0.839 0.801 0.734   0.531 0.9470       6.463 6.368 0.097
VANMET_231 2018-04-20 04:15:00 231 11739.0   0.533 0.898 0.800 0.917   99.200   0.686 0.424 0.686 1.490 2.437 0.292 0.306 0.400 0.733 0.00 925.50 14.82 0.6290 3.44 13.98   0.543 0.908 0.950 0.854   0.767   0.525 0.885 0.895 0.734   0.621 0.8490       6.473 6.420 0.052
VANMET_231 2018-04-20 04:10:00 231 11739.0   0.461 0.771 0.629 0.859   100.000   0.630 0.424 0.685 1.490 2.437 0.292 0.306 0.400 0.733 0.00 926.50 14.82 0.3980 326.50 5.05   0.538 0.876 0.947 0.730   0.731   0.394 0.687 0.772 0.554   0.555 0.5100       6.393 6.394 0.000
VANMET_231 2018-04-20 04:05:00 231 11739.0   0.330 0.614 0.526 0.673   100.000   0.527 0.424 0.685 1.490 2.437 0.292 0.306 0.400 0.733 0.00 926.50 14.82 0.6460 342.20 13.48   0.388 0.676 0.759 0.571   0.571   0.300 0.578 0.600 0.504   0.505 0.8300       6.346 6.346 0.000
VANMET_231 2018-04-20 04:00:00 231 11739.0   0.313 0.591 0.470 0.589   100.000   0.470 0.424 0.685 1.489 2.437 0.292 0.306 0.400 0.733 0.00 927.50 14.80 0.7690 0.29 0.30   0.341 0.621 0.645 0.521   0.521   0.300 0.573 0.544 0.425   0.425 1.0060       6.320 6.320 0.000
VANMET_231 2018-04-20 03:55:00 231 11739.0   0.330 0.564 0.422 0.568   100.000   0.422 0.424 0.685 1.490 2.437 0.292 0.306 0.400 0.733 0.00 928.00 14.80 0.9450 6.20 2.12   0.350 0.581 0.596 0.458   0.458   0.313 0.549 0.545 0.398   0.399 1.1890       6.298 6.298 0.000
VANMET_231 2018-04-20 03:50:00 231 11739.0   0.377 0.609 0.495 0.586   100.000   0.495 0.424 0.685 1.489 2.437 0.292 0.306 0.400 0.733 0.00 927.50 14.80 0.9230 4.58 0.89   0.413 0.649 0.625 0.548   0.548   0.351 0.583 0.562 0.445   0.445 1.0260       6.331 6.331 0.000
VANMET_231 2018-04-20 03:45:00 231 11739.0   0.457 0.703 0.576 0.717   100.000   0.577 0.423 0.685 1.489 2.437 0.292 0.306 0.400 0.733 0.00 927.50 14.80 0.7430 1.98 1.68   0.492 0.724 0.768 0.601   0.602   0.416 0.657 0.633 0.551   0.551 0.8360       6.369 6.369 0.000
VANMET_231 2018-04-20 03:40:00 231 11739.0   0.524 0.769 0.635 0.813   100.000   0.636 0.423 0.685 1.489 2.437 0.292 0.306 0.400 0.733 0.00 927.50 14.80 0.8720 4.78 1.39   0.540 0.801 0.854 0.667   0.668   0.497 0.724 0.764 0.591   0.591 1.1170       6.396 6.396 0.000
VANMET_231 2018-04-20 03:35:00 231 11739.0   0.541 0.813 0.661 0.856   100.000   0.661 0.423 0.685 1.489 2.436 0.292 0.306 0.400 0.733 0.00 927.50 14.80 0.7040 4.58 0.37   0.547 0.829 0.872 0.677   0.678   0.536 0.801 0.843 0.641   0.641 0.8430       6.408 6.408 0.000
VANMET_231 2018-04-20 03:30:00 231 11739.0   0.543 0.845 0.678 0.858   100.000   0.679 0.423 0.685 1.488 2.436 0.292 0.306 0.400 0.733 0.00 927.50 14.88 0.7820 4.78 0.31   0.547 0.860 0.869 0.700   0.701   0.538 0.831 0.842 0.664   0.664 0.9150       6.416 6.416 0.000
VANMET_231 2018-04-20 03:25:00 231 11739.0   0.541 0.843 0.684 0.806   100.000   0.685 0.423 0.685 1.488 2.436 0.292 0.306 0.400 0.733 0.00 927.50 14.95 0.7020 4.17 0.64   0.555 0.860 0.835 0.704   0.704   0.533 0.835 0.792 0.671   0.671 0.7840       6.419 6.419 0.000
VANMET_231 2018-04-20 03:20:00 231 11739.0   0.582 0.871 0.698 0.872   100.000   0.698 0.423 0.685 1.488 2.436 0.292 0.306 0.400 0.733 0.00 926.50 14.99 0.6850 2.71 2.39   0.608 0.882 0.895 0.720   0.721   0.556 0.862 0.836 0.677   0.678 0.9080       6.425 6.425 0.000
VANMET_231 2018-04-20 03:15:00 231 11739.0   0.605 0.879 0.695 0.912   100.000   0.695 0.423 0.685 1.488 2.436 0.292 0.306 0.400 0.733 0.00 926.50 15.03 0.8300 5.70 2.32   0.614 0.889 0.927 0.710   0.711   0.587 0.865 0.890 0.684   0.684 1.0850       6.424 6.424 0.000
VANMET_231 2018-04-20 03:10:00 231 11739.0   0.540 0.838 0.669 0.883   100.000   0.669 0.423 0.685 1.488 2.436 0.291 0.306 0.400 0.733 0.00 926.50 15.07 0.7100 357.10 2.63   0.576 0.858 0.910 0.697   0.697   0.517 0.826 0.849 0.634   0.634 0.8430       6.412 6.412 0.000
VANMET_231 2018-04-20 03:05:00 231 11739.0   0.516 0.776 0.631 0.778   100.000   0.631 0.423 0.685 1.488 2.436 0.291 0.306 0.400 0.733 0.00 927.50 15.08 0.7430 3.51 4.81   0.570 0.825 0.849 0.653   0.654   0.448 0.745 0.716 0.610   0.611 0.9150       6.394 6.394 0.000
VANMET_231 2018-04-20 03:00:00 231 11739.0   0.491 0.768 0.669 0.757   100.000   0.670 0.423 0.685 1.488 2.436 0.291 0.306 0.400 0.733 0.00 927.50 15.08 0.7000 3.10 0.83   0.531 0.777 0.806 0.700   0.701   0.452 0.750 0.718 0.647   0.647 0.8230       6.412 6.412 0.000
VANMET_231 2018-04-20 02:55:00 231 11739.0   0.534 0.772 0.659 0.786   100.000   0.659 0.423 0.685 1.488 2.436 0.291 0.306 0.400 0.733 0.00 927.50 15.09 0.8010 3.36 1.57   0.545 0.777 0.812 0.683   0.684   0.527 0.768 0.759 0.633   0.634 0.9540       6.407 6.407 0.000
VANMET_231 2018-04-20 02:50:00 231 11739.0   0.580 0.800 0.643 0.810   100.000   0.644 0.423 0.685 1.488 2.436 0.291 0.306 0.400 0.733 0.00 928.00 15.09 0.8170 5.54 2.16   0.603 0.822 0.831 0.660   0.660   0.551 0.781 0.779 0.627   0.627 1.0520       6.400 6.400 0.000
VANMET_231 2018-04-20 02:45:00 231 11739.0   0.613 0.846 0.673 0.879   100.000   0.673 0.424 0.685 1.488 2.436 0.291 0.306 0.400 0.733 0.00 928.00 15.09 0.8160 7.26 0.04   0.617 0.865 0.903 0.703   0.704   0.606 0.825 0.836 0.647   0.647 1.0580       6.413 6.413 -0.000
VANMET_231 2018-04-20 02:40:00 231 11739.0   0.610 0.866 0.685 0.879   100.000   0.686 0.423 0.685 1.487 2.436 0.291 0.306 0.400 0.733 0.00 928.00 15.09 0.8800 7.02 0.10   0.613 0.875 0.905 0.700   0.700   0.605 0.854 0.847 0.663   0.664 1.0780       6.419 6.420 0.000
VANMET_231 2018-04-20 02:35:00 231 11739.0   0.616 0.851 0.682 0.871   100.000   0.682 0.423 0.684 1.487 2.436 0.291 0.306 0.400 0.733 0.00 928.00 15.11 0.7880 7.83 0.47   0.637 0.859 0.892 0.700   0.700   0.605 0.845 0.849 0.660   0.660 0.8560       6.418 6.418 0.000
VANMET_231 2018-04-20 02:30:00 231 11739.0   0.642 0.861 0.704 0.876   100.000   0.705 0.423 0.684 1.487 2.436 0.291 0.306 0.401 0.734 0.00 928.00 15.14 0.8710 8.64 0.26   0.649 0.886 0.889 0.726   0.727   0.638 0.846 0.865 0.683   0.684 1.0060       6.428 6.428 0.000
VANMET_231 2018-04-20 02:25:00 231 11739.0   0.681 0.942 0.778 0.935   100.000   0.779 0.423 0.684 1.487 2.436 0.291 0.306 0.401 0.739 0.00 928.00 15.17 0.8760 10.39 0.24   0.759 0.988 0.988 0.819   0.820   0.646 0.889 0.890 0.730   0.730 1.0980       6.462 6.463 0.000
VANMET_231 2018-04-20 02:20:00 231 11739.0   0.802 1.032 0.853 1.065   100.000   0.853 0.423 0.684 1.487 2.436 0.291 0.306 0.401 0.739 0.00 928.00 15.25 0.9200 10.33 0.58   0.821 1.069 1.134 0.896   0.896   0.768 0.993 0.989 0.823   0.823 1.1240       6.498 6.498 0.000
VANMET_231 2018-04-20 02:15:00 231 11739.0   0.821 1.071 0.881 1.135   100.000   0.882 0.423 0.684 1.487 2.436 0.291 0.306 0.401 0.739 0.00 928.00 15.29 0.7640 4.94 2.23   0.828 1.079 1.141 0.896   0.896   0.797 1.066 1.128 0.862   0.863 0.9210       6.511 6.511 0.000
VANMET_231 2018-04-20 02:10:00 231 11739.0   0.696 1.007 0.841 1.081   100.000   0.841 0.423 0.684 1.487 2.436 0.291 0.306 0.401 0.739 0.00 928.00 15.32 0.6500 351.50 9.59   0.788 1.073 1.149 0.882   0.883   0.628 0.940 0.983 0.799   0.800 0.8820       6.492 6.492 0.000
VANMET_231 2018-04-20 02:05:00 231 11739.0   0.625 0.951 0.811 0.958   100.000   0.812 0.423 0.684 1.487 2.435 0.291 0.306 0.401 0.739 0.00 927.50 15.34 0.6740 357.80 3.78   0.663 0.980 1.018 0.829   0.829   0.602 0.924 0.916 0.792   0.793 0.7970       6.478 6.478 0.000
VANMET_231 2018-04-20 02:00:00 231 11739.0   0.688 0.962 0.820 0.933   100.000   0.820 0.423 0.684 1.487 2.436 0.291 0.306 0.401 0.739 0.00 927.00 15.34 0.8380 0.36 0.45   0.746 0.985 0.997 0.846   0.846   0.648 0.942 0.889 0.799   0.800 0.9930       6.482 6.482 0.000
VANMET_231 2018-04-20 01:55:00 231 11739.0   0.749 0.979 0.816 1.002   100.000   0.817 0.422 0.684 1.487 2.435 0.291 0.306 0.401 0.739 0.00 927.00 15.36 0.9170 7.33 2.41   0.757 0.985 1.012 0.836   0.836   0.739 0.969 0.989 0.789   0.790 1.1690       6.480 6.481 0.000
VANMET_231 2018-04-20 01:50:00 231 11739.0   0.762 0.970 0.820 0.985   100.000   0.821 0.422 0.684 1.487 2.435 0.291 0.306 0.401 0.739 0.00 927.00 15.36 0.8940 7.00 1.75   0.777 0.980 1.018 0.846   0.846   0.751 0.966 0.973 0.799   0.800 1.1240       6.482 6.483 0.000
VANMET_231 2018-04-20 01:45:00 231 11739.0   0.794 0.992 0.836 1.023   100.000   0.836 0.423 0.684 1.486 2.435 0.291 0.306 0.401 0.739 0.00 927.00 15.36 0.7770 7.29 0.22   0.800 1.000 1.031 0.855   0.856   0.779 0.982 1.017 0.812   0.813 0.9210       6.490 6.490 0.000
VANMET_231 2018-04-20 01:40:00 231 11739.0   0.792 1.008 0.862 1.048   100.000   0.863 0.422 0.684 1.486 2.435 0.291 0.306 0.401 0.739 0.00 927.50 15.34 0.7810 7.41 0.02   0.799 1.014 1.069 0.875   0.876   0.780 1.000 1.032 0.846   0.846 0.9080       6.502 6.502 0.000
VANMET_231 2018-04-20 01:35:00 231 11739.0   0.782 1.013 0.862 1.074   100.000   0.862 0.422 0.683 1.486 2.435 0.291 0.306 0.401 0.739 0.00 928.00 15.34 0.9020 7.89 0.85   0.792 1.018 1.094 0.882   0.882   0.771 1.010 1.059 0.852   0.853 1.1110       6.502 6.502 0.000
VANMET_231 2018-04-20 01:30:00 231 11739.0   0.770 1.027 0.889 1.041   100.000   0.890 0.422 0.684 1.486 2.435 0.291 0.306 0.401 0.739 0.00 928.00 15.36 0.8080 4.74 0.89   0.779 1.039 1.053 0.911   0.912   0.762 1.013 1.027 0.865   0.866 1.0910       6.514 6.515 0.000
VANMET_231 2018-04-20 01:25:00 231 11739.0   0.775 0.994 0.885 1.024   100.000   0.886 0.422 0.684 1.486 2.435 0.291 0.306 0.401 0.739 0.00 928.00 15.37 0.7760 3.97 0.23   0.781 1.026 1.061 0.908   0.909   0.769 0.976 0.997 0.858   0.859 0.8750       6.513 6.513 0.000
VANMET_231 2018-04-20 01:20:00 231 11739.0   0.769 0.972 0.832 0.987   100.000   0.832 0.422 0.684 1.485 2.435 0.291 0.306 0.401 0.739 0.00 928.00 15.37 0.7180 4.62 0.23   0.773 0.976 0.999 0.858   0.859   0.767 0.971 0.972 0.812   0.812 0.8690       6.488 6.488 0.000
VANMET_231 2018-04-20 01:15:00 231 11739.0   0.770 0.976 0.814 0.973   100.000   0.814 0.422 0.683 1.486 2.435 0.291 0.306 0.401 0.739 0.00 928.00 15.36 0.8540 4.85 0.05   0.773 0.983 0.977 0.828   0.829   0.767 0.973 0.968 0.798   0.799 1.0450       6.479 6.479 0.000
VANMET_231 2018-04-20 01:10:00 231 11739.0   0.778 0.988 0.842 0.996   100.000   0.843 0.422 0.684 1.485 2.435 0.290 0.306 0.401 0.739 0.00 928.00 15.36 0.8290 4.62 0.07   0.780 0.991 1.024 0.868   0.869   0.773 0.984 0.972 0.825   0.825 1.0000       6.492 6.493 -0.000
VANMET_231 2018-04-20 01:05:00 231 11739.0   0.759 0.987 0.868 1.019   100.000   0.868 0.422 0.684 1.486 2.435 0.290 0.306 0.401 0.739 0.00 928.00 15.36 0.7750 4.24 0.69   0.769 0.991 1.031 0.885   0.885   0.754 0.984 1.003 0.857   0.858 0.9340       6.505 6.505 0.000
VANMET_231 2018-04-20 01:00:00 231 11739.0   0.753 1.000 0.858 1.029   100.000   0.858 0.422 0.684 1.486 2.435 0.290 0.306 0.401 0.739 0.00 928.00 15.36 0.7360 4.17 1.13   0.759 1.016 1.058 0.871   0.871   0.747 0.990 1.009 0.844   0.845 0.8890       6.500 6.500 0.000
VANMET_231 2018-04-20 00:55:00 231 11739.0   0.761 1.032 0.857 1.048   100.000   0.858 0.422 0.683 1.485 2.435 0.290 0.306 0.401 0.739 0.00 928.00 15.36 0.8230 3.75 0.38   0.767 1.041 1.058 0.871   0.871   0.754 1.018 1.036 0.844   0.844 0.9730       6.499 6.500 0.000
VANMET_231 2018-04-20 00:50:00 231 11739.0   0.766 1.004 0.831 1.059   100.000   0.831 0.422 0.684 1.485 2.435 0.290 0.306 0.401 0.739 0.00 928.00 15.36 0.7740 5.93 1.15   0.771 1.021 1.074 0.854   0.854   0.759 0.988 1.028 0.807   0.808 0.9930       6.487 6.487 0.000
VANMET_231 2018-04-20 00:45:00 231 11739.0   0.754 0.997 0.844 1.035   100.000   0.845 0.422 0.683 1.485 2.435 0.290 0.306 0.401 0.739 0.00 928.50 15.36 0.9160 6.33 0.10   0.762 1.011 1.045 0.864   0.865   0.748 0.988 1.026 0.824   0.824 1.0390       6.493 6.494 0.000
VANMET_231 2018-04-20 00:40:00 231 11739.0   0.751 1.006 0.868 1.017   100.000   0.869 0.422 0.684 1.485 2.435 0.290 0.306 0.401 0.739 0.00 929.00 15.36 0.9240 6.28 0.15   0.769 1.013 1.037 0.891   0.891   0.739 0.998 1.002 0.844   0.845 1.1370       6.505 6.505 0.000
VANMET_231 2018-04-20 00:35:00 231 11739.0   0.809 1.029 0.883 1.054   100.000   0.884 0.422 0.683 1.485 2.435 0.290 0.306 0.401 0.739 0.00 929.00 15.36 0.7610 6.74 0.55   0.826 1.044 1.073 0.904   0.905   0.778 1.016 1.021 0.861   0.861 0.8560       6.512 6.512 0.000
VANMET_231 2018-04-20 00:30:00 231 11739.0   0.847 1.066 0.904 1.096   100.000   0.905 0.422 0.684 1.485 2.435 0.290 0.306 0.401 0.739 0.00 929.00 15.34 0.9380 8.60 0.52   0.862 1.088 1.130 0.917   0.918   0.827 1.046 1.074 0.891   0.891 1.0520       6.521 6.522 -0.000
VANMET_231 2018-04-20 00:25:00 231 11739.0   0.870 1.090 0.925 1.131   100.000   0.925 0.422 0.683 1.484 2.435 0.290 0.306 0.401 0.739 0.00 929.00 15.32 1.0440 8.97 0.07   0.875 1.106 1.149 0.951   0.951   0.862 1.080 1.120 0.897   0.898 1.1960       6.531 6.531 0.000
VANMET_231 2018-04-20 00:20:00 231 11739.0   0.885 1.118 0.955 1.146   100.000   0.955 0.421 0.683 1.484 2.435 0.290 0.306 0.401 0.740 0.00 929.00 15.32 1.0890 9.20 0.16   0.903 1.129 1.154 0.974   0.975   0.871 1.105 1.137 0.934   0.935 1.2150       6.546 6.546 0.000
VANMET_231 2018-04-20 00:15:00 231 11739.0   0.912 1.136 0.986 1.159   100.000   0.986 0.422 0.683 1.484 2.435 0.290 0.306 0.401 0.740 0.00 929.00 15.34 1.0470 11.19 1.38   0.943 1.163 1.191 1.021   1.021   0.899 1.126 1.148 0.961   0.961 1.1240       6.560 6.560 0.000
VANMET_231 2018-04-20 00:10:00 231 11739.0   0.972 1.188 1.037 1.206   100.000   1.038 0.422 0.683 1.484 2.435 0.290 0.306 0.401 0.740 0.00 929.00 15.30 0.8930 14.23 0.94   1.005 1.211 1.219 1.064   1.065   0.943 1.167 1.183 1.017   1.018 1.0910       6.584 6.585 0.000
VANMET_231 2018-04-20 00:05:00 231 11739.0   0.996 1.217 1.066 1.232   100.000   1.067 0.422 0.683 1.484 2.434 0.290 0.306 0.401 0.740 0.00 929.50 15.28 0.9980 12.33 2.01   1.003 1.231 1.256 1.097   1.098   0.988 1.206 1.214 1.041   1.041 1.0910       6.598 6.599 0.000
VANMET_231 2018-04-20 00:00:00 231 11739.0   0.998 1.269 1.116 1.278   100.000   1.117 0.421 0.683 1.484 2.434 0.290 0.306 0.401 0.740 0.00 930.00 15.28 0.8700 15.75 3.07   1.055 1.299 1.312 1.147   1.147   0.968 1.231 1.241 1.077   1.078 1.0320       6.622 6.623 0.000
VANMET_231 2018-04-19 23:55:00 231 11739.0   1.046 1.313 1.125 1.316   100.000   1.125 0.421 0.683 1.483 2.434 0.290 0.306 0.401 0.740 0.00 930.00 15.28 0.8750 8.61 1.80   1.058 1.330 1.336 1.150   1.151   1.034 1.293 1.293 1.113   1.114 1.0580       6.626 6.626 0.000
VANMET_231 2018-04-19 23:50:00 231 11739.0   1.045 1.309 1.129 1.317   100.000   1.130 0.421 0.683 1.484 2.434 0.290 0.306 0.401 0.740 0.00 930.00 15.27 0.7420 3.13 0.98   1.054 1.316 1.327 1.146   1.147   1.030 1.299 1.297 1.103   1.104 0.8890       6.628 6.629 0.000
VANMET_231 2018-04-19 23:45:00 231 11739.0   1.015 1.289 1.132 1.284   100.000   1.133 0.421 0.683 1.483 2.434 0.290 0.306 0.401 0.740 0.00 930.50 15.26 0.7590 4.61 0.24   1.030 1.304 1.325 1.140   1.141   1.000 1.274 1.247 1.113   1.114 0.9800       6.630 6.630 0.000
VANMET_231 2018-04-19 23:40:00 231 11739.0   0.985 1.255 1.112 1.240   100.000   1.113 0.422 0.683 1.483 2.434 0.290 0.306 0.401 0.740 0.00 930.00 15.24 0.7570 4.08 0.62   1.012 1.275 1.276 1.126   1.127   0.943 1.240 1.214 1.100   1.100 0.8690       6.620 6.621 0.000
VANMET_231 2018-04-19 23:35:00 231 11739.0   0.934 1.280 1.138 1.243   100.000   1.139 0.421 0.682 1.483 2.434 0.290 0.306 0.401 0.740 0.00 930.00 15.24 0.7520 3.82 0.41   0.996 1.313 1.298 1.163   1.164   0.909 1.241 1.209 1.113   1.114 0.8230       6.633 6.633 0.000
VANMET_231 2018-04-19 23:30:00 231 11739.0   1.048 1.324 1.166 1.326   100.000   1.166 0.421 0.683 1.483 2.434 0.290 0.306 0.401 0.740 0.00 930.50 15.22 0.8280 6.98 0.77   1.094 1.340 1.396 1.189   1.190   0.996 1.310 1.288 1.143   1.144 1.0190       6.646 6.646 0.000
VANMET_231 2018-04-19 23:25:00 231 11739.0   1.113 1.347 1.203 1.394   100.000   1.204 0.421 0.682 1.483 2.434 0.290 0.306 0.401 0.740 0.00 931.00 15.22 0.9300 7.29 0.24   1.127 1.357 1.403 1.226   1.227   1.095 1.334 1.382 1.166   1.167 1.0850       6.664 6.664 0.000
VANMET_231 2018-04-19 23:20:00 231 11739.0   1.134 1.373 1.234 1.400   100.000   1.235 0.421 0.682 1.483 2.434 0.290 0.306 0.401 0.740 0.00 931.00 15.22 0.7890 7.10 0.05   1.144 1.386 1.416 1.256   1.257   1.127 1.357 1.371 1.216   1.217 1.0130       6.679 6.679 0.000
VANMET_231 2018-04-19 23:15:00 231 11739.0   1.138 1.399 1.258 1.438   100.000   1.259 0.421 0.682 1.483 2.433 0.290 0.306 0.401 0.740 0.00 931.00 15.22 0.8460 7.04 0.06   1.140 1.404 1.448 1.272   1.273   1.134 1.389 1.423 1.246   1.247 0.9540       6.690 6.691 0.000
VANMET_231 2018-04-19 23:10:00 231 11739.0   1.144 1.402 1.252 1.438   100.000   1.253 0.421 0.682 1.482 2.433 0.290 0.306 0.401 0.740 0.00 931.00 15.22 0.9250 7.30 0.16   1.152 1.410 1.457 1.272   1.273   1.136 1.395 1.429 1.229   1.229 1.1830       6.687 6.688 0.000
VANMET_231 2018-04-19 23:05:00 231 11739.0   1.121 1.377 1.222 1.413   100.000   1.223 0.421 0.683 1.482 2.434 0.290 0.306 0.401 0.740 0.00 931.00 15.22 0.9590 5.51 0.78   1.147 1.395 1.452 1.239   1.239   1.098 1.366 1.385 1.202   1.203 1.0850       6.673 6.673 0.000
VANMET_231 2018-04-19 23:00:00 231 11739.0   1.098 1.377 1.238 1.367   100.000   1.239 0.421 0.682 1.482 2.434 0.290 0.306 0.401 0.740 0.00 931.00 15.22 0.9200 5.56 0.43   1.119 1.382 1.400 1.252   1.253   1.079 1.372 1.332 1.222   1.223 1.0710       6.680 6.681 0.000
VANMET_231 2018-04-19 22:55:00 231 11739.0   1.127 1.422 1.286 1.388   100.000   1.287 0.420 0.682 1.482 2.434 0.290 0.306 0.401 0.740 0.00 930.50 15.20 0.8330 6.40 1.24   1.168 1.449 1.426 1.311   1.312   1.083 1.380 1.339 1.265   1.266 1.0190       6.704 6.704 0.000
VANMET_231 2018-04-19 22:50:00 231 11739.0   1.207 1.482 1.318 1.484   100.000   1.319 0.420 0.682 1.482 2.433 0.290 0.306 0.401 0.740 0.00 930.50 15.20 0.8530 7.57 0.07   1.224 1.497 1.522 1.338   1.339   1.165 1.452 1.422 1.308   1.309 0.9280       6.719 6.720 0.000
VANMET_231 2018-04-19 22:45:00 231 11739.0   1.231 1.486 1.333 1.514   100.000   1.333 0.421 0.682 1.482 2.433 0.290 0.306 0.401 0.740 0.00 930.50 15.20 0.8970 7.27 5.87   1.240 1.498 1.534 1.351   1.352   1.218 1.473 1.484 1.314   1.315 1.2540       6.726 6.726 0.000
VANMET_231 2018-04-19 22:40:00 231 11739.0   1.197 1.472 1.305 1.487   100.000   1.306 0.420 0.682 1.481 2.434 0.290 0.306 0.401 0.740 0.00 931.00 15.20 0.8580 6.96 2.08   1.213 1.485 1.506 1.335   1.335   1.162 1.431 1.469 1.281   1.282 1.0520       6.713 6.713 0.000
VANMET_231 2018-04-19 22:35:00 231 11739.0   1.118 1.422 1.267 1.421   100.000   1.268 0.421 0.682 1.482 2.433 0.289 0.306 0.401 0.740 0.00 931.00 15.20 0.8350 4.67 1.57   1.156 1.427 1.452 1.288   1.289   1.103 1.416 1.400 1.234   1.235 1.0000       6.694 6.695 0.000
VANMET_231 2018-04-19 22:30:00 231 11739.0   1.125 1.396 1.241 1.421   100.000   1.242 0.421 0.682 1.482 2.433 0.290 0.306 0.401 0.740 0.00 931.50 15.19 0.9680 7.28 0.39   1.146 1.430 1.456 1.264   1.265   1.107 1.372 1.391 1.221   1.222 1.1630       6.682 6.682 0.000
VANMET_231 2018-04-19 22:25:00 231 11739.0   1.145 1.384 1.246 1.396   100.000   1.247 0.420 0.681 1.481 2.433 0.290 0.306 0.401 0.740 0.00 931.00 15.19 0.9560 4.44 1.44   1.158 1.404 1.416 1.270   1.271   1.126 1.373 1.379 1.224   1.225 1.1170       6.684 6.685 0.000
VANMET_231 2018-04-19 22:20:00 231 11739.0   1.150 1.401 1.273 1.412   100.000   1.273 0.420 0.682 1.481 2.433 0.289 0.306 0.401 0.740 0.00 931.00 15.20 0.7890 2.45 1.33   1.173 1.423 1.464 1.287   1.288   1.105 1.373 1.347 1.254   1.255 0.9800       6.697 6.697 0.000
VANMET_231 2018-04-19 22:15:00 231 11739.0   1.166 1.426 1.297 1.452   100.000   1.298 0.421 0.681 1.481 2.433 0.290 0.306 0.401 0.740 0.00 931.00 15.20 0.8730 6.72 0.82   1.172 1.444 1.472 1.320   1.321   1.154 1.408 1.432 1.267   1.268 1.0320       6.709 6.709 0.000
VANMET_231 2018-04-19 22:10:00 231 11739.0   1.212 1.468 1.320 1.487   100.000   1.320 0.420 0.682 1.481 2.433 0.289 0.306 0.401 0.740 0.00 930.50 15.19 0.8580 7.14 0.39   1.223 1.483 1.507 1.340   1.341   1.181 1.449 1.466 1.307   1.307 0.9800       6.720 6.720 0.000
VANMET_231 2018-04-19 22:05:00 231 11739.0   1.249 1.507 1.343 1.506   100.000   1.343 0.420 0.681 1.480 2.433 0.289 0.306 0.401 0.740 0.00 930.50 15.18 1.0030 7.41 1.22   1.259 1.535 1.530 1.376   1.377   1.228 1.480 1.487 1.313   1.314 1.1690       6.731 6.731 0.000
VANMET_231 2018-04-19 22:00:00 231 11739.0   1.282 1.558 1.378 1.548   100.000   1.379 0.420 0.681 1.481 2.433 0.289 0.306 0.401 0.740 0.00 930.00 15.16 0.9160 5.39 1.30   1.302 1.575 1.594 1.399   1.400   1.260 1.530 1.486 1.356   1.357 1.1110       6.748 6.749 0.000
VANMET_231 2018-04-19 21:55:00 231 11739.0   1.267 1.559 1.397 1.547   100.000   1.398 0.420 0.681 1.480 2.433 0.289 0.306 0.401 0.740 0.00 931.00 15.16 0.9230 3.86 2.93   1.309 1.585 1.584 1.412   1.413   1.222 1.526 1.492 1.379   1.380 1.1430       6.757 6.758 0.000
VANMET_231 2018-04-19 21:50:00 231 11739.0   1.295 1.575 1.402 1.573   100.000   1.403 0.420 0.681 1.480 2.433 0.289 0.306 0.401 0.740 0.00 931.00 15.14 0.7370 360.00 8.07   1.333 1.598 1.613 1.425   1.426   1.261 1.546 1.549 1.382   1.383 0.9930       6.760 6.760 0.000
VANMET_231 2018-04-19 21:45:00 231 11739.0   1.242 1.513 1.360 1.522   100.000   1.360 0.420 0.681 1.480 2.433 0.289 0.306 0.401 0.740 0.00 930.00 15.16 0.8630 3.69 2.69   1.278 1.541 1.570 1.389   1.390   1.187 1.469 1.462 1.335   1.336 1.1560       6.739 6.739 0.000
VANMET_231 2018-04-19 21:40:00 231 11739.0   1.147 1.467 1.332 1.462   100.000   1.333 0.420 0.681 1.480 2.433 0.289 0.306 0.401 0.740 0.00 930.00 15.16 0.7370 1.13 0.90   1.170 1.491 1.480 1.349   1.350   1.136 1.452 1.448 1.319   1.320 0.8170       6.726 6.726 0.000
VANMET_231 2018-04-19 21:35:00 231 11739.0   1.114 1.450 1.316 1.422   100.000   1.317 0.419 0.681 1.480 2.433 0.289 0.306 0.401 0.740 0.00 930.00 15.14 0.8340 3.35 2.62   1.147 1.479 1.467 1.344   1.345   1.079 1.421 1.371 1.298   1.299 1.2020       6.718 6.719 0.000
VANMET_231 2018-04-19 21:30:00 231 11739.0   1.229 1.510 1.352 1.512   100.000   1.353 0.420 0.680 1.480 2.432 0.289 0.306 0.401 0.740 0.00 930.00 15.14 0.9410 6.78 1.94   1.266 1.529 1.558 1.371   1.372   1.161 1.471 1.432 1.331   1.332 1.1690       6.736 6.736 0.000
VANMET_231 2018-04-19 21:25:00 231 11739.0   1.234 1.524 1.379 1.493   100.000   1.380 0.419 0.680 1.479 2.433 0.289 0.306 0.401 0.740 0.00 930.00 15.14 0.9170 5.04 1.96   1.326 1.572 1.571 1.407   1.408   1.182 1.499 1.458 1.351   1.352 1.1370       6.749 6.749 0.000
VANMET_231 2018-04-19 21:20:00 231 11739.0   1.327 1.591 1.433 1.596   100.000   1.434 0.420 0.680 1.479 2.432 0.289 0.306 0.401 0.740 0.00 930.00 15.13 1.0550 9.02 2.60   1.351 1.616 1.618 1.463   1.464   1.306 1.571 1.578 1.410   1.411 1.2480       6.775 6.775 0.000
VANMET_231 2018-04-19 21:15:00 231 11739.0   1.367 1.628 1.484 1.633   100.000   1.485 0.419 0.680 1.479 2.432 0.289 0.306 0.401 0.740 0.00 930.00 15.13 1.0390 8.07 0.92   1.397 1.654 1.668 1.509   1.510   1.337 1.611 1.589 1.460   1.461 1.1560       6.800 6.800 0.000
VANMET_231 2018-04-19 21:10:00 231 11739.0   1.400 1.645 1.500 1.675   100.000   1.501 0.419 0.680 1.479 2.432 0.289 0.306 0.401 0.740 0.00 930.00 15.13 0.9770 6.42 0.67   1.409 1.657 1.693 1.522   1.523   1.393 1.634 1.656 1.486   1.487 1.0780       6.808 6.808 0.000
VANMET_231 2018-04-19 21:05:00 231 11739.0   1.368 1.634 1.495 1.657   100.000   1.496 0.419 0.680 1.479 2.432 0.289 0.306 0.401 0.740 0.00 930.00 15.11 0.9110 4.84 1.10   1.403 1.646 1.684 1.512   1.513   1.342 1.610 1.618 1.478   1.479 1.1300       6.805 6.806 0.000
VANMET_231 2018-04-19 21:00:00 231 11739.0   1.299 1.581 1.454 1.578   100.000   1.455 0.419 0.680 1.479 2.432 0.289 0.306 0.401 0.740 0.00 930.50 15.06 0.9060 4.24 1.30   1.343 1.602 1.639 1.475   1.476   1.258 1.560 1.529 1.428   1.429 1.1630       6.785 6.786 0.000
VANMET_231 2018-04-19 20:55:00 231 11739.0   1.297 1.578 1.457 1.556   100.000   1.458 0.419 0.680 1.478 2.432 0.290 0.306 0.401 0.740 0.00 930.50 15.05 0.8560 2.79 0.49   1.330 1.599 1.608 1.477   1.478   1.268 1.546 1.508 1.441   1.442 0.9870       6.787 6.787 0.000
VANMET_231 2018-04-19 20:50:00 231 11739.0   1.299 1.587 1.459 1.568   100.000   1.460 0.419 0.680 1.478 2.431 0.289 0.306 0.401 0.740 0.00 930.50 15.05 0.9400 5.34 1.92   1.357 1.614 1.618 1.480   1.481   1.245 1.555 1.520 1.440   1.441 1.3070       6.788 6.788 0.000
VANMET_231 2018-04-19 20:45:00 231 11739.0   1.360 1.617 1.476 1.610   100.000   1.477 0.419 0.680 1.478 2.431 0.289 0.306 0.401 0.740 0.00 930.50 15.03 1.0110 7.92 0.50   1.368 1.624 1.630 1.493   1.494   1.341 1.603 1.586 1.466   1.467 1.1370       6.796 6.796 0.000
VANMET_231 2018-04-19 20:40:00 231 11739.0   1.365 1.617 1.509 1.594   100.000   1.510 0.418 0.680 1.477 2.431 0.289 0.306 0.401 0.740 0.00 931.00 15.02 0.9810 9.14 0.39   1.432 1.670 1.676 1.542   1.543   1.326 1.594 1.547 1.472   1.473 1.1240       6.812 6.812 0.000
VANMET_231 2018-04-19 20:35:00 231 11739.0   1.410 1.679 1.575 1.664   100.000   1.576 0.418 0.679 1.478 2.431 0.289 0.306 0.401 0.740 0.00 931.00 14.99 1.0620 10.01 0.75   1.434 1.692 1.689 1.602   1.603   1.376 1.668 1.625 1.552   1.553 1.1630       6.844 6.845 0.000
VANMET_231 2018-04-19 20:30:00 231 11739.0   1.478 1.761 1.659 1.752   100.000   1.660 0.419 0.680 1.477 2.431 0.289 0.306 0.401 0.740 0.00 931.00 14.97 1.0750 13.26 2.59   1.510 1.792 1.832 1.691   1.692   1.393 1.695 1.643 1.612   1.613 1.2090       6.886 6.886 0.000
VANMET_231 2018-04-19 20:25:00 231 11739.0   1.512 1.800 1.694 1.792   100.000   1.695 0.419 0.679 1.477 2.431 0.289 0.306 0.401 0.740 0.00 931.00 14.97 0.9390 8.02 4.18   1.547 1.833 1.837 1.726   1.728   1.465 1.761 1.721 1.667   1.668 1.2410       6.903 6.904 0.000
VANMET_231 2018-04-19 20:20:00 231 11739.0   1.631 1.890 1.766 1.892   100.000   1.767 0.419 0.679 1.477 2.431 0.290 0.306 0.401 0.740 0.00 931.00 14.95 1.0500 10.14 3.80   1.671 1.917 1.935 1.789   1.790   1.560 1.839 1.818 1.736   1.737 1.1430       6.939 6.939 0.000
VANMET_231 2018-04-19 20:15:00 231 11739.0   1.638 1.906 1.803 1.901   100.000   1.805 0.418 0.679 1.477 2.431 0.289 0.306 0.401 0.740 0.00 931.00 14.94 1.1400 8.38 0.89   1.677 1.926 1.916 1.825   1.827   1.591 1.889 1.885 1.772   1.774 1.2870       6.957 6.958 0.000
VANMET_231 2018-04-19 20:10:00 231 11739.0   1.633 1.938 1.836 1.941   100.000   1.838 0.418 0.679 1.477 2.431 0.290 0.306 0.401 0.740 0.00 931.00 14.93 0.9800 7.08 0.33   1.661 1.958 1.973 1.861   1.862   1.593 1.905 1.908 1.805   1.806 1.1830       6.974 6.975 0.000
VANMET_231 2018-04-19 20:05:00 231 11739.0   1.668 2.015 1.930 2.002   100.000   1.931 0.418 0.678 1.477 2.431 0.290 0.306 0.401 0.740 0.00 930.50 14.89 1.0160 6.33 0.25   1.769 2.074 2.088 1.993   1.994   1.622 1.957 1.921 1.861   1.862 1.1630       7.021 7.021 0.000
VANMET_231 2018-04-19 20:00:00 231 11739.0   1.849 2.131 2.030 2.119   100.000   2.032 0.418 0.679 1.476 2.431 0.290 0.306 0.401 0.740 0.00 930.50 14.87 0.9980 7.77 2.35   1.915 2.185 2.133 2.089   2.090   1.779 2.079 2.093 1.973   1.974 1.1300       7.071 7.072 0.000
VANMET_231 2018-04-19 19:55:00 231 11739.0   1.944 2.223 2.137 2.181   100.000   2.138 0.418 0.678 1.476 2.430 0.290 0.306 0.401 0.740 0.00 930.00 14.87 1.0040 13.27 1.04   1.967 2.258 2.237 2.195   2.196   1.917 2.191 2.141 2.082   2.084 1.1370       7.126 7.126 -0.000
VANMET_231 2018-04-19 19:50:00 231 11739.0   2.031 2.310 2.228 2.288   100.000   2.230 0.418 0.678 1.476 2.430 0.290 0.306 0.401 0.740 0.00 930.50 14.87 1.0600 12.89 0.69   2.098 2.355 2.338 2.267   2.269   1.952 2.261 2.236 2.185   2.186 1.1560       7.172 7.173 0.000
VANMET_231 2018-04-19 19:45:00 231 11739.0   2.136 2.402 2.346 2.383   100.000   2.348 0.418 0.678 1.476 2.430 0.290 0.306 0.401 0.740 0.00 931.00 14.89 0.9270 15.51 3.83   2.183 2.459 2.453 2.413   2.415   2.100 2.358 2.326 2.281   2.282 1.0980       7.233 7.234 0.000
VANMET_231 2018-04-19 19:40:00 231 11739.0   2.228 2.521 2.484 2.505   100.000   2.486 0.417 0.678 1.476 2.431 0.290 0.306 0.401 0.740 0.00 930.50 14.90 0.9830 11.27 0.98   2.261 2.574 2.597 2.542   2.544   2.178 2.459 2.411 2.406   2.408 1.4630       7.304 7.305 -0.000
VANMET_231 2018-04-19 19:35:00 231 11739.0   2.299 2.615 2.609 2.594   100.000   2.611 0.417 0.678 1.475 2.430 0.290 0.307 0.401 0.740 0.00 930.00 14.90 0.9200 14.12 7.29   2.375 2.684 2.682 2.688   2.690   2.263 2.560 2.514 2.522   2.524 1.3850       7.370 7.371 0.000
VANMET_231 2018-04-19 19:30:00 231 11739.0   2.451 2.772 2.787 2.737   100.000   2.789 0.417 0.678 1.475 2.430 0.290 0.307 0.401 0.740 0.00 930.50 14.91 0.6850 22.02 8.58   2.544 2.866 2.838 2.896   2.898   2.380 2.686 2.652 2.691   2.693 0.9870       7.464 7.465 0.000
VANMET_231 2018-04-19 19:25:00 231 11739.0   2.612 2.963 2.997 2.925   99.900   2.992 0.417 0.677 1.475 2.430 0.290 0.307 0.401 0.740 0.00 930.50 14.91 0.7730 18.15 6.53   2.667 3.033 2.990 3.091   3.047   2.547 2.872 2.843 2.899   2.901 0.9930       7.576 7.573 0.008
VANMET_231 2018-04-19 19:20:00 231 11739.0   2.809 3.145 3.216 3.087   99.000   3.080 0.417 0.677 1.475 2.429 0.290 0.307 0.401 0.740 0.00 929.50 14.97 0.6600 14.68 6.79   2.917 3.251 3.179 3.357   3.143   2.680 3.043 2.999 3.091   3.038 0.8820       7.694 7.620 0.077
VANMET_231 2018-04-19 19:15:00 231 11739.0   3.006 3.356 3.492 3.313   97.900   3.201 0.417 0.677 1.475 2.430 0.290 0.307 0.401 0.740 0.00 929.50 14.97 0.6310 5.74 6.74   3.078 3.446 3.416 3.599   3.246   2.930 3.267 3.208 3.363   3.142 0.8230       7.846 7.686 0.165
VANMET_231 2018-04-19 19:10:00 231 11739.0   3.140 3.556 3.750 3.526   97.000   3.320 0.417 0.677 1.475 2.430 0.290 0.307 0.401 0.740 0.00 929.50 14.97 0.5570 353.10 19.61   3.171 3.619 3.580 3.861   3.349   3.085 3.460 3.419 3.629   3.259 0.8040       7.990 7.751 0.240
VANMET_231 2018-04-19 19:05:00 231 11739.0   3.261 3.778 4.055 3.679   95.700   3.433 0.416 0.677 1.474 2.429 0.290 0.307 0.401 0.740 0.00 930.00 14.97 0.5690 357.90 8.55   3.416 3.929 3.843 4.229   3.537   3.132 3.628 3.536 3.867   3.326 0.9470       8.164 7.813 0.351
VANMET_231 2018-04-19 19:00:00 231 11739.0   3.582 4.114 4.412 3.997   94.600   3.618 0.416 0.676 1.474 2.429 0.290 0.307 0.401 0.740 0.33 929.00 14.99 0.4330 346.40 8.13   3.734 4.284 4.122 4.598   3.729   3.444 3.961 3.870 4.253   3.554 0.7060       8.371 7.916 0.452
VANMET_231 2018-04-19 18:55:00 231 11739.0   3.890 4.435 4.688 4.436   93.900   3.800 0.416 0.677 1.473 2.429 0.290 0.307 0.401 0.740 4.03 928.50 15.01 0.3960 94.00 59.83   3.973 4.519 4.770 4.750   3.932   3.762 4.311 4.159 4.604   3.718 0.7910       8.534 8.018 0.521
VANMET_231 2018-04-19 18:50:00 231 11739.0   4.104 4.684 4.923 4.583   93.700   4.004 0.416 0.676 1.474 2.429 0.290 0.307 0.401 0.740 11.11 928.00 15.01 0.4060 50.87 23.58   4.251 4.873 4.827 5.102   4.109   3.982 4.497 4.389 4.747   3.920 0.5550       8.676 8.134 0.547
VANMET_231 2018-04-19 18:45:00 231 11739.0   4.307 4.921 5.155 5.062   92.100   3.979 0.415 0.676 1.473 2.429 0.290 0.307 0.401 0.740 19.90 928.00 15.02 0.2220 82.30 24.04   4.377 4.960 5.318 5.178   4.113   4.258 4.887 4.861 5.122   3.766 0.6600       8.817 8.120 0.697
VANMET_231 2018-04-19 18:40:00 231 11739.0   4.232 4.926 5.265 4.787   92.100   4.091 0.415 0.676 1.473 2.429 0.290 0.307 0.401 0.740 23.94 927.00 15.08 0.1120 118.20 18.55   4.335 5.088 4.927 5.403   4.149   4.172 4.858 4.666 5.175   4.039 0.5230       8.885 8.184 0.702
VANMET_231 2018-04-19 18:35:00 231 11739.0   4.506 5.215 5.466 5.056   90.700   4.066 0.415 0.675 1.473 2.429 0.290 0.307 0.401 0.740 28.62 927.00 15.18 0.1100 120.30 0.14   4.609 5.272 5.294 5.585   4.104   4.343 5.098 4.826 5.410   4.020 0.5490       9.010 8.170 0.838
VANMET_231 2018-04-19 18:30:00 231 11739.0   4.652 5.420 5.658 5.188   89.200   4.017 0.416 0.676 1.473 2.429 0.290 0.307 0.401 0.740 50.55 925.50 15.21 0.3340 86.40 60.27   4.717 5.512 5.307 5.698   4.153   4.567 5.297 5.058 5.575   3.852 0.5420       9.131 8.142 0.986
VANMET_231 2018-04-19 18:25:00 231 11739.0   4.710 5.535 5.732 5.415   86.900   3.720 0.415 0.676 1.473 2.429 0.290 0.307 0.401 0.740 72.73 927.00 15.22 0.0000 0.00 0.00   4.779 5.582 5.602 5.771   3.876   4.645 5.506 5.248 5.685   3.468 0.0000       9.178 7.973 1.202
VANMET_231 2018-04-19 18:20:00 231 11739.0   4.643 5.391 5.625 5.351   88.000   3.804 0.416 0.676 1.472 2.428 0.290 0.307 0.401 0.740 82.40 927.00 15.23 0.1100 29.11 61.44   4.744 5.512 5.543 5.711   3.965   4.576 5.298 5.074 5.538   3.621 0.4380       9.111 8.021 1.093
VANMET_231 2018-04-19 18:15:00 231 11739.0   4.441 5.145 5.363 5.255   89.300   3.745 0.415 0.676 1.472 2.428 0.290 0.307 0.401 0.740 65.38 927.00 15.28 0.1600 354.00 57.11   4.610 5.298 5.660 5.478   3.929   4.351 5.032 4.959 5.245   3.476 0.5810       8.946 7.987 0.957
VANMET_231 2018-04-19 18:10:00 231 11739.0   4.378 4.987 5.303 4.759   91.500   4.042 0.415 0.675 1.472 2.428 0.290 0.307 0.401 0.740 57.30 927.00 15.36 0.2470 337.20 69.68   4.434 5.061 5.065 5.451   4.108   4.314 4.925 4.663 5.205   3.872 0.7060       8.909 8.156 0.757
VANMET_231 2018-04-19 18:05:00 231 11739.0   4.680 5.386 5.720 5.072   89.500   4.135 0.415 0.675 1.472 2.428 0.290 0.307 0.401 0.740 52.41 926.00 15.41 0.4020 19.74 23.44   4.820 5.639 5.230 5.895   4.182   4.466 5.114 4.793 5.477   4.061 0.5750       9.171 8.210 0.963
VANMET_231 2018-04-19 18:00:00 231 11739.0   4.955 5.721 5.855 5.596   86.400   3.759 0.415 0.675 1.472 2.428 0.290 0.307 0.401 0.740 66.52 926.00 15.43 0.1450 325.40 77.15   5.051 5.819 5.883 5.938   4.063   4.844 5.605 5.292 5.759   3.522 0.4640       9.257 7.995 1.259
VANMET_231 2018-04-19 17:55:00 231 11739.0   4.680 5.375 5.655 5.350   87.700   3.776 0.414 0.675 1.472 2.428 0.290 0.307 0.401 0.740 114.50 925.50 15.46 0.5470 257.30 51.74   4.897 5.590 5.799 5.755   4.071   4.402 5.195 4.768 5.585   3.579 0.8560       9.130 8.005 1.123
VANMET_231 2018-04-19 17:50:00 231 11739.0   4.468 5.286 5.717 4.834   88.900   4.037 0.415 0.675 1.472 2.428 0.290 0.307 0.401 0.740 136.40 927.50 15.49 0.4670 306.90 29.53   4.578 5.426 5.198 5.804   4.085   4.391 5.193 4.643 5.612   3.954 0.7640       9.169 8.153 1.018
VANMET_231 2018-04-19 17:45:00 231 11739.0   4.766 5.606 5.872 5.334   87.000   3.873 0.414 0.674 1.472 2.428 0.290 0.307 0.401 0.740 172.70 928.50 15.53 0.0340 13.39 30.11   4.977 5.777 5.802 5.946   4.030   4.581 5.419 5.083 5.791   3.580 0.3010       9.268 8.060 1.205
VANMET_231 2018-04-19 17:40:00 231 11739.0   4.984 5.775 5.929 5.482   87.100   3.949 0.414 0.674 1.472 2.428 0.290 0.307 0.401 0.740 212.10 928.50 15.61 0.1100 247.40 33.44   5.082 5.790 5.771 5.953   4.098   4.859 5.726 5.182 5.906   3.551 0.6140       9.305 8.103 1.200
VANMET_231 2018-04-19 17:35:00 231 11739.0   5.111 5.778 5.928 5.762   85.900   3.748 0.414 0.674 1.472 2.428 0.290 0.307 0.401 0.740 168.40 928.50 15.70 0.5120 230.60 21.22   5.167 5.819 6.051 5.956   3.961   5.058 5.754 5.541 5.892   3.488 0.9150       9.304 7.989 1.312
VANMET_231 2018-04-19 17:30:00 231 11739.0   4.992 5.655 5.850 5.598   87.500   3.946 0.415 0.674 1.471 2.428 0.290 0.307 0.401 0.740 175.60 928.50 15.74 0.2350 278.40 50.56   5.126 5.742 6.049 5.886   4.164   4.911 5.602 5.292 5.819   3.695 0.7060       9.254 8.101 1.157
VANMET_231 2018-04-19 17:25:00 231 11739.0   5.028 5.719 5.910 5.431   87.400   3.982 0.414 0.674 1.471 2.427 0.290 0.307 0.401 0.740 100.50 928.00 15.81 0.1880 307.40 40.17   5.084 5.781 5.591 5.965   4.147   4.981 5.649 5.267 5.868   3.794 0.8230       9.292 8.122 1.171
VANMET_231 2018-04-19 17:20:00 231 11739.0   5.196 5.890 6.037 5.417   87.300   4.089 0.414 0.674 1.471 2.427 0.290 0.307 0.401 0.740 202.50 928.50 15.90 0.2100 291.20 30.36   5.360 6.017 5.532 6.110   4.230   5.099 5.787 5.288 5.971   3.952 0.5160       9.375 8.183 1.191
VANMET_231 2018-04-19 17:15:00 231 11739.0   5.521 6.157 6.186 5.639   85.500   3.932 0.413 0.673 1.470 2.427 0.290 0.307 0.401 0.740 97.40 928.00 15.94 0.1480 38.96 32.65   5.759 6.340 6.021 6.326   4.243   5.358 6.017 5.387 6.117   3.314 0.4380       9.472 8.093 1.373
VANMET_231 2018-04-19 17:10:00 231 11739.0   5.955 6.438 6.376 5.958   84.400   3.938 0.414 0.673 1.470 2.427 0.290 0.307 0.401 0.740 117.60 927.50 15.95 0.2600 6.20 46.18   6.091 6.531 6.234 6.438   4.253   5.782 6.329 5.773 6.303   3.404 0.7250       9.597 8.097 1.497
VANMET_231 2018-04-19 17:05:00 231 11739.0   6.107 6.560 6.484 6.065   84.700   4.101 0.413 0.673 1.470 2.427 0.290 0.307 0.401 0.740 107.30 927.50 15.97 0.2690 283.90 67.32   6.256 6.635 6.224 6.521   4.373   6.061 6.519 5.952 6.445   3.544 0.6860       9.669 8.190 1.479
VANMET_231 2018-04-19 17:00:00 231 11739.0   6.515 6.879 6.720 6.411   82.100   3.893 0.413 0.673 1.470 2.426 0.290 0.307 0.401 0.740 114.80 926.50 16.01 0.6050 151.30 34.81   6.648 7.001 6.583 6.813   4.097   6.297 6.641 6.196 6.524   3.678 1.1240       9.827 8.071 1.759
VANMET_231 2018-04-19 16:55:00 231 11739.0   6.633 6.931 6.741 6.359   83.400   4.125 0.413 0.673 1.469 2.426 0.290 0.307 0.401 0.740 132.60 926.50 16.09 0.4310 231.20 18.83   6.724 6.990 6.602 6.773   4.249   6.577 6.851 6.163 6.706   3.873 1.0130       9.841 8.204 1.634
VANMET_231 2018-04-19 16:50:00 231 11739.0   6.839 7.169 6.901 6.451   82.100   4.065 0.413 0.673 1.469 2.426 0.290 0.307 0.401 0.740 157.50 925.00 16.23 0.3760 145.00 22.23   7.072 7.350 6.541 7.035   4.374   6.698 6.986 6.299 6.753   3.881 0.6990       9.950 8.169 1.781
VANMET_231 2018-04-19 16:45:00 231 11739.0   7.023 7.244 6.929 6.501   82.500   4.168 0.413 0.673 1.469 2.427 0.290 0.307 0.401 0.740 184.50 924.00 16.30 0.4160 184.50 56.58   7.074 7.360 6.622 7.058   4.507   6.949 7.149 6.389 6.835   3.765 1.0580       9.969 8.229 1.745
VANMET_231 2018-04-19 16:40:00 231 11739.0   7.178 7.415 7.037 6.457   82.800   4.326 0.413 0.673 1.469 2.426 0.290 0.307 0.401 0.740 189.80 924.00 16.35 0.5180 190.20 37.55   7.281 7.494 6.598 7.077   4.525   7.053 7.283 6.287 6.951   4.011 1.2350       10.043 8.321 1.727
VANMET_231 2018-04-19 16:35:00 231 11739.0   7.100 7.383 7.026 6.542   81.700   4.119 0.413 0.673 1.469 2.426 0.290 0.307 0.401 0.740 192.30 924.00 16.35 0.5020 225.50 32.06   7.178 7.471 6.601 7.061   4.322   7.040 7.314 6.466 6.994   3.959 0.8300       10.036 8.201 1.837
VANMET_231 2018-04-19 16:30:00 231 11739.0   7.097 7.285 6.966 6.484   82.300   4.166 0.413 0.673 1.469 2.426 0.290 0.307 0.401 0.740 199.60 924.00 16.40 0.6350 224.00 17.43   7.162 7.351 6.571 7.021   4.399   7.038 7.243 6.402 6.901   3.956 0.9730       9.995 8.228 1.769
VANMET_231 2018-04-19 16:25:00 231 11739.0   6.965 7.236 6.894 6.571   82.400   4.110 0.413 0.672 1.469 2.426 0.290 0.307 0.401 0.740 212.50 925.00 16.41 0.8530 216.20 10.64   7.075 7.264 6.610 6.927   4.322   6.858 7.208 6.501 6.857   3.896 1.1560       9.945 8.195 1.750
VANMET_231 2018-04-19 16:20:00 231 11739.0   6.641 7.043 6.803 6.458   83.300   4.178 0.413 0.672 1.468 2.426 0.290 0.307 0.401 0.740 215.80 925.00 16.53 0.6630 232.00 13.58   6.850 7.189 6.556 6.860   4.462   6.486 6.909 6.311 6.767   3.952 0.9150       9.883 8.235 1.651
VANMET_231 2018-04-19 16:15:00 231 11739.0   6.362 6.906 6.798 6.290   85.600   4.551 0.413 0.672 1.468 2.426 0.290 0.307 0.401 0.740 180.50 925.00 16.53 0.8520 218.70 21.87   6.492 6.945 6.386 6.836   4.943   6.248 6.883 6.153 6.763   4.309 1.4500       9.880 8.453 1.423
VANMET_231 2018-04-19 16:10:00 231 11739.0   6.184 6.880 6.772 6.205   86.400   4.664 0.413 0.672 1.468 2.426 0.290 0.307 0.401 0.739 171.20 926.50 16.72 0.3550 240.90 11.20   6.266 6.944 6.343 6.849   4.950   5.984 6.728 6.050 6.643   4.515 0.8950       9.862 8.520 1.341
VANMET_231 2018-04-19 16:05:00 231 11739.0   5.911 6.635 6.589 5.928   86.800   4.552 0.413 0.672 1.468 2.427 0.290 0.307 0.401 0.739 163.90 927.50 16.72 0.2250 249.20 38.18   6.013 6.714 6.053 6.629   4.735   5.770 6.583 5.725 6.566   4.303 0.7120       9.739 8.454 1.286
VANMET_231 2018-04-19 16:00:00 231 11739.0   5.963 6.557 6.503 5.925   87.400   4.574 0.413 0.672 1.468 2.426 0.290 0.307 0.401 0.739 154.50 927.50 16.81 0.1050 269.90 43.27   6.052 6.669 6.036 6.590   4.708   5.874 6.491 5.845 6.466   4.375 0.4310       9.681 8.467 1.220
VANMET_231 2018-04-19 15:55:00 231 11739.0   5.897 6.509 6.522 5.807   86.000   4.361 0.412 0.672 1.468 2.426 0.290 0.307 0.401 0.739 147.00 928.50 16.88 0.4410 240.60 43.20   5.971 6.581 5.953 6.569   4.494   5.834 6.428 5.593 6.459   4.220 1.2020       9.694 8.341 1.357
VANMET_231 2018-04-19 15:50:00 231 11739.0   6.050 6.607 6.603 5.868   86.200   4.466 0.412 0.671 1.468 2.426 0.290 0.307 0.401 0.739 139.90 929.00 16.97 0.2880 263.50 35.16   6.096 6.635 5.971 6.648   4.682   5.989 6.557 5.754 6.552   3.967 0.7320       9.748 8.403 1.345
VANMET_231 2018-04-19 15:45:00 231 11739.0   6.121 6.615 6.521 6.003   85.400   4.257 0.412 0.672 1.467 2.426 0.290 0.307 0.401 0.739 126.50 930.50 17.05 0.3560 267.10 36.76   6.151 6.634 6.134 6.562   4.452   6.092 6.598 5.930 6.492   3.992 0.6930       9.693 8.280 1.415
VANMET_231 2018-04-19 15:40:00 231 11739.0   6.244 6.743 6.619 6.032   84.900   4.264 0.412 0.671 1.467 2.426 0.290 0.307 0.401 0.740 128.90 930.50 17.12 0.7460 231.40 24.00   6.326 6.826 6.183 6.704   4.592   6.141 6.608 5.907 6.548   3.928 1.8230       9.759 8.285 1.474
VANMET_231 2018-04-19 15:35:00 231 11739.0   6.543 6.930 6.754 5.891   82.100   3.913 0.412 0.671 1.467 2.426 0.290 0.307 0.401 0.739 161.20 932.50 17.12 0.7600 221.50 28.11   6.640 7.005 5.976 6.834   4.277   6.353 6.840 5.804 6.721   3.703 1.3520       9.850 8.083 1.763
VANMET_231 2018-04-19 15:30:00 231 11739.0   6.826 7.192 7.129 6.115   79.950   3.909 0.412 0.671 1.467 2.425 0.290 0.307 0.401 0.740 182.90 933.00 17.23 0.9920 225.90 30.13   7.195 7.559 6.359 7.356   4.176   6.585 6.896 5.848 6.851   3.577 1.7050       10.107 8.080 2.026
VANMET_231 2018-04-19 15:25:00 231 11739.0   7.598 7.955 7.605 6.605   76.440   3.730 0.412 0.671 1.467 2.426 0.290 0.307 0.402 0.740 225.20 933.00 17.42 1.1420 212.00 32.20   7.836 8.150 6.951 7.751   4.369   7.241 7.581 6.310 7.375   3.284 2.4430       10.442 7.979 2.460
VANMET_231 2018-04-19 15:20:00 231 11739.0   7.563 7.876 7.602 6.917   78.080   4.031 0.412 0.671 1.467 2.426 0.290 0.307 0.402 0.740 320.80 933.00 17.52 0.7820 278.90 43.40   7.704 7.998 7.176 7.672   4.554   7.448 7.743 6.663 7.505   3.333 1.3590       10.440 8.150 2.288
VANMET_231 2018-04-19 15:15:00 231 11739.0   7.261 7.627 7.423 6.850   78.820   3.989 0.412 0.671 1.467 2.426 0.290 0.307 0.402 0.740 372.60 933.00 17.52 0.8270 240.70 45.38   7.507 7.790 7.077 7.548   4.635   7.046 7.418 6.661 7.239   3.216 1.3850       10.313 8.126 2.184
VANMET_231 2018-04-19 15:10:00 231 11739.0   6.641 7.128 7.216 6.116   79.740   3.953 0.412 0.671 1.467 2.426 0.290 0.307 0.402 0.739 362.40 933.00 17.52 0.8340 233.40 71.29   6.988 7.391 6.751 7.449   4.534   6.423 6.926 5.577 7.130   3.381 1.8230       10.168 8.105 2.060
VANMET_231 2018-04-19 15:05:00 231 11739.0   7.202 7.489 7.436 6.443   74.820   3.240 0.412 0.671 1.467 2.426 0.290 0.307 0.402 0.740 320.50 932.50 17.55 0.6430 77.35 88.70   7.630 7.747 6.995 7.609   4.250   6.944 7.390 6.103 7.330   1.644 1.1560       10.322 7.707 2.599
VANMET_231 2018-04-19 15:00:00 231 11739.0   7.935 8.120 7.988 7.245   68.760   2.603 0.412 0.671 1.466 2.426 0.290 0.307 0.402 0.740 319.60 933.00 17.55 0.8020 96.60 34.11   8.600 8.860 7.600 8.620   3.764   7.676 7.792 6.777 7.659   1.910 1.7640       10.718 7.366 3.348
VANMET_231 2018-04-19 14:55:00 231 11739.0   9.020 9.380 9.000 7.990   70.600   3.941 0.412 0.671 1.467 2.426 0.290 0.307 0.402 0.740 406.90 935.00 17.49 0.2720 81.50 59.03   9.330 9.670 8.340 9.210   4.913   8.670 8.910 7.608 8.670   3.172 1.3720       11.480 8.099 3.375
VANMET_231 2018-04-19 14:50:00 231 11739.0   8.960 9.110 8.770 7.477   72.190   4.040 0.412 0.671 1.467 2.426 0.290 0.307 0.402 0.740 546.90 935.50 17.55 0.7520 123.90 72.50   9.220 9.400 7.749 9.020   4.775   8.690 8.780 7.182 8.550   3.070 1.7380       11.303 8.155 3.143
VANMET_231 2018-04-19 14:45:00 231 11739.0   9.180 9.220 8.850 7.556   73.470   4.364 0.412 0.671 1.467 2.426 0.290 0.307 0.402 0.740 454.90 937.00 17.55 0.6020 205.20 63.05   9.230 9.270 7.970 8.960   5.151   9.100 9.160 7.216 8.770   3.708 1.3130       11.364 8.343 3.015
VANMET_231 2018-04-19 14:40:00 231 11739.0   8.950 9.060 8.760 7.407   73.980   4.379 0.412 0.671 1.467 2.426 0.290 0.307 0.402 0.740 502.20 937.50 17.62 0.8380 221.10 31.40   9.170 9.200 7.794 8.850   5.163   8.790 8.930 7.075 8.660   3.735 1.5220       11.295 8.352 2.939
VANMET_231 2018-04-19 14:35:00 231 11739.0   9.310 9.530 9.180 7.636   70.950   4.187 0.412 0.671 1.466 2.426 0.290 0.307 0.402 0.740 529.60 937.50 17.62 1.3050 218.80 17.32   9.610 9.990 7.771 9.620   4.914   8.830 9.070 7.505 8.850   3.564 2.0970       11.620 8.240 3.376
VANMET_231 2018-04-19 14:30:00 231 11739.0   10.060 10.390 9.800 7.714   71.130   4.824 0.411 0.671 1.466 2.426 0.290 0.307 0.402 0.740 561.20 938.00 17.59 0.7370 219.60 33.47   10.220 10.550 8.140 9.990   5.476   9.640 9.980 7.513 9.680   4.253 1.6860       12.115 8.616 3.498
VANMET_231 2018-04-19 14:25:00 231 11739.0   10.270 10.370 9.560 7.951   69.620   4.293 0.411 0.671 1.466 2.426 0.290 0.307 0.402 0.740 850.00 939.50 17.59 1.0570 214.80 24.49   10.870 10.880 8.280 10.050   5.160   9.500 9.760 7.246 8.910   3.733 1.6790       11.921 8.301 3.622
VANMET_231 2018-04-19 14:20:00 231 11739.0   8.610 9.010 8.440 6.871   71.360   3.565 0.411 0.670 1.466 2.425 0.290 0.307 0.402 0.740 597.10 941.50 17.59 0.2980 194.90 63.50   9.390 9.670 7.100 8.800   4.121   8.200 8.640 6.648 8.270   3.295 0.9410       11.053 7.887 3.165
VANMET_231 2018-04-19 14:15:00 231 11739.0   8.380 8.790 8.340 6.815   77.290   4.602 0.411 0.670 1.466 2.425 0.290 0.307 0.402 0.740 393.80 941.50 17.73 0.3920 258.00 68.56   8.580 8.850 6.948 8.400   4.999   8.150 8.700 6.679 8.310   3.718 0.6660       10.978 8.483 2.493
VANMET_231 2018-04-19 14:10:00 231 11739.0   8.690 8.940 8.290 6.793   75.850   4.288 0.411 0.670 1.465 2.425 0.290 0.307 0.402 0.740 403.00 941.50 17.76 0.5810 221.50 27.27   8.880 9.190 6.965 8.510   4.560   8.360 8.560 6.649 7.974   3.959 1.1830       10.941 8.299 2.642
VANMET_231 2018-04-19 14:05:00 231 11739.0   7.977 8.260 7.792 6.703   75.410   3.723 0.411 0.670 1.465 2.425 0.290 0.307 0.402 0.740 440.50 941.50 17.76 0.7790 207.30 29.98   8.280 8.510 6.970 7.934   4.265   7.797 8.110 6.237 7.644   3.349 1.2220       10.576 7.975 2.601
VANMET_231 2018-04-19 14:00:00 231 11739.0   7.496 7.997 7.598 6.312   74.700   3.400 0.411 0.670 1.465 2.425 0.290 0.307 0.402 0.740 388.10 941.50 17.78 0.4300 192.90 29.07   7.735 8.100 6.555 7.681   3.720   7.333 7.824 6.151 7.558   3.109 1.7120       10.437 7.795 2.641
VANMET_231 2018-04-19 13:55:00 231 11739.0   7.217 7.838 7.556 6.204   77.280   3.837 0.410 0.669 1.465 2.425 0.290 0.307 0.402 0.740 346.30 942.00 17.91 0.3650 218.30 17.94   7.384 7.917 6.359 7.654   4.336   6.997 7.626 6.040 7.321   3.204 0.7840       10.407 8.039 2.364
VANMET_231 2018-04-19 13:50:00 231 11739.0   6.735 7.381 7.114 6.087   80.500   3.979 0.411 0.669 1.464 2.425 0.290 0.307 0.402 0.740 303.50 942.00 17.91 0.4060 231.50 29.42   6.964 7.594 6.333 7.295   4.652   6.574 7.212 5.849 6.939   3.500 0.8100       10.097 8.120 1.969
VANMET_231 2018-04-19 13:45:00 231 11739.0   6.348 6.902 6.609 5.922   82.500   3.836 0.411 0.669 1.464 2.425 0.290 0.307 0.402 0.740 263.10 942.00 18.05 0.3320 295.70 17.46   6.563 7.209 6.024 6.905   4.512   6.107 6.636 5.697 6.377   2.770 0.5100       9.752 8.039 1.707
VANMET_231 2018-04-19 13:40:00 231 11739.0   5.974 6.498 6.322 5.611   79.760   3.083 0.411 0.669 1.464 2.425 0.290 0.307 0.402 0.740 250.50 941.50 18.05 0.7280 217.00 23.30   6.126 6.626 5.991 6.380   3.897   5.786 6.350 5.440 6.247   2.311 1.1830       9.561 7.622 1.935
VANMET_231 2018-04-19 13:35:00 231 11739.0   5.625 6.274 6.250 5.343   85.200   3.953 0.410 0.669 1.464 2.425 0.290 0.307 0.402 0.740 220.70 941.50 18.05 0.5340 267.90 27.09   5.766 6.341 5.568 6.316   4.353   5.530 6.231 5.142 6.140   2.956 2.0120       9.514 8.105 1.408
VANMET_231 2018-04-19 13:30:00 231 11739.0   5.504 6.148 6.114 5.415   85.300   3.825 0.410 0.669 1.464 2.424 0.290 0.307 0.402 0.740 193.10 941.50 18.05 0.1250 343.90 24.56   5.570 6.207 5.600 6.156   4.317   5.441 6.099 5.235 6.083   2.798 0.4120       9.425 8.033 1.385
VANMET_231 2018-04-19 13:25:00 231 11739.0   5.531 6.034 6.115 5.431   85.400   3.846 0.410 0.669 1.464 2.425 0.290 0.307 0.402 0.740 179.10 941.50 18.08 0.3410 174.80 70.82   5.639 6.094 5.613 6.236   4.293   5.444 5.991 5.211 6.077   3.554 0.6340       9.425 8.044 1.376
VANMET_231 2018-04-19 13:20:00 231 11739.0   5.460 5.948 6.214 5.418   86.000   4.056 0.410 0.669 1.464 2.425 0.290 0.307 0.402 0.740 146.10 940.00 18.15 0.0060 344.60 0.00   5.558 6.033 5.598 6.276   4.270   5.374 5.862 5.197 6.149   3.752 0.1240       9.490 8.164 1.329
VANMET_231 2018-04-19 13:15:00 231 11739.0   5.597 6.074 6.244 5.264   83.400   3.641 0.410 0.669 1.464 2.425 0.290 0.307 0.402 0.740 114.10 940.00 18.22 0.2490 317.70 45.05   5.792 6.229 5.345 6.283   4.132   5.375 5.875 5.170 6.150   2.858 0.4830       9.510 7.929 1.579
VANMET_231 2018-04-19 13:10:00 231 11739.0   6.152 6.488 6.556 5.840   77.400   2.886 0.410 0.669 1.464 2.425 0.290 0.307 0.402 0.740 94.40 938.50 18.28 0.4460 161.20 76.09   6.415 6.714 5.981 6.711   4.096   5.829 6.279 5.489 6.323   2.093 1.5290       9.717 7.516 2.196
VANMET_231 2018-04-19 13:05:00 231 11739.0   6.855 7.049 7.048 6.165   73.930   2.716 0.410 0.669 1.463 2.425 0.290 0.307 0.402 0.740 86.80 937.50 18.28 0.6630 246.40 65.27   7.350 7.507 6.414 7.406   3.262   6.442 6.731 6.022 6.728   2.270 1.2480       10.051 7.426 2.620
VANMET_231 2018-04-19 13:00:00 231 11739.0   8.230 8.390 8.190 6.579   71.140   3.270 0.410 0.669 1.464 2.425 0.290 0.307 0.402 0.740 142.30 937.50 18.18 0.7500 211.20 19.61   9.420 9.470 7.116 8.850   4.864   7.411 7.556 6.286 7.426   2.335 1.9860       10.867 7.724 3.136
VANMET_231 2018-04-19 12:55:00 231 11739.0   10.150 9.980 9.200 7.389   69.150   3.844 0.410 0.669 1.464 2.425 0.290 0.307 0.402 0.740 303.10 937.00 18.18 0.5540 192.80 47.97   10.570 10.220 7.572 9.420   3.973   9.590 9.590 7.097 8.920   3.681 1.1240       11.636 8.043 3.590
VANMET_231 2018-04-19 12:50:00 231 11739.0   10.520 10.310 9.500 7.668   66.810   3.645 0.410 0.669 1.463 2.425 0.290 0.307 0.402 0.740 672.90 938.50 18.18 0.8970 190.90 25.58   10.830 10.660 7.999 9.690   4.446   10.260 10.100 7.334 9.360   3.170 2.2210       11.873 7.931 3.941
VANMET_231 2018-04-19 12:45:00 231 11739.0   9.090 9.280 8.680 7.077   73.440   4.192 0.410 0.668 1.463 2.425 0.290 0.307 0.402 0.740 1074.00 941.00 18.10 1.1030 207.30 25.80   10.090 10.010 7.848 9.260   4.882   8.090 8.450 6.424 8.010   3.487 1.9140       11.234 8.243 2.984
VANMET_231 2018-04-19 12:40:00 231 11739.0   8.270 8.430 7.889 6.392   73.740   3.494 0.410 0.669 1.463 2.425 0.290 0.307 0.402 0.740 419.20 942.50 18.18 0.5140 220.80 13.55   8.520 8.590 6.452 7.975   4.170   8.030 8.300 6.292 7.693   2.798 1.1430       10.646 7.847 2.796
VANMET_231 2018-04-19 12:35:00 231 11739.0   8.030 8.090 7.547 6.081   75.210   3.438 0.410 0.669 1.463 2.425 0.290 0.307 0.402 0.740 330.10 941.50 18.28 0.2900 183.90 17.97   8.210 8.260 6.483 7.644   4.162   7.933 7.936 5.776 7.418   2.807 0.7320       10.401 7.816 2.578
VANMET_231 2018-04-19 12:30:00 231 11739.0   7.775 7.987 7.504 6.216   75.710   3.499 0.410 0.669 1.463 2.425 0.290 0.307 0.402 0.740 285.10 940.00 18.39 0.4650 167.40 51.34   7.957 8.170 6.343 7.695   3.982   7.656 7.893 5.881 7.392   2.960 0.8890       10.370 7.850 2.519
VANMET_231 2018-04-19 12:25:00 231 11739.0   8.230 8.350 7.779 6.435   72.540   3.159 0.410 0.669 1.462 2.425 0.290 0.307 0.402 0.740 313.60 940.00 18.39 0.3150 7.21 42.26   8.630 8.620 6.635 7.948   3.522   7.920 8.090 6.270 7.596   2.921 0.8690       10.567 7.663 2.902
VANMET_231 2018-04-19 12:20:00 231 11739.0   8.550 8.590 7.980 6.603   71.680   3.185 0.410 0.669 1.463 2.425 0.290 0.307 0.402 0.740 400.40 941.50 18.39 0.5510 183.50 48.38   8.990 8.980 6.746 8.130   3.771   8.400 8.440 6.472 7.882   2.780 1.2610       10.712 7.677 3.034
VANMET_231 2018-04-19 12:15:00 231 11739.0   8.700 8.830 8.000 6.177   74.830   3.812 0.410 0.669 1.463 2.425 0.290 0.307 0.402 0.740 614.70 943.00 18.70 0.8380 187.30 25.20   9.000 9.030 6.723 8.130   4.333   8.330 8.570 5.604 7.870   3.245 1.1960       10.727 8.025 2.700
VANMET_231 2018-04-19 12:10:00 231 11739.0   8.150 8.530 8.040 6.253   77.920   4.433 0.410 0.668 1.463 2.425 0.290 0.307 0.402 0.740 474.70 944.00 18.70 0.6470 189.70 30.97   8.440 8.700 6.643 8.240   4.782   7.964 8.410 5.820 7.834   3.984 1.1240       10.756 8.383 2.375
VANMET_231 2018-04-19 12:05:00 231 11739.0   8.730 8.860 8.400 6.648   76.500   4.511 0.410 0.668 1.463 2.425 0.290 0.307 0.402 0.740 487.20 945.50 18.70 0.6230 223.00 30.27   9.200 9.160 6.945 8.630   5.001   8.380 8.620 6.392 8.230   3.684 1.1890       11.023 8.429 2.590
VANMET_231 2018-04-19 12:00:00 231 11739.0   9.350 9.360 8.740 7.175   71.100   3.796 0.410 0.668 1.463 2.425 0.290 0.308 0.402 0.740 902.00 947.00 18.76 0.9770 229.30 24.90   9.870 9.770 7.388 8.990   4.337   8.970 9.070 6.929 8.400   3.364 1.9210       11.280 8.016 3.260
VANMET_231 2018-04-19 11:55:00 231 11739.0   8.110 8.180 7.491 6.307   74.140   3.190 0.410 0.668 1.462 2.425 0.290 0.308 0.402 0.740 820.00 950.50 18.58 0.4570 230.80 24.03   8.950 9.040 6.864 8.350   3.981   7.188 7.169 5.954 6.682   2.372 1.3520       10.361 7.680 2.679
VANMET_231 2018-04-19 11:50:00 231 11739.0   6.502 6.677 6.351 5.429   80.600   3.258 0.410 0.667 1.462 2.425 0.290 0.307 0.402 0.740 458.40 951.00 18.58 0.7950 211.70 15.86   7.072 7.056 5.869 6.613   4.200   6.041 6.423 5.124 6.244   2.267 1.6460       9.580 7.717 1.859
VANMET_231 2018-04-19 11:45:00 231 11739.0   6.149 6.492 6.350 5.266   84.900   4.003 0.409 0.668 1.462 2.425 0.290 0.307 0.402 0.740 252.00 952.50 18.58 0.5380 237.30 47.78   6.466 6.684 5.530 6.497   4.176   5.990 6.365 5.171 6.234   3.843 1.1430       9.580 8.134 1.447
VANMET_231 2018-04-19 11:40:00 231 11739.0   6.854 7.014 6.831 5.808   79.570   3.547 0.409 0.667 1.461 2.425 0.290 0.307 0.402 0.740 250.90 955.00 18.76 0.8770 234.60 28.17   7.403 7.567 6.318 7.281   4.107   6.499 6.697 5.449 6.514   2.913 1.7310       9.902 7.877 2.023
VANMET_231 2018-04-19 11:35:00 231 11739.0   7.829 7.809 7.424 6.473   77.240   3.694 0.410 0.668 1.462 2.425 0.290 0.308 0.402 0.740 631.60 956.00 18.76 1.3210 228.50 46.78   8.110 8.030 6.712 7.497   4.518   7.429 7.512 6.259 7.198   2.681 2.0780       10.313 7.959 2.347
VANMET_231 2018-04-19 11:30:00 231 11739.0   6.798 6.845 6.661 5.770   78.940   3.268 0.409 0.667 1.461 2.425 0.290 0.308 0.402 0.740 733.90 956.00 18.72 1.0100 224.90 18.17   7.406 7.422 6.327 7.082   4.119   6.600 6.578 5.483 6.458   2.206 1.3920       9.787 7.723 2.061
VANMET_231 2018-04-19 11:25:00 231 11739.0   7.339 7.341 6.816 5.603   75.780   2.844 0.409 0.667 1.461 2.424 0.290 0.308 0.402 0.740 305.60 956.00 18.90 0.7270 227.00 25.52   7.565 7.565 5.719 6.917   3.632   6.681 6.700 5.480 6.551   2.130 1.2350       9.892 7.494 2.396
VANMET_231 2018-04-19 11:20:00 231 11739.0   7.663 7.727 6.935 5.679   74.760   2.770 0.409 0.667 1.461 2.424 0.290 0.308 0.402 0.740 796.40 956.00 18.83 0.8720 138.60 28.65   7.940 7.942 5.944 7.000   3.300   7.454 7.557 5.424 6.734   2.389 1.5290       9.973 7.455 2.517
VANMET_231 2018-04-19 11:15:00 231 11739.0   7.403 7.451 6.575 5.416   76.120   2.668 0.409 0.667 1.461 2.424 0.290 0.308 0.402 0.740 921.00 956.00 18.83 0.7220 148.50 60.35   7.835 7.832 5.656 6.837   3.227   6.748 6.830 4.866 6.043   2.213 1.1170       9.729 7.401 2.323
VANMET_231 2018-04-19 11:10:00 231 11739.0   6.161 6.181 5.609 4.635   84.700   3.234 0.409 0.667 1.461 2.424 0.290 0.308 0.402 0.740 374.80 956.00 18.94 0.4310 197.60 23.03   6.703 6.741 4.914 5.970   3.405   5.744 5.871 4.416 5.444   2.980 0.7510       9.100 7.704 1.392
VANMET_231 2018-04-19 11:05:00 231 11739.0   6.035 6.138 5.658 4.529   84.900   3.320 0.409 0.666 1.460 2.424 0.291 0.308 0.402 0.740 313.40 956.00 19.03 0.7790 202.20 15.87   6.286 6.360 4.670 5.757   3.952   5.720 5.883 4.344 5.517   2.622 1.5030       9.131 7.751 1.379
VANMET_231 2018-04-19 11:00:00 231 11739.0   6.204 6.507 5.831 4.520   82.800   3.143 0.409 0.666 1.460 2.424 0.291 0.308 0.402 0.740 340.80 956.00 19.07 0.3420 197.90 22.80   6.368 6.724 4.690 5.970   3.446   5.974 6.238 4.421 5.574   2.779 0.9410       9.242 7.655 1.590
VANMET_231 2018-04-19 10:55:00 231 11739.0   5.544 5.825 5.286 4.404   81.400   2.367 0.408 0.666 1.460 2.423 0.291 0.308 0.402 0.740 290.90 956.00 19.11 0.1960 195.60 7.83   5.939 6.205 4.493 5.547   2.976   5.208 5.546 4.209 5.145   1.696 0.4570       8.898 7.244 1.655
VANMET_231 2018-04-19 10:50:00 231 11739.0   5.072 5.481 5.166 4.167   83.600   2.625 0.409 0.666 1.460 2.424 0.291 0.308 0.402 0.740 238.30 956.00 19.09 0.2960 321.80 57.79   5.216 5.599 4.308 5.255   3.391   5.003 5.379 4.058 5.082   2.116 0.9280       8.824 7.378 1.447
VANMET_231 2018-04-19 10:45:00 231 11739.0   5.114 5.498 5.363 4.169   87.000   3.381 0.409 0.666 1.460 2.424 0.291 0.308 0.402 0.740 241.90 956.00 19.09 0.3790 291.90 34.21   5.252 5.606 4.322 5.448   3.466   5.000 5.391 4.048 5.235   3.190 0.8490       8.946 7.785 1.163
VANMET_231 2018-04-19 10:40:00 231 11739.0   5.405 5.686 5.472 4.306   84.300   3.033 0.409 0.666 1.460 2.424 0.291 0.308 0.402 0.740 278.00 956.00 19.09 0.4340 284.50 64.15   5.744 6.009 4.529 5.620   3.420   5.204 5.520 4.139 5.424   1.799 1.5680       9.014 7.595 1.415
VANMET_231 2018-04-19 10:35:00 231 11739.0   6.253 6.503 5.837 4.518   79.230   2.518 0.409 0.666 1.460 2.424 0.291 0.308 0.402 0.740 253.60 956.00 19.18 0.5030 36.26 77.99   6.583 6.907 4.667 6.142   3.131   5.794 6.108 4.328 5.640   1.851 1.1630       9.246 7.322 1.920
VANMET_231 2018-04-19 10:30:00 231 11739.0   5.700 6.112 5.644 4.314   80.300   2.513 0.409 0.666 1.459 2.424 0.291 0.308 0.402 0.740 512.00 956.00 19.30 0.2640 23.63 63.26   6.560 6.918 4.496 6.165   3.515   5.148 5.604 4.103 5.269   1.755 1.1370       9.123 7.319 1.797
VANMET_231 2018-04-19 10:25:00 231 11739.0   5.197 5.512 5.184 4.263   86.100   3.053 0.408 0.666 1.459 2.424 0.291 0.308 0.402 0.740 285.00 956.00 19.30 0.1890 25.75 38.40   5.411 5.709 4.398 5.325   3.498   5.011 5.340 4.087 5.073   2.446 0.7510       8.835 7.606 1.228
VANMET_231 2018-04-19 10:20:00 231 11739.0   5.787 5.939 5.432 4.469   80.000   2.262 0.408 0.666 1.460 2.424 0.291 0.308 0.402 0.740 262.20 956.00 19.30 0.1720 91.90 51.80   5.919 6.082 4.600 5.566   2.612   5.421 5.607 4.342 5.273   1.873 0.7250       8.989 7.190 1.798
VANMET_231 2018-04-19 10:15:00 231 11739.0   5.630 5.886 5.506 4.417   80.000   2.340 0.409 0.666 1.460 2.425 0.291 0.308 0.402 0.740 355.70 956.00 19.43 0.5580 217.60 19.96   5.814 5.999 4.602 5.553   2.868   5.470 5.819 4.285 5.477   1.585 1.0780       9.036 7.230 1.807
VANMET_231 2018-04-19 10:10:00 231 11739.0   5.608 5.899 5.677 4.341   76.470   1.862 0.409 0.666 1.460 2.424 0.291 0.308 0.403 0.740 363.20 956.00 19.30 0.4730 155.50 69.95   5.989 6.222 4.475 6.183   3.122   5.470 5.765 4.288 5.391   1.021 1.1240       9.144 6.987 2.151
VANMET_231 2018-04-19 10:05:00 231 11739.0   6.821 6.860 6.601 5.238   78.330   3.101 0.409 0.667 1.460 2.424 0.291 0.308 0.403 0.740 444.40 956.00 19.50 0.6430 265.70 40.18   7.187 7.217 5.718 6.931   4.163   6.102 6.332 4.564 6.236   2.611 1.2610       9.747 7.632 2.112
VANMET_231 2018-04-19 10:00:00 231 11739.0   7.529 7.444 7.159 5.886   78.980   3.761 0.409 0.667 1.460 2.425 0.291 0.308 0.403 0.740 805.00 956.00 19.16 1.3760 222.60 18.20   7.750 7.652 6.056 7.297   4.343   7.077 7.066 5.655 6.875   2.801 2.4170       10.128 7.996 2.129
VANMET_231 2018-04-19 09:55:00 231 11739.0   7.678 7.567 6.987 5.586   79.710   3.725 0.409 0.667 1.460 2.424 0.291 0.308 0.403 0.740 872.00 956.00 19.16 1.1410 225.70 26.13   7.958 7.748 5.727 7.172   4.591   6.998 7.023 5.301 6.431   3.066 1.7440       10.009 7.976 2.031
VANMET_231 2018-04-19 09:50:00 231 11739.0   7.169 7.115 6.672 5.332   79.030   3.298 0.409 0.666 1.460 2.425 0.291 0.308 0.403 0.740 938.00 955.50 19.50 0.8630 166.20 78.88   7.487 7.293 5.516 6.877   3.964   6.738 6.778 5.095 6.285   2.774 1.7770       9.795 7.739 2.054
VANMET_231 2018-04-19 09:45:00 231 11739.0   7.107 6.875 6.502 5.172   76.250   2.625 0.408 0.666 1.460 2.425 0.291 0.308 0.403 0.740 979.00 955.00 19.50 1.2730 215.40 21.32   7.325 7.094 5.403 6.701   3.226   6.752 6.574 4.922 6.247   1.743 1.8690       9.681 7.378 2.299
VANMET_231 2018-04-19 09:40:00 231 11739.0   7.377 7.161 6.624 5.027   79.990   3.414 0.409 0.666 1.460 2.424 0.291 0.308 0.403 0.740 718.60 955.00 19.50 1.2330 220.80 13.57   8.110 7.819 5.230 6.846   4.009   6.763 6.564 4.898 6.274   2.295 1.8490       9.762 7.803 1.953
VANMET_231 2018-04-19 09:35:00 231 11739.0   7.839 7.423 6.469 4.731   81.400   3.496 0.408 0.665 1.459 2.424 0.291 0.308 0.403 0.740 862.00 955.00 19.30 0.7490 194.10 22.74   8.410 7.876 5.057 6.697   4.237   7.195 6.966 4.520 6.099   2.243 1.2410       9.659 7.848 1.796
VANMET_231 2018-04-19 09:30:00 231 11739.0   6.943 6.629 6.082 4.663   85.400   3.822 0.408 0.666 1.459 2.424 0.291 0.308 0.403 0.740 736.50 955.00 19.24 0.9070 206.00 49.86   7.163 6.891 4.875 6.219   4.255   6.518 6.185 4.345 5.765   3.077 1.5750       9.404 8.031 1.373
VANMET_231 2018-04-19 09:25:00 231 11739.0   5.912 5.755 5.561 4.525   84.300   3.119 0.409 0.665 1.459 2.424 0.291 0.308 0.403 0.740 743.60 955.50 18.72 1.3420 229.60 22.46   6.342 6.069 4.814 5.862   4.073   5.700 5.517 4.320 5.426   1.998 2.1490       9.070 7.642 1.424
VANMET_231 2018-04-19 09:20:00 231 11739.0   6.831 6.604 5.980 4.422   82.600   3.254 0.408 0.665 1.459 2.424 0.291 0.308 0.403 0.740 640.50 955.50 18.72 0.8500 178.30 53.27   7.340 7.091 4.588 6.328   3.562   6.360 6.204 4.171 5.750   2.769 1.5750       9.338 7.715 1.625
VANMET_231 2018-04-19 09:15:00 231 11739.0   6.361 6.127 5.576 4.059   83.400   2.986 0.408 0.666 1.459 2.424 0.291 0.308 0.403 0.741 645.80 955.00 18.44 0.6830 182.00 63.29   6.532 6.205 4.478 5.774   3.336   6.260 6.016 3.704 5.372   2.636 1.2610       9.080 7.570 1.507
VANMET_231 2018-04-19 09:10:00 231 11739.0   6.676 6.351 5.937 4.133   82.400   3.164 0.409 0.666 1.459 2.425 0.291 0.308 0.403 0.740 553.60 955.00 18.21 0.8480 187.70 25.07   6.962 6.627 4.330 6.177   3.672   6.292 6.032 3.777 5.535   2.683 1.2940       9.310 7.666 1.639
VANMET_231 2018-04-19 09:05:00 231 11739.0   6.873 6.505 5.940 4.067   81.700   3.041 0.408 0.666 1.459 2.425 0.291 0.308 0.403 0.740 648.60 955.00 18.21 0.9330 191.50 30.98   7.393 6.866 4.366 6.069   3.560   6.288 5.995 3.789 5.722   2.504 1.8820       9.312 7.599 1.704
VANMET_231 2018-04-19 09:00:00 231 11739.0   6.840 6.674 6.142 4.196   83.900   3.632 0.409 0.666 1.459 2.425 0.291 0.308 0.403 0.740 634.50 955.00 18.69 0.6450 195.40 28.06   7.207 7.122 4.415 6.356   4.090   6.558 6.377 3.759 5.938   3.119 1.3590       9.443 7.924 1.520
VANMET_231 2018-04-19 08:55:00 231 11739.0   6.864 6.720 6.156 4.227   81.100   3.160 0.409 0.666 1.460 2.425 0.291 0.308 0.403 0.740 635.80 956.50 18.69 0.6580 184.80 55.77   7.067 6.961 4.533 6.284   3.560   6.711 6.498 3.919 5.988   2.638 1.5220       9.452 7.664 1.786
VANMET_231 2018-04-19 08:50:00 231 11739.0   6.707 6.806 5.950 4.337   75.610   1.974 0.409 0.666 1.460 2.425 0.291 0.308 0.403 0.740 628.00 958.50 18.69 0.5200 111.30 70.75   7.056 6.985 4.689 6.248   2.718   6.344 6.599 4.013 5.816   1.264 1.2020       9.318 7.043 2.273
VANMET_231 2018-04-19 08:45:00 231 11739.0   6.248 6.257 5.495 3.812   82.400   2.732 0.409 0.666 1.459 2.426 0.291 0.308 0.403 0.740 504.20 959.00 19.24 0.1500 215.60 28.19   6.684 6.892 3.955 5.973   3.157   5.798 5.678 3.659 5.166   2.182 1.0910       9.029 7.434 1.589
VANMET_231 2018-04-19 08:40:00 231 11739.0   5.559 5.546 5.213 3.553   84.300   2.786 0.409 0.667 1.460 2.426 0.291 0.308 0.403 0.741 592.30 959.50 19.69 0.6970 211.70 20.13   5.834 5.812 3.671 5.348   3.030   5.369 5.302 3.454 5.078   2.597 1.6010       8.853 7.463 1.390
VANMET_231 2018-04-19 08:35:00 231 11739.0   6.174 5.987 5.433 3.541   85.100   3.138 0.409 0.667 1.460 2.426 0.291 0.308 0.403 0.740 573.90 959.50 20.14 0.7640 211.20 29.87   6.467 6.323 3.741 5.608   3.591   5.939 5.724 3.287 5.279   2.749 1.4900       8.990 7.652 1.339
VANMET_231 2018-04-19 08:30:00 231 11739.0   6.028 6.096 5.656 3.495   82.200   2.857 0.409 0.667 1.460 2.426 0.291 0.308 0.403 0.740 555.20 959.50 20.64 0.7400 209.20 20.81   6.584 7.000 3.680 6.258   3.459   5.723 5.687 3.289 5.340   2.528 1.1630       9.130 7.501 1.625
VANMET_231 2018-04-19 08:25:00 231 11739.0   6.679 7.186 6.286 3.570   80.800   3.233 0.409 0.667 1.460 2.425 0.291 0.308 0.403 0.740 539.90 960.00 20.98 0.5840 211.10 41.23   6.978 7.500 3.718 6.429   3.640   6.348 6.911 3.415 6.156   2.499 1.2220       9.537 7.704 1.831
VANMET_231 2018-04-19 08:20:00 231 11739.0   6.563 6.688 5.778 3.712   81.800   2.921 0.409 0.667 1.460 2.426 0.291 0.308 0.403 0.740 523.40 960.00 21.22 0.1640 246.70 41.63   6.769 7.051 3.896 6.160   3.453   6.241 6.308 3.584 5.360   2.313 0.4440       9.208 7.535 1.676
VANMET_231 2018-04-19 08:15:00 231 11739.0   5.742 6.004 5.299 3.477   81.600   2.406 0.409 0.666 1.460 2.426 0.291 0.308 0.403 0.740 511.90 960.00 21.42 0.3030 187.60 52.05   6.139 6.269 3.770 5.434   3.140   5.537 5.818 3.255 5.224   1.679 0.8560       8.906 7.264 1.639
VANMET_231 2018-04-19 08:10:00 231 11739.0   5.572 6.039 5.100 3.505   82.500   2.371 0.409 0.666 1.459 2.426 0.291 0.308 0.403 0.740 497.50 961.00 21.61 0.1880 218.00 56.84   5.728 6.328 3.681 5.354   3.009   5.406 5.902 3.216 4.953   1.640 0.8040       8.784 7.246 1.537
VANMET_231 2018-04-19 08:05:00 231 11739.0   5.221 5.665 4.768 3.129   86.000   2.625 0.409 0.666 1.459 2.425 0.291 0.308 0.403 0.740 481.80 962.50 21.91 0.4000 204.20 65.66   5.388 5.920 3.328 4.930   2.963   4.994 5.252 2.898 4.605   2.244 0.9080       8.582 7.378 1.202
VANMET_231 2018-04-19 08:00:00 231 11739.0   4.608 4.988 4.381 2.988   87.100   2.428 0.408 0.665 1.458 2.425 0.291 0.308 0.403 0.740 465.90 963.50 22.14 0.5310 225.70 19.85   5.005 5.344 3.143 4.618   2.794   4.199 4.778 2.866 4.273   1.972 0.9340       8.353 7.275 1.078
VANMET_231 2018-04-19 07:55:00 231 11739.0   3.791 4.775 4.322 2.780   88.700   2.629 0.408 0.665 1.458 2.425 0.291 0.308 0.403 0.740 449.70 964.50 22.23 0.3940 244.90 27.75   4.194 4.975 3.092 4.420   3.159   3.498 4.621 2.485 4.157   2.345 1.1170       8.318 7.380 0.940
VANMET_231 2018-04-19 07:50:00 231 11739.0   3.009 4.186 4.234 2.529   90.500   2.823 0.408 0.665 1.458 2.425 0.291 0.308 0.403 0.740 432.90 966.50 22.23 0.4980 218.70 9.52   3.461 4.683 2.602 4.387   3.243   2.626 3.778 2.409 3.972   2.655 0.8890       8.267 7.483 0.785
VANMET_231 2018-04-19 07:45:00 231 11739.0   2.622 3.643 3.787 2.320   92.800   2.730 0.408 0.665 1.458 2.425 0.291 0.308 0.403 0.740 416.20 968.50 22.18 0.1370 185.30 28.67   2.718 3.704 2.603 3.952   3.183   2.519 3.552 2.001 3.580   2.381 0.5750       8.011 7.433 0.577
VANMET_231 2018-04-19 07:40:00 231 11739.0   2.623 3.535 3.302 2.187   95.800   2.701 0.408 0.664 1.457 2.424 0.291 0.308 0.403 0.741 400.90 969.50 22.12 0.0400 163.90 16.57   2.711 3.609 2.327 3.540   3.003   2.539 3.462 2.075 3.122   2.475 0.3990       7.741 7.418 0.325
VANMET_231 2018-04-19 07:35:00 231 11739.0   2.528 3.446 2.841 2.067   97.900   2.545 0.409 0.664 1.458 2.425 0.291 0.308 0.403 0.741 371.40 970.50 22.12 0.1100 185.10 33.08   2.661 3.554 2.245 3.089   2.662   2.318 3.271 1.635 2.567   2.300 0.4640       7.492 7.336 0.157
VANMET_231 2018-04-19 07:30:00 231 11739.0   2.157 2.953 2.297 1.851   99.200   2.191 0.409 0.665 1.458 2.426 0.291 0.308 0.403 0.741 252.70 971.50 22.12 0.1880 222.20 6.62   2.535 3.421 2.125 2.610   2.436   1.932 2.694 1.457 2.118   2.051 0.5750       7.208 7.153 0.058
VANMET_231 2018-04-19 07:25:00 231 11739.0   1.588 2.396 1.880 1.598   100.000   1.882 0.409 0.665 1.458 2.426 0.291 0.308 0.403 0.741 84.00 972.00 22.12 0.3740 214.50 10.17   1.990 2.698 1.767 2.111   2.113   1.200 1.961 1.452 1.639   1.641 0.8170       6.996 6.997 0.000
VANMET_231 2018-04-19 07:20:00 231 11739.0   1.033 1.558 1.502 1.183   100.000   1.503 0.409 0.665 1.458 2.426 0.291 0.308 0.403 0.741 58.99 972.00 22.01 0.3030 226.10 12.01   1.157 1.904 1.390 1.626   1.627   0.949 1.345 1.051 1.304   1.305 0.6530       6.809 6.809 0.000
VANMET_231 2018-04-19 07:15:00 231 11739.0   0.865 1.235 1.134 1.257   100.000   1.134 0.408 0.665 1.458 2.426 0.291 0.308 0.403 0.741 60.74 972.50 21.87 0.1140 86.90 4.98   1.010 1.385 1.574 1.294   1.295   0.752 1.130 0.947 1.061   1.062 0.5620       6.631 6.631 0.000
VANMET_231 2018-04-19 07:10:00 231 11739.0   0.633 0.976 0.841 1.122   100.000   0.841 0.408 0.665 1.458 2.426 0.291 0.308 0.403 0.741 64.04 973.50 21.69 0.5120 40.51 64.90   0.960 1.238 1.617 1.071   1.072   0.420 0.773 0.880 0.676   0.676 1.5290       6.492 6.492 0.000
VANMET_231 2018-04-19 07:05:00 231 11739.0   0.360 0.657 0.551 0.617   100.000   0.551 0.408 0.665 1.458 2.426 0.291 0.308 0.403 0.741 70.35 974.00 21.68 0.2980 65.00 6.66   0.397 0.739 0.795 0.659   0.660   0.323 0.601 0.492 0.453   0.453 0.8300       6.357 6.357 0.000
VANMET_231 2018-04-19 07:00:00 231 11739.0   0.252 0.505 0.304 0.445   100.000   0.304 0.408 0.665 1.458 2.426 0.291 0.308 0.403 0.741 123.60 974.00 21.68 0.3140 56.85 32.14   0.348 0.638 0.727 0.436   0.436   0.189 0.414 0.244 0.233   0.234 0.7320       6.244 6.244 0.000
VANMET_231 2018-04-19 06:55:00 231 11739.0   0.192 0.384 0.213 0.242   100.000   0.213 0.408 0.665 1.458 2.426 0.291 0.308 0.403 0.741 159.10 974.00 21.68 0.2310 24.12 15.54   0.214 0.417 0.400 0.250   0.250   0.176 0.364 0.180 0.187   0.187 0.6010       6.203 6.203 0.000
VANMET_231 2018-04-19 06:50:00 231 11739.0   0.199 0.398 0.227 0.259   100.000   0.228 0.408 0.664 1.458 2.426 0.291 0.308 0.403 0.741 89.70 974.00 21.60 0.3970 27.72 18.18   0.213 0.411 0.288 0.253   0.254   0.190 0.386 0.232 0.207   0.207 0.6470       6.209 6.210 0.000
VANMET_231 2018-04-19 06:45:00 231 11739.0   0.203 0.418 0.231 0.281   100.000   0.231 0.408 0.664 1.458 2.426 0.291 0.308 0.403 0.741 68.37 974.00 21.49 0.5270 20.99 30.30   0.226 0.454 0.371 0.254   0.254   0.192 0.402 0.236 0.204   0.204 1.0650       6.211 6.211 0.000
VANMET_231 2018-04-19 06:40:00 231 11739.0   0.182 0.378 0.186 0.246   100.000   0.186 0.408 0.664 1.458 2.426 0.291 0.308 0.403 0.741 74.15 974.00 21.34 0.4880 348.80 5.16   0.193 0.406 0.296 0.217   0.217   0.169 0.353 0.220 0.154   0.154 0.6730       6.191 6.191 0.000
VANMET_231 2018-04-19 06:35:00 231 11739.0   0.166 0.345 0.150 0.240   100.000   0.150 0.408 0.665 1.458 2.426 0.291 0.308 0.403 0.741 70.87 974.00 21.28 0.3130 354.40 13.81   0.174 0.352 0.297 0.167   0.167   0.152 0.330 0.217 0.118   0.118 0.5750       6.175 6.175 0.000
VANMET_231 2018-04-19 06:30:00 231 11739.0   0.130 0.313 0.105 0.226   100.000   0.105 0.408 0.664 1.457 2.425 0.291 0.308 0.403 0.741 64.35 974.00 21.25 0.3530 349.70 7.96   0.151 0.327 0.274 0.144   0.144   0.100 0.283 0.202 0.061   0.061 0.7250       6.155 6.155 0.000
VANMET_231 2018-04-19 06:25:00 231 11739.0   0.077 0.244 0.029 0.175   100.000   0.029 0.408 0.664 1.458 2.426 0.291 0.308 0.403 0.741 63.23 974.00 21.24 0.4580 3.26 15.87   0.099 0.274 0.202 0.065   0.065   0.053 0.215 0.145 -0.015   -0.015 0.7060       6.121 6.121 -0.000
VANMET_231 2018-04-19 06:20:00 231 11739.0   0.015 0.179 -0.037 0.131   100.000   -0.037 0.409 0.664 1.457 2.426 0.291 0.308 0.403 0.742 63.96 974.00 21.24 0.4530 1.37 10.85   0.047 0.211 0.153 0.005   0.005   -0.026 0.139 0.099 -0.085   -0.085 0.6140       6.091 6.091 0.000
VANMET_231 2018-04-19 06:15:00 231 11739.0   -0.061 0.107 -0.094 0.063   100.000   -0.094 0.408 0.664 1.457 2.426 0.291 0.308 0.403 0.742 50.84 974.00 21.24 0.5210 12.24 11.65   -0.030 0.136 0.102 -0.069   -0.069   -0.092 0.082 0.032 -0.115   -0.115 0.9150       6.066 6.066 -0.000
VANMET_231 2018-04-19 06:10:00 231 11739.0   -0.106 0.069 -0.125 0.031   100.000   -0.125 0.408 0.664 1.457 2.425 0.291 0.308 0.403 0.742 38.30 974.50 21.24 0.5740 3.21 11.42   -0.094 0.082 0.082 -0.098   -0.098   -0.113 0.059 0.008 -0.148   -0.149 0.7770       6.052 6.052 -0.000
VANMET_231 2018-04-19 06:05:00 231 11739.0   -0.106 0.076 -0.108 0.014   100.000   -0.108 0.408 0.663 1.456 2.426 0.291 0.308 0.403 0.742 30.26 975.00 21.24 0.5870 8.22 9.42   -0.089 0.098 0.046 -0.082   -0.082   -0.119 0.057 -0.009 -0.135   -0.135 0.7320       6.060 6.060 -0.000
VANMET_231 2018-04-19 06:00:00 231 11739.0   -0.036 0.150 -0.029 0.092   100.000   -0.030 0.408 0.663 1.457 2.425 0.291 0.308 0.404 0.742 27.45 975.00 21.24 0.5530 10.45 18.07   0.041 0.210 0.194 0.008   0.008   -0.088 0.098 0.025 -0.081   -0.082 0.7640       6.095 6.094 0.000
VANMET_231 2018-04-19 05:55:00 231 11739.0   -0.011 0.195 0.032 0.159   100.000   0.032 0.408 0.663 1.456 2.425 0.291 0.308 0.404 0.742 22.90 975.00 21.24 0.5020 14.43 32.07   0.074 0.287 0.383 0.091   0.091   -0.080 0.116 0.032 -0.048   -0.048 1.0850       6.122 6.122 0.000
VANMET_231 2018-04-19 05:50:00 231 11739.0   -0.035 0.165 -0.032 0.268   100.000   -0.033 0.408 0.663 1.457 2.425 0.291 0.308 0.404 0.742 18.49 975.00 21.24 0.9440 23.01 33.98   0.080 0.289 0.425 0.068   0.068   -0.131 0.057 0.084 -0.155   -0.155 1.9800       6.094 6.093 -0.000
VANMET_231 2018-04-19 05:45:00 231 11739.0   -0.122 0.062 -0.117 0.063   100.000   -0.117 0.408 0.663 1.457 2.426 0.291 0.308 0.404 0.742 18.80 975.50 21.43 0.5530 22.42 32.70   -0.104 0.079 0.139 -0.092   -0.092   -0.137 0.047 0.023 -0.131   -0.131 0.9210       6.056 6.056 0.000
VANMET_231 2018-04-19 05:40:00 231 11739.0   -0.089 0.113 -0.053 0.127   100.000   -0.053 0.408 0.663 1.456 2.425 0.291 0.308 0.404 0.742 14.30 975.50 21.80 0.6100 15.88 24.56   -0.048 0.160 0.259 -0.012   -0.012   -0.119 0.074 0.052 -0.098   -0.098 1.1040       6.084 6.084 0.000
VANMET_231 2018-04-19 05:35:00 231 11739.0   -0.081 0.131 -0.067 0.266   100.000   -0.067 0.408 0.663 1.456 2.425 0.291 0.308 0.404 0.742 10.05 976.50 21.95 0.6750 17.52 36.77   -0.029 0.184 0.462 -0.012   -0.012   -0.187 0.019 0.065 -0.155   -0.155 1.5550       6.078 6.078 0.000
VANMET_231 2018-04-19 05:30:00 231 11739.0   -0.172 0.027 -0.151 0.158   100.000   -0.151 0.407 0.663 1.456 2.425 0.291 0.308 0.404 0.742 6.41 977.00 22.04 0.6730 30.96 34.64   -0.150 0.045 0.370 -0.132   -0.132   -0.192 0.007 0.075 -0.175   -0.175 1.6530       6.041 6.041 0.000
VANMET_231 2018-04-19 05:25:00 231 11739.0   -0.260 -0.079 -0.270 0.079   100.000   -0.271 0.407 0.663 1.455 2.425 0.291 0.308 0.404 0.742 3.99 977.50 22.14 0.6180 50.66 24.69   -0.157 0.031 0.398 -0.178   -0.178   -0.322 -0.149 -0.082 -0.331   -0.331 1.9140       5.989 5.988 0.000
VANMET_231 2018-04-19 05:20:00 231 11739.0   -0.308 -0.114 -0.258 -0.059   100.000   -0.258 0.407 0.663 1.455 2.425 0.291 0.308 0.404 0.742 1.43 977.50 22.16 0.3630 11.90 29.23   -0.278 -0.070 0.005 -0.221   -0.222   -0.321 -0.140 -0.099 -0.305   -0.305 0.7710       5.994 5.994 0.000
VANMET_231 2018-04-19 05:15:00 231 11739.0   -0.294 -0.082 -0.274 0.071   100.000   -0.274 0.407 0.663 1.456 2.425 0.291 0.308 0.404 0.742 0.03 978.00 22.20 0.6420 27.50 44.87   -0.245 -0.037 0.211 -0.205   -0.205   -0.352 -0.136 -0.117 -0.321   -0.322 1.3520       5.987 5.987 0.000
VANMET_231 2018-04-19 05:10:00 231 11739.0   -0.302 -0.078 -0.288 0.015   100.000   -0.288 0.407 0.663 1.455 2.425 0.291 0.308 0.404 0.742 0.00 978.00 22.37 0.4740 15.34 35.84   -0.236 0.000 0.237 -0.242   -0.242   -0.347 -0.145 -0.099 -0.338   -0.339 1.8550       5.981 5.981 0.000
VANMET_231 2018-04-19 05:05:00 231 11739.0   -0.395 -0.172 -0.341 -0.088   100.000   -0.341 0.407 0.663 1.455 2.426 0.291 0.308 0.404 0.742 0.00 978.50 22.50 0.6100 24.05 37.08   -0.314 -0.101 0.115 -0.318   -0.319   -0.423 -0.200 -0.171 -0.362   -0.362 1.2940       5.958 5.958 0.000
VANMET_231 2018-04-19 05:00:00 231 11739.0   -0.335 -0.097 -0.273 -0.024   100.000   -0.273 0.407 0.663 1.455 2.425 0.291 0.308 0.404 0.742 0.00 978.50 22.52 0.5530 2.76 28.34   -0.293 -0.026 0.148 -0.222   -0.222   -0.390 -0.169 -0.136 -0.332   -0.332 1.1760       5.988 5.988 0.000
VANMET_231 2018-04-19 04:55:00 231 11739.0   -0.353 -0.098 -0.313 0.081   100.000   -0.313 0.407 0.662 1.455 2.425 0.291 0.308 0.404 0.742 0.00 979.00 22.52 0.7980 11.66 51.73   -0.267 0.006 0.322 -0.226   -0.226   -0.418 -0.183 -0.106 -0.362   -0.362 1.4830       5.970 5.970 -0.000
VANMET_231 2018-04-19 04:50:00 231 11739.0   -0.405 -0.182 -0.380 -0.079   100.000   -0.380 0.407 0.662 1.455 2.425 0.291 0.308 0.404 0.742 0.00 979.00 22.52 0.7540 24.15 35.91   -0.358 -0.133 0.073 -0.345   -0.345   -0.434 -0.225 -0.187 -0.415   -0.415 1.7310       5.941 5.941 0.000
VANMET_231 2018-04-19 04:45:00 231 11739.0   -0.467 -0.276 -0.499 -0.170   100.000   -0.499 0.407 0.662 1.455 2.425 0.291 0.308 0.404 0.742 0.00 978.50 22.52 0.3930 29.86 24.88   -0.362 -0.144 0.081 -0.392   -0.392   -0.504 -0.322 -0.260 -0.545   -0.545 0.7910       5.890 5.890 0.000
VANMET_231 2018-04-19 04:40:00 231 11739.0   -0.484 -0.319 -0.510 -0.250   100.000   -0.510 0.407 0.662 1.454 2.425 0.291 0.308 0.404 0.742 0.00 979.00 22.52 0.4570 349.30 22.31   -0.457 -0.291 -0.215 -0.478   -0.479   -0.505 -0.335 -0.271 -0.535   -0.535 0.8100       5.885 5.885 0.000
VANMET_231 2018-04-19 04:35:00 231 11739.0   -0.419 -0.235 -0.424 -0.184   100.000   -0.424 0.406 0.662 1.454 2.425 0.291 0.308 0.404 0.742 0.00 979.00 22.52 0.5220 2.72 29.37   -0.368 -0.166 -0.080 -0.379   -0.379   -0.457 -0.287 -0.229 -0.478   -0.479 0.8890       5.922 5.922 0.000
VANMET_231 2018-04-19 04:30:00 231 11739.0   -0.396 -0.215 -0.454 -0.072   100.000   -0.454 0.407 0.662 1.454 2.425 0.292 0.308 0.404 0.742 0.00 979.00 22.39 0.8260 24.55 39.80   -0.339 -0.124 0.100 -0.356   -0.356   -0.483 -0.343 -0.281 -0.572   -0.572 2.2610       5.909 5.909 0.000
VANMET_231 2018-04-19 04:25:00 231 11739.0   -0.488 -0.351 -0.576 -0.261   100.000   -0.576 0.406 0.662 1.454 2.424 0.292 0.308 0.404 0.742 0.00 979.00 22.19 0.6480 349.10 14.87   -0.477 -0.337 -0.239 -0.555   -0.556   -0.520 -0.388 -0.278 -0.589   -0.589 1.0850       5.856 5.856 0.000
VANMET_231 2018-04-19 04:20:00 231 11739.0   -0.489 -0.363 -0.561 -0.287   100.000   -0.561 0.406 0.661 1.453 2.425 0.292 0.308 0.404 0.742 0.00 979.00 21.88 0.4940 357.60 7.07   -0.465 -0.345 -0.264 -0.529   -0.529   -0.525 -0.391 -0.300 -0.595   -0.596 0.7710       5.863 5.863 -0.000
VANMET_231 2018-04-19 04:15:00 231 11739.0   -0.433 -0.305 -0.514 -0.244   100.000   -0.514 0.406 0.661 1.453 2.425 0.292 0.308 0.404 0.742 0.00 979.00 21.33 0.6100 355.10 13.62   -0.404 -0.274 -0.213 -0.475   -0.476   -0.465 -0.344 -0.268 -0.545   -0.546 0.7970       5.883 5.883 0.000
VANMET_231 2018-04-19 04:10:00 231 11739.0   -0.384 -0.252 -0.460 -0.199   100.000   -0.460 0.407 0.662 1.454 2.425 0.292 0.308 0.404 0.742 0.00 979.00 20.84 0.5600 359.00 21.92   -0.363 -0.229 -0.172 -0.425   -0.426   -0.406 -0.278 -0.221 -0.499   -0.499 0.7910       5.906 5.906 -0.000
VANMET_231 2018-04-19 04:05:00 231 11739.0   -0.319 -0.178 -0.385 -0.129   100.000   -0.385 0.406 0.661 1.453 2.425 0.292 0.308 0.404 0.742 0.00 979.00 20.84 0.5170 355.60 14.58   -0.278 -0.133 -0.069 -0.345   -0.346   -0.360 -0.231 -0.165 -0.428   -0.429 1.0390       5.939 5.939 0.000
VANMET_231 2018-04-19 04:00:00 231 11739.0   -0.261 -0.113 -0.332 -0.059   100.000   -0.332 0.406 0.661 1.454 2.425 0.292 0.308 0.404 0.742 0.00 979.50 20.76 0.5410 342.90 32.15   -0.239 -0.086 -0.027 -0.299   -0.299   -0.279 -0.134 -0.076 -0.362   -0.362 1.0130       5.962 5.962 0.000
VANMET_231 2018-04-19 03:55:00 231 11739.0   -0.181 -0.028 -0.248 -0.004   100.000   -0.248 0.406 0.661 1.453 2.425 0.292 0.308 0.404 0.742 0.00 979.50 20.57 0.6270 6.38 6.84   -0.126 0.030 0.056 -0.196   -0.196   -0.241 -0.082 -0.046 -0.306   -0.306 1.1040       5.998 5.998 0.000
VANMET_231 2018-04-19 03:50:00 231 11739.0   -0.070 0.086 -0.158 0.110   100.000   -0.159 0.406 0.661 1.453 2.424 0.292 0.308 0.404 0.743 0.00 980.00 20.44 0.5680 9.62 7.50   -0.025 0.131 0.168 -0.123   -0.123   -0.119 0.037 0.058 -0.193   -0.193 0.7710       6.038 6.037 0.000
VANMET_231 2018-04-19 03:45:00 231 11739.0   -0.016 0.144 -0.115 0.189   100.000   -0.115 0.406 0.661 1.453 2.424 0.292 0.308 0.404 0.742 0.00 980.00 20.40 0.4650 5.47 10.63   -0.010 0.153 0.217 -0.090   -0.090   -0.024 0.133 0.172 -0.136   -0.136 0.6860       6.057 6.057 0.000
VANMET_231 2018-04-19 03:40:00 231 11739.0   0.001 0.159 -0.091 0.205   100.000   -0.092 0.406 0.661 1.453 2.424 0.292 0.308 0.404 0.743 0.00 980.00 20.38 0.4470 340.60 18.20   0.010 0.164 0.225 -0.076   -0.076   -0.010 0.153 0.183 -0.110   -0.110 0.5420       6.067 6.067 0.000
VANMET_231 2018-04-19 03:35:00 231 11739.0   0.013 0.171 -0.080 0.218   100.000   -0.080 0.405 0.660 1.453 2.424 0.292 0.308 0.404 0.743 0.00 980.00 20.36 0.4830 15.65 37.51   0.020 0.176 0.239 -0.066   -0.066   0.007 0.163 0.190 -0.100   -0.100 0.6400       6.072 6.072 0.000
VANMET_231 2018-04-19 03:30:00 231 11739.0   -0.004 0.159 -0.104 0.216   100.000   -0.104 0.406 0.660 1.452 2.424 0.292 0.308 0.404 0.743 0.00 980.00 20.36 0.4140 343.90 17.04   0.021 0.180 0.242 -0.076   -0.076   -0.024 0.140 0.202 -0.136   -0.136 0.7450       6.062 6.062 0.000
VANMET_231 2018-04-19 03:25:00 231 11739.0   -0.034 0.124 -0.144 0.186   100.000   -0.144 0.406 0.660 1.452 2.424 0.292 0.308 0.404 0.743 0.00 980.00 20.40 0.3430 358.20 9.56   -0.025 0.138 0.202 -0.129   -0.129   -0.038 0.115 0.173 -0.163   -0.163 0.5490       6.044 6.044 0.000
VANMET_231 2018-04-19 03:20:00 231 11739.0   -0.055 0.096 -0.160 0.175   100.000   -0.160 0.405 0.660 1.452 2.424 0.292 0.308 0.404 0.743 0.00 980.00 20.44 0.5400 347.40 12.58   -0.036 0.115 0.208 -0.136   -0.136   -0.073 0.077 0.140 -0.182   -0.182 1.0450       6.037 6.037 0.000
VANMET_231 2018-04-19 03:15:00 231 11739.0   -0.073 0.076 -0.170 0.135   100.000   -0.171 0.405 0.660 1.451 2.424 0.292 0.308 0.404 0.743 0.00 980.00 20.50 0.5940 351.70 18.95   -0.067 0.082 0.152 -0.159   -0.159   -0.080 0.072 0.106 -0.192   -0.193 1.0780       6.033 6.032 0.000
VANMET_231 2018-04-19 03:10:00 231 11739.0   -0.059 0.095 -0.156 0.163   100.000   -0.156 0.405 0.660 1.452 2.424 0.292 0.308 0.404 0.744 0.00 980.00 20.50 0.5450 359.40 19.74   -0.044 0.110 0.215 -0.142   -0.143   -0.072 0.078 0.142 -0.172   -0.172 0.7580       6.039 6.039 0.000
VANMET_231 2018-04-19 03:05:00 231 11739.0   -0.055 0.096 -0.164 0.156   100.000   -0.164 0.405 0.660 1.451 2.424 0.292 0.308 0.404 0.744 0.00 980.00 20.44 0.6450 356.00 22.27   -0.041 0.110 0.261 -0.146   -0.146   -0.069 0.086 0.112 -0.176   -0.176 0.8100       6.035 6.035 0.000
VANMET_231 2018-04-19 03:00:00 231 11739.0   -0.052 0.105 -0.163 0.151   100.000   -0.163 0.405 0.659 1.451 2.424 0.292 0.308 0.404 0.744 0.00 980.00 20.32 0.6260 358.80 10.37   -0.049 0.107 0.164 -0.149   -0.149   -0.059 0.101 0.142 -0.176   -0.176 0.7450       6.036 6.036 0.000
VANMET_231 2018-04-19 02:55:00 231 11739.0   -0.050 0.105 -0.168 0.142   100.000   -0.168 0.405 0.660 1.451 2.424 0.292 0.308 0.404 0.744 0.00 980.00 20.20 0.6440 10.99 5.82   -0.046 0.107 0.151 -0.156   -0.156   -0.055 0.102 0.138 -0.182   -0.182 0.7770       6.034 6.034 -0.000
VANMET_231 2018-04-19 02:50:00 231 11739.0   -0.050 0.104 -0.171 0.140   100.000   -0.171 0.405 0.659 1.451 2.424 0.292 0.308 0.404 0.744 0.00 980.00 20.15 0.5730 14.67 1.73   -0.046 0.108 0.145 -0.156   -0.156   -0.055 0.101 0.134 -0.196   -0.196 0.7250       6.032 6.032 0.000
VANMET_231 2018-04-19 02:45:00 231 11739.0   -0.057 0.099 -0.180 0.137   100.000   -0.180 0.405 0.659 1.451 2.424 0.292 0.308 0.404 0.744 0.00 980.00 20.15 0.5990 351.70 18.07   -0.052 0.104 0.148 -0.149   -0.149   -0.065 0.087 0.124 -0.192   -0.192 0.7510       6.028 6.028 0.000
VANMET_231 2018-04-19 02:40:00 231 11739.0   -0.080 0.073 -0.213 0.121   100.000   -0.213 0.405 0.659 1.451 2.424 0.292 0.308 0.404 0.744 0.00 980.00 20.15 0.5990 11.23 9.45   -0.061 0.090 0.140 -0.185   -0.186   -0.098 0.049 0.111 -0.242   -0.242 0.8100       6.014 6.014 0.000
VANMET_231 2018-04-19 02:35:00 231 11739.0   -0.125 0.023 -0.252 0.085   100.000   -0.252 0.404 0.659 1.451 2.424 0.292 0.308 0.404 0.744 0.00 980.00 20.06 0.6140 0.08 8.13   -0.100 0.046 0.111 -0.219   -0.219   -0.137 0.007 0.071 -0.269   -0.269 1.0060       5.997 5.997 0.000
VANMET_231 2018-04-19 02:30:00 231 11739.0   -0.143 -0.002 -0.263 0.061   100.000   -0.263 0.404 0.659 1.451 2.423 0.292 0.308 0.404 0.744 0.00 980.00 19.92 0.6500 13.67 13.48   -0.133 0.008 0.072 -0.245   -0.245   -0.151 -0.010 0.043 -0.282   -0.282 0.7970       5.992 5.992 0.000
VANMET_231 2018-04-19 02:25:00 231 11739.0   -0.150 0.001 -0.248 0.035   100.000   -0.248 0.404 0.659 1.450 2.423 0.292 0.308 0.404 0.744 0.00 980.00 19.88 0.5540 4.30 1.03   -0.138 0.015 0.050 -0.229   -0.229   -0.157 -0.007 0.021 -0.265   -0.265 0.7060       5.998 5.998 0.000
VANMET_231 2018-04-19 02:20:00 231 11739.0   -0.126 0.031 -0.219 0.064   100.000   -0.219 0.405 0.659 1.450 2.423 0.292 0.308 0.404 0.744 0.00 980.00 19.84 0.6280 3.01 5.06   -0.115 0.048 0.079 -0.195   -0.196   -0.135 0.017 0.053 -0.236   -0.236 0.7580       6.011 6.011 0.000
VANMET_231 2018-04-19 02:15:00 231 11739.0   -0.093 0.068 -0.195 0.105   100.000   -0.195 0.404 0.659 1.450 2.423 0.292 0.308 0.404 0.744 0.00 980.00 19.81 0.5820 353.50 2.24   -0.080 0.077 0.132 -0.169   -0.169   -0.115 0.052 0.077 -0.219   -0.219 0.6600       6.022 6.022 0.000
VANMET_231 2018-04-19 02:10:00 231 11739.0   -0.076 0.081 -0.188 0.122   100.000   -0.188 0.404 0.658 1.450 2.423 0.292 0.308 0.405 0.744 0.00 980.50 19.80 0.6150 5.71 1.85   -0.073 0.083 0.127 -0.172   -0.172   -0.079 0.078 0.118 -0.209   -0.209 0.8040       6.025 6.025 0.000
VANMET_231 2018-04-19 02:05:00 231 11739.0   -0.082 0.071 -0.195 0.113   100.000   -0.195 0.404 0.658 1.450 2.423 0.292 0.308 0.405 0.744 0.00 981.00 19.80 0.6870 8.79 2.57   -0.074 0.078 0.128 -0.179   -0.179   -0.085 0.068 0.104 -0.209   -0.209 0.8100       6.022 6.022 0.000
VANMET_231 2018-04-19 02:00:00 231 11739.0   -0.095 0.062 -0.213 0.104   100.000   -0.213 0.404 0.658 1.450 2.423 0.292 0.308 0.405 0.744 0.00 981.00 19.80 0.6140 2.79 0.02   -0.087 0.071 0.122 -0.195   -0.195   -0.102 0.052 0.094 -0.228   -0.229 0.7450       6.014 6.014 0.000
VANMET_231 2018-04-19 01:55:00 231 11739.0   -0.110 0.041 -0.231 0.085   100.000   -0.231 0.404 0.658 1.449 2.423 0.292 0.308 0.405 0.744 0.00 981.00 19.80 0.6310 5.00 5.36   -0.104 0.052 0.102 -0.218   -0.218   -0.115 0.033 0.068 -0.255   -0.255 0.7970       6.006 6.006 0.000
VANMET_231 2018-04-19 01:50:00 231 11739.0   -0.121 0.024 -0.251 0.071   100.000   -0.251 0.404 0.658 1.449 2.424 0.292 0.309 0.405 0.744 0.00 981.00 19.84 0.5600 18.34 14.14   -0.111 0.031 0.078 -0.238   -0.238   -0.140 0.006 0.065 -0.271   -0.272 0.7380       5.997 5.997 0.000
VANMET_231 2018-04-19 01:45:00 231 11739.0   -0.144 0.000 -0.274 0.063   100.000   -0.275 0.404 0.658 1.449 2.423 0.292 0.309 0.405 0.744 0.00 981.00 19.88 0.5400 358.30 3.32   -0.141 0.006 0.078 -0.258   -0.258   -0.153 -0.013 0.048 -0.288   -0.288 0.6270       5.987 5.987 0.000
VANMET_231 2018-04-19 01:40:00 231 11739.0   -0.153 -0.015 -0.279 0.042   100.000   -0.279 0.403 0.657 1.449 2.423 0.292 0.309 0.405 0.744 0.00 981.50 19.89 0.6010 350.90 5.37   -0.148 -0.004 0.049 -0.262   -0.262   -0.157 -0.023 0.033 -0.291   -0.292 0.7770       5.985 5.985 0.000
VANMET_231 2018-04-19 01:35:00 231 11739.0   -0.150 -0.006 -0.283 0.042   100.000   -0.283 0.403 0.657 1.449 2.423 0.292 0.309 0.405 0.744 0.00 982.00 20.07 0.6050 2.91 5.87   -0.143 0.000 0.053 -0.265   -0.265   -0.162 -0.016 0.035 -0.295   -0.295 0.7580       5.983 5.983 -0.000
VANMET_231 2018-04-19 01:30:00 231 11739.0   -0.163 -0.019 -0.300 0.031   100.000   -0.300 0.403 0.657 1.448 2.423 0.292 0.309 0.405 0.744 0.00 982.00 20.53 0.6220 350.80 9.80   -0.159 -0.014 0.036 -0.278   -0.279   -0.176 -0.030 0.024 -0.312   -0.312 0.7450       5.976 5.976 0.000
VANMET_231 2018-04-19 01:25:00 231 11739.0   -0.181 -0.041 -0.317 0.012   100.000   -0.317 0.403 0.657 1.449 2.423 0.292 0.309 0.405 0.744 0.00 982.00 21.06 0.5620 355.70 7.77   -0.174 -0.031 0.025 -0.295   -0.295   -0.190 -0.053 0.005 -0.335   -0.335 0.7770       5.968 5.968 0.000
VANMET_231 2018-04-19 01:20:00 231 11739.0   -0.215 -0.077 -0.354 -0.009   100.000   -0.354 0.403 0.657 1.448 2.423 0.292 0.309 0.405 0.744 0.00 982.00 21.33 0.5710 3.39 10.63   -0.191 -0.055 0.006 -0.328   -0.329   -0.247 -0.107 -0.035 -0.392   -0.392 0.7250       5.952 5.952 0.000
VANMET_231 2018-04-19 01:15:00 231 11739.0   -0.273 -0.135 -0.413 -0.053   100.000   -0.413 0.403 0.657 1.449 2.423 0.292 0.309 0.405 0.744 0.00 982.00 21.39 0.6360 355.90 27.12   -0.248 -0.110 -0.026 -0.392   -0.392   -0.307 -0.171 -0.087 -0.438   -0.439 0.9340       5.927 5.927 0.000
VANMET_231 2018-04-19 01:10:00 231 11739.0   -0.340 -0.208 -0.478 -0.123   100.000   -0.478 0.403 0.657 1.448 2.423 0.292 0.309 0.405 0.745 0.00 982.00 21.39 0.6230 2.97 6.94   -0.312 -0.176 -0.090 -0.448   -0.449   -0.369 -0.241 -0.161 -0.508   -0.508 0.8170       5.899 5.899 -0.000
VANMET_231 2018-04-19 01:05:00 231 11739.0   -0.398 -0.276 -0.529 -0.186   100.000   -0.529 0.403 0.657 1.448 2.423 0.292 0.309 0.405 0.745 0.00 982.00 21.39 0.6360 0.78 14.33   -0.364 -0.241 -0.156 -0.481   -0.482   -0.433 -0.312 -0.232 -0.565   -0.565 0.7510       5.877 5.877 0.000
VANMET_231 2018-04-19 01:00:00 231 11739.0   -0.464 -0.339 -0.588 -0.256   100.000   -0.588 0.403 0.657 1.448 2.423 0.292 0.309 0.405 0.745 0.00 982.00 21.39 0.6680 355.20 5.09   -0.437 -0.317 -0.237 -0.545   -0.545   -0.493 -0.368 -0.287 -0.625   -0.625 0.8040       5.851 5.851 -0.000
VANMET_231 2018-04-19 00:55:00 231 11739.0   -0.506 -0.382 -0.636 -0.275   100.000   -0.637 0.403 0.657 1.448 2.423 0.292 0.309 0.405 0.745 0.00 982.00 21.39 0.7570 347.50 10.82   -0.474 -0.353 -0.259 -0.602   -0.602   -0.540 -0.409 -0.289 -0.661   -0.662 1.0910       5.831 5.830 0.000
VANMET_231 2018-04-19 00:50:00 231 11739.0   -0.598 -0.461 -0.689 -0.327   100.000   -0.690 0.403 0.657 1.448 2.423 0.292 0.309 0.405 0.745 0.00 982.00 21.39 0.7200 353.80 7.19   -0.544 -0.414 -0.275 -0.661   -0.662   -0.646 -0.498 -0.363 -0.715   -0.715 0.7970       5.808 5.808 0.000
VANMET_231 2018-04-19 00:45:00 231 11739.0   -0.622 -0.462 -0.671 -0.363   100.000   -0.672 0.403 0.657 1.448 2.423 0.292 0.309 0.405 0.745 0.00 982.00 21.35 0.6840 2.26 8.34   -0.605 -0.446 -0.353 -0.648   -0.649   -0.643 -0.488 -0.376 -0.698   -0.698 0.7910       5.816 5.815 0.000
VANMET_231 2018-04-19 00:40:00 231 11739.0   -0.592 -0.435 -0.638 -0.355   100.000   -0.638 0.403 0.656 1.448 2.423 0.292 0.309 0.405 0.745 0.00 982.00 21.33 0.6350 0.27 0.42   -0.551 -0.404 -0.345 -0.608   -0.609   -0.618 -0.451 -0.370 -0.678   -0.679 0.7190       5.830 5.830 0.000
VANMET_231 2018-04-19 00:35:00 231 11739.0   -0.520 -0.387 -0.604 -0.318   100.000   -0.604 0.403 0.657 1.448 2.423 0.292 0.309 0.405 0.745 0.00 982.00 21.32 0.5750 4.69 7.14   -0.502 -0.378 -0.294 -0.592   -0.592   -0.548 -0.403 -0.339 -0.622   -0.622 0.6660       5.844 5.844 -0.000
VANMET_231 2018-04-19 00:30:00 231 11739.0   -0.482 -0.355 -0.582 -0.289   100.000   -0.582 0.403 0.656 1.447 2.423 0.292 0.309 0.405 0.745 0.00 982.00 21.27 0.6130 357.60 7.80   -0.462 -0.335 -0.266 -0.548   -0.549   -0.500 -0.378 -0.317 -0.612   -0.612 0.7770       5.854 5.854 0.000
VANMET_231 2018-04-19 00:25:00 231 11739.0   -0.443 -0.315 -0.548 -0.248   100.000   -0.548 0.403 0.656 1.447 2.422 0.292 0.309 0.405 0.745 0.00 982.00 21.22 0.6370 4.24 20.41   -0.428 -0.303 -0.220 -0.521   -0.522   -0.466 -0.337 -0.270 -0.575   -0.575 0.9540       5.868 5.868 0.000
VANMET_231 2018-04-19 00:20:00 231 11739.0   -0.437 -0.306 -0.533 -0.233   100.000   -0.534 0.403 0.656 1.447 2.423 0.292 0.309 0.405 0.745 0.00 982.50 21.21 0.6380 0.64 12.14   -0.421 -0.299 -0.206 -0.518   -0.519   -0.452 -0.317 -0.272 -0.541   -0.542 0.9280       5.875 5.874 0.000
VANMET_231 2018-04-19 00:15:00 231 11739.0   -0.433 -0.294 -0.512 -0.229   100.000   -0.512 0.403 0.656 1.447 2.423 0.292 0.309 0.405 0.745 0.00 983.00 21.19 0.6520 7.49 15.16   -0.398 -0.266 -0.209 -0.485   -0.486   -0.458 -0.323 -0.247 -0.538   -0.539 0.8230       5.884 5.884 0.000
VANMET_231 2018-04-19 00:10:00 231 11739.0   -0.397 -0.262 -0.484 -0.199   100.000   -0.484 0.403 0.656 1.447 2.422 0.292 0.309 0.405 0.745 0.00 983.00 21.18 0.6340 2.33 6.12   -0.375 -0.236 -0.167 -0.459   -0.459   -0.414 -0.274 -0.216 -0.502   -0.502 0.8170       5.896 5.896 0.000
VANMET_231 2018-04-19 00:05:00 231 11739.0   -0.357 -0.225 -0.455 -0.146   100.000   -0.456 0.402 0.656 1.447 2.423 0.292 0.309 0.405 0.745 0.00 983.00 21.13 0.6420 15.47 15.26   -0.327 -0.202 -0.072 -0.425   -0.426   -0.387 -0.255 -0.207 -0.479   -0.479 1.1170       5.908 5.908 0.000
VANMET_231 2018-04-19 00:00:00 231 11739.0   -0.363 -0.231 -0.452 -0.160   100.000   -0.452 0.403 0.656 1.446 2.423 0.292 0.309 0.405 0.745 0.00 983.00 21.07 0.6500 6.65 26.06   -0.355 -0.221 -0.142 -0.435   -0.436   -0.376 -0.240 -0.184 -0.475   -0.476 1.0130       5.910 5.910 -0.000
VANMET_231 2018-04-18 23:55:00 231 11739.0   -0.366 -0.237 -0.454 -0.147   100.000   -0.454 0.403 0.655 1.446 2.423 0.292 0.309 0.405 0.745 0.00 983.00 21.03 0.6740 1.65 14.53   -0.359 -0.228 -0.133 -0.439   -0.439   -0.374 -0.243 -0.163 -0.472   -0.472 1.1110       5.909 5.909 0.000
VANMET_231 2018-04-18 23:50:00 231 11739.0   -0.375 -0.245 -0.452 -0.162   100.000   -0.453 0.402 0.656 1.446 2.422 0.292 0.309 0.405 0.745 0.00 983.00 21.01 0.6750 5.78 10.73   -0.354 -0.227 -0.148 -0.439   -0.439   -0.390 -0.261 -0.174 -0.465   -0.466 0.9930       5.910 5.909 -0.000
VANMET_231 2018-04-18 23:45:00 231 11739.0   -0.352 -0.215 -0.428 -0.165   100.000   -0.428 0.402 0.655 1.446 2.422 0.292 0.309 0.405 0.745 0.00 983.00 20.98 0.6600 6.76 7.92   -0.322 -0.183 -0.139 -0.386   -0.386   -0.377 -0.240 -0.185 -0.466   -0.466 1.0520       5.920 5.920 0.000
VANMET_231 2018-04-18 23:40:00 231 11739.0   -0.327 -0.186 -0.416 -0.110   100.000   -0.416 0.402 0.655 1.446 2.422 0.292 0.309 0.405 0.745 0.00 983.00 20.93 0.7300 1.80 14.62   -0.288 -0.145 -0.020 -0.386   -0.386   -0.361 -0.229 -0.162 -0.459   -0.459 1.1690       5.925 5.925 0.000
VANMET_231 2018-04-18 23:35:00 231 11739.0   -0.319 -0.187 -0.416 -0.119   100.000   -0.416 0.402 0.655 1.446 2.422 0.292 0.309 0.405 0.745 0.00 983.00 20.86 0.6950 7.78 30.45   -0.306 -0.174 -0.096 -0.396   -0.396   -0.347 -0.212 -0.156 -0.439   -0.439 0.9020       5.925 5.925 0.000
VANMET_231 2018-04-18 23:30:00 231 11739.0   -0.309 -0.171 -0.399 -0.102   100.000   -0.399 0.401 0.655 1.445 2.422 0.292 0.309 0.405 0.745 0.00 983.00 20.82 0.5490 7.42 9.21   -0.293 -0.159 -0.080 -0.376   -0.376   -0.317 -0.182 -0.114 -0.413   -0.413 0.7710       5.933 5.933 0.000
VANMET_231 2018-04-18 23:25:00 231 11739.0   -0.280 -0.149 -0.383 -0.080   100.000   -0.383 0.402 0.655 1.445 2.422 0.292 0.309 0.405 0.745 0.00 983.00 20.78 0.5930 3.60 15.16   -0.273 -0.142 -0.055 -0.363   -0.363   -0.292 -0.157 -0.098 -0.393   -0.393 0.7710       5.940 5.940 0.000
VANMET_231 2018-04-18 23:20:00 231 11739.0   -0.287 -0.154 -0.387 -0.087   100.000   -0.387 0.402 0.655 1.445 2.422 0.292 0.309 0.405 0.745 0.00 983.00 20.78 0.6270 8.97 6.94   -0.278 -0.147 -0.070 -0.373   -0.373   -0.296 -0.162 -0.099 -0.416   -0.416 0.7770       5.938 5.938 0.000
VANMET_231 2018-04-18 23:15:00 231 11739.0   -0.303 -0.162 -0.380 -0.103   100.000   -0.381 0.402 0.655 1.445 2.422 0.292 0.309 0.405 0.745 0.00 983.00 20.78 0.5970 7.30 16.55   -0.293 -0.151 -0.083 -0.363   -0.363   -0.311 -0.175 -0.112 -0.399   -0.400 0.9210       5.941 5.941 0.000
VANMET_231 2018-04-18 23:10:00 231 11739.0   -0.287 -0.137 -0.344 -0.091   100.000   -0.344 0.401 0.654 1.445 2.422 0.292 0.309 0.405 0.745 0.00 983.00 20.78 0.5320 2.12 16.20   -0.262 -0.111 -0.065 -0.310   -0.310   -0.305 -0.159 -0.107 -0.383   -0.383 0.7320       5.957 5.957 0.000
VANMET_231 2018-04-18 23:05:00 231 11739.0   -0.254 -0.097 -0.308 -0.050   100.000   -0.308 0.401 0.654 1.445 2.421 0.292 0.309 0.405 0.745 0.00 983.00 20.74 0.5410 13.63 34.51   -0.243 -0.083 -0.032 -0.293   -0.293   -0.265 -0.108 -0.069 -0.330   -0.330 0.8620       5.972 5.972 0.000
VANMET_231 2018-04-18 23:00:00 231 11739.0   -0.226 -0.071 -0.300 0.001   100.000   -0.300 0.401 0.654 1.445 2.422 0.292 0.309 0.405 0.745 0.00 983.00 20.74 0.4570 14.20 30.69   -0.215 -0.061 0.059 -0.283   -0.284   -0.242 -0.082 -0.035 -0.320   -0.320 0.8620       5.976 5.976 0.000
VANMET_231 2018-04-18 22:55:00 231 11739.0   -0.256 -0.101 -0.323 -0.032   100.000   -0.323 0.401 0.654 1.445 2.422 0.292 0.309 0.405 0.745 0.00 983.00 20.72 0.6040 6.00 28.24   -0.231 -0.076 -0.009 -0.307   -0.307   -0.267 -0.115 -0.047 -0.340   -0.340 1.0980       5.966 5.966 0.000
VANMET_231 2018-04-18 22:50:00 231 11739.0   -0.253 -0.098 -0.300 -0.038   100.000   -0.300 0.401 0.654 1.445 2.421 0.293 0.309 0.405 0.746 0.00 983.00 20.72 0.4590 11.90 27.80   -0.239 -0.084 -0.009 -0.280   -0.280   -0.267 -0.115 -0.059 -0.323   -0.323 0.8100       5.976 5.976 0.000
VANMET_231 2018-04-18 22:45:00 231 11739.0   -0.234 -0.073 -0.284 -0.035   100.000   -0.285 0.401 0.654 1.444 2.422 0.293 0.309 0.405 0.746 0.00 983.50 20.68 0.5610 13.50 25.32   -0.210 -0.044 -0.009 -0.250   -0.250   -0.248 -0.092 -0.053 -0.303   -0.304 1.3260       5.983 5.982 0.000
VANMET_231 2018-04-18 22:40:00 231 11739.0   -0.159 0.013 -0.213 0.032   100.000   -0.213 0.401 0.654 1.444 2.421 0.292 0.309 0.405 0.746 0.00 984.00 20.67 0.6210 13.94 27.26   -0.117 0.057 0.142 -0.181   -0.181   -0.204 -0.038 -0.035 -0.247   -0.247 1.3520       6.014 6.014 0.000
VANMET_231 2018-04-18 22:35:00 231 11739.0   -0.178 -0.011 -0.212 0.048   100.000   -0.212 0.401 0.654 1.444 2.421 0.293 0.309 0.405 0.746 0.00 984.00 20.64 0.5430 15.26 35.09   -0.148 0.035 0.145 -0.194   -0.194   -0.199 -0.031 -0.005 -0.227   -0.227 1.3070       6.014 6.014 0.000
VANMET_231 2018-04-18 22:30:00 231 11739.0   -0.165 -0.005 -0.203 0.086   100.000   -0.203 0.400 0.653 1.444 2.422 0.292 0.309 0.405 0.746 0.00 984.00 20.62 0.6590 22.13 35.65   -0.146 0.012 0.192 -0.187   -0.187   -0.182 -0.020 0.013 -0.220   -0.221 1.7180       6.018 6.018 0.000
VANMET_231 2018-04-18 22:25:00 231 11739.0   -0.188 -0.035 -0.232 0.032   100.000   -0.232 0.401 0.653 1.444 2.421 0.293 0.309 0.405 0.746 0.00 984.00 20.62 0.5580 9.26 32.39   -0.136 0.017 0.219 -0.191   -0.191   -0.225 -0.080 -0.054 -0.270   -0.271 1.8550       6.005 6.005 -0.000
VANMET_231 2018-04-18 22:20:00 231 11739.0   -0.128 0.029 -0.174 0.051   100.000   -0.174 0.400 0.653 1.444 2.421 0.293 0.309 0.405 0.746 0.00 984.00 20.60 0.5450 12.95 31.15   -0.091 0.069 0.103 -0.145   -0.145   -0.174 -0.017 -0.003 -0.218   -0.218 0.9150       6.031 6.031 0.000
VANMET_231 2018-04-18 22:15:00 231 11739.0   -0.123 0.035 -0.182 0.097   100.000   -0.182 0.400 0.653 1.443 2.421 0.293 0.309 0.405 0.746 0.00 984.00 20.57 0.5570 7.98 33.85   -0.077 0.085 0.173 -0.144   -0.145   -0.161 -0.006 0.042 -0.214   -0.214 1.1690       6.027 6.027 -0.000
VANMET_231 2018-04-18 22:10:00 231 11739.0   -0.168 -0.007 -0.201 0.043   100.000   -0.201 0.400 0.653 1.443 2.421 0.293 0.309 0.405 0.746 0.00 984.00 20.52 0.7150 16.71 48.70   -0.148 -0.001 0.078 -0.178   -0.178   -0.179 -0.015 0.006 -0.218   -0.218 1.7900       6.019 6.019 0.000
VANMET_231 2018-04-18 22:05:00 231 11739.0   -0.123 0.050 -0.138 0.055   100.000   -0.138 0.400 0.653 1.443 2.421 0.293 0.309 0.405 0.746 0.00 984.00 20.47 0.5750 11.83 14.05   -0.079 0.102 0.129 -0.095   -0.095   -0.160 0.003 0.006 -0.185   -0.185 1.0910       6.047 6.047 0.000
VANMET_231 2018-04-18 22:00:00 231 11739.0   -0.077 0.112 -0.103 0.136   100.000   -0.103 0.400 0.652 1.443 2.420 0.293 0.309 0.405 0.746 0.00 984.50 20.45 0.7770 12.07 33.42   -0.009 0.194 0.305 -0.042   -0.042   -0.159 0.022 0.008 -0.178   -0.179 1.8420       6.062 6.062 0.000
VANMET_231 2018-04-18 21:55:00 231 11739.0   -0.077 0.114 -0.108 0.132   100.000   -0.108 0.400 0.653 1.442 2.420 0.293 0.309 0.405 0.746 0.00 985.00 20.44 0.4670 22.21 30.73   -0.025 0.179 0.270 -0.076   -0.076   -0.115 0.068 0.059 -0.132   -0.133 1.0000       6.060 6.060 -0.000
VANMET_231 2018-04-18 21:50:00 231 11739.0   -0.077 0.111 -0.113 0.145   100.000   -0.113 0.400 0.652 1.442 2.420 0.293 0.309 0.405 0.746 0.00 985.00 20.39 0.7270 21.59 26.08   -0.035 0.165 0.245 -0.083   -0.083   -0.110 0.070 0.084 -0.146   -0.146 1.4770       6.058 6.058 0.000
VANMET_231 2018-04-18 21:45:00 231 11739.0   -0.079 0.105 -0.119 0.170   100.000   -0.119 0.400 0.652 1.442 2.420 0.293 0.309 0.405 0.746 0.00 985.00 20.36 0.6440 29.17 35.85   -0.048 0.156 0.307 -0.089   -0.089   -0.113 0.052 0.078 -0.149   -0.149 1.7380       6.055 6.055 0.000
VANMET_231 2018-04-18 21:40:00 231 11739.0   -0.060 0.099 -0.135 0.185   100.000   -0.135 0.399 0.652 1.442 2.420 0.293 0.309 0.405 0.746 0.00 985.00 20.35 0.6360 6.53 38.38   -0.014 0.142 0.283 -0.103   -0.103   -0.126 0.027 0.058 -0.189   -0.189 1.3200       6.048 6.048 0.000
VANMET_231 2018-04-18 21:35:00 231 11739.0   -0.102 0.068 -0.158 0.101   100.000   -0.158 0.399 0.652 1.441 2.420 0.293 0.309 0.405 0.746 0.00 985.00 20.34 0.5510 358.90 17.41   -0.075 0.110 0.172 -0.133   -0.133   -0.116 0.040 0.071 -0.183   -0.183 0.7710       6.038 6.038 0.000
VANMET_231 2018-04-18 21:30:00 231 11739.0   -0.117 0.036 -0.185 0.112   100.000   -0.185 0.399 0.651 1.442 2.420 0.293 0.309 0.405 0.746 0.00 985.00 20.31 0.5830 0.59 30.39   -0.070 0.123 0.270 -0.137   -0.137   -0.133 0.011 0.060 -0.207   -0.207 0.8360       6.026 6.026 0.000
VANMET_231 2018-04-18 21:25:00 231 11739.0   -0.124 0.029 -0.175 0.076   100.000   -0.175 0.399 0.651 1.441 2.420 0.293 0.309 0.405 0.746 0.00 985.00 20.26 0.5950 4.62 7.97   -0.099 0.059 0.094 -0.157   -0.157   -0.144 0.008 0.064 -0.191   -0.191 1.2220       6.030 6.030 -0.000
VANMET_231 2018-04-18 21:20:00 231 11739.0   -0.109 0.048 -0.157 0.106   100.000   -0.157 0.400 0.651 1.441 2.420 0.293 0.309 0.405 0.746 0.00 985.00 20.19 0.5740 16.92 21.14   -0.086 0.070 0.199 -0.134   -0.134   -0.119 0.033 0.070 -0.184   -0.184 0.8750       6.038 6.038 0.000
VANMET_231 2018-04-18 21:15:00 231 11739.0   -0.121 0.031 -0.182 0.084   100.000   -0.183 0.399 0.651 1.441 2.420 0.293 0.309 0.406 0.746 0.00 985.00 20.13 0.6680 13.29 26.91   -0.103 0.051 0.131 -0.155   -0.155   -0.137 0.012 0.020 -0.202   -0.202 1.5350       6.027 6.027 -0.000
VANMET_231 2018-04-18 21:10:00 231 11739.0   -0.147 -0.006 -0.199 0.043   100.000   -0.199 0.399 0.651 1.441 2.420 0.293 0.309 0.406 0.746 0.00 985.00 20.07 0.5660 21.50 23.39   -0.103 0.044 0.127 -0.172   -0.172   -0.173 -0.031 0.017 -0.232   -0.232 1.6530       6.020 6.020 0.000
VANMET_231 2018-04-18 21:05:00 231 11739.0   -0.122 0.028 -0.160 0.074   100.000   -0.161 0.399 0.651 1.441 2.420 0.293 0.309 0.406 0.746 0.00 985.00 20.07 0.4460 12.56 14.73   -0.111 0.048 0.101 -0.136   -0.136   -0.134 0.009 0.050 -0.178   -0.179 0.7510       6.037 6.037 0.000
VANMET_231 2018-04-18 21:00:00 231 11739.0   -0.071 0.079 -0.104 0.139   100.000   -0.104 0.399 0.651 1.441 2.420 0.293 0.309 0.406 0.746 0.00 985.00 20.03 0.5390 17.37 28.92   -0.030 0.102 0.299 -0.073   -0.073   -0.103 0.053 0.076 -0.142   -0.143 1.0580       6.062 6.062 0.000
VANMET_231 2018-04-18 20:55:00 231 11739.0   -0.052 0.109 -0.052 0.135   100.000   -0.052 0.399 0.651 1.440 2.420 0.293 0.309 0.406 0.746 0.00 985.00 19.97 0.5070 4.03 10.82   -0.018 0.147 0.159 -0.020   -0.020   -0.081 0.074 0.108 -0.093   -0.093 0.7640       6.085 6.085 0.000
VANMET_231 2018-04-18 20:50:00 231 11739.0   0.036 0.205 0.044 0.205   100.000   0.044 0.399 0.650 1.440 2.419 0.293 0.309 0.406 0.746 0.00 985.00 19.95 0.5070 359.20 16.36   0.089 0.262 0.262 0.096   0.096   -0.014 0.152 0.160 -0.013   -0.013 0.7380       6.127 6.127 -0.000
VANMET_231 2018-04-18 20:45:00 231 11739.0   0.121 0.305 0.128 0.318   100.000   0.128 0.399 0.650 1.440 2.419 0.293 0.309 0.406 0.746 0.00 985.00 19.94 0.6540 2.32 22.95   0.157 0.338 0.418 0.149   0.149   0.090 0.266 0.251 0.106   0.106 1.0650       6.165 6.165 0.000
VANMET_231 2018-04-18 20:40:00 231 11739.0   0.120 0.310 0.141 0.334   100.000   0.141 0.398 0.650 1.439 2.419 0.293 0.309 0.406 0.746 0.00 985.00 19.91 0.4980 350.80 21.99   0.185 0.369 0.516 0.182   0.182   0.091 0.282 0.285 0.106   0.106 0.8300       6.171 6.171 0.000
VANMET_231 2018-04-18 20:35:00 231 11739.0   0.198 0.404 0.241 0.383   100.000   0.242 0.399 0.650 1.439 2.420 0.293 0.309 0.406 0.746 0.00 985.00 19.89 0.3610 358.00 21.29   0.250 0.453 0.447 0.281   0.281   0.136 0.336 0.281 0.178   0.178 0.7060       6.216 6.216 0.000
VANMET_231 2018-04-18 20:30:00 231 11739.0   0.209 0.403 0.219 0.461   100.000   0.219 0.398 0.650 1.439 2.419 0.293 0.309 0.406 0.746 0.00 985.00 19.89 0.5030 8.56 32.87   0.278 0.467 0.538 0.281   0.281   0.146 0.344 0.366 0.151   0.151 1.0580       6.206 6.206 0.000
VANMET_231 2018-04-18 20:25:00 231 11739.0   0.139 0.332 0.137 0.333   100.000   0.137 0.398 0.649 1.439 2.419 0.293 0.309 0.406 0.746 0.00 985.00 19.88 0.5210 356.40 34.32   0.229 0.445 0.503 0.178   0.178   0.068 0.242 0.236 0.078   0.078 1.0850       6.169 6.169 0.000
VANMET_231 2018-04-18 20:20:00 231 11739.0   0.091 0.273 0.120 0.265   100.000   0.120 0.398 0.649 1.439 2.419 0.293 0.309 0.406 0.746 0.00 985.00 19.88 0.4420 1.68 34.38   0.130 0.305 0.368 0.147   0.147   0.069 0.253 0.212 0.094   0.094 0.7640       6.161 6.161 0.000
VANMET_231 2018-04-18 20:15:00 231 11739.0   0.162 0.353 0.219 0.330   100.000   0.219 0.397 0.649 1.439 2.419 0.293 0.309 0.406 0.746 0.00 985.00 19.88 0.4870 357.40 45.05   0.204 0.409 0.405 0.293   0.293   0.116 0.304 0.272 0.151   0.151 0.7250       6.206 6.206 0.000
VANMET_231 2018-04-18 20:10:00 231 11739.0   0.285 0.494 0.368 0.462   100.000   0.368 0.397 0.649 1.439 2.419 0.293 0.309 0.406 0.746 0.00 985.00 19.88 0.5260 353.30 26.55   0.336 0.543 0.634 0.419   0.419   0.212 0.416 0.320 0.293   0.293 1.2280       6.273 6.273 0.000
VANMET_231 2018-04-18 20:05:00 231 11739.0   0.356 0.583 0.477 0.556   100.000   0.478 0.397 0.649 1.438 2.419 0.293 0.309 0.406 0.746 0.00 985.00 19.91 0.5110 359.40 21.12   0.420 0.654 0.664 0.565   0.565   0.315 0.538 0.493 0.429   0.429 1.0850       6.323 6.324 0.000
VANMET_231 2018-04-18 20:00:00 231 11739.0   0.488 0.744 0.637 0.748   100.000   0.637 0.397 0.649 1.438 2.419 0.293 0.309 0.406 0.746 0.00 985.00 19.91 0.3750 23.71 25.63   0.547 0.805 0.925 0.671   0.671   0.425 0.663 0.635 0.575   0.575 0.8820       6.397 6.397 -0.000
VANMET_231 2018-04-18 19:55:00 231 11739.0   0.570 0.816 0.676 0.863   100.000   0.677 0.397 0.648 1.438 2.418 0.293 0.309 0.406 0.746 0.00 985.00 19.94 0.4120 13.54 26.66   0.600 0.847 1.020 0.697   0.698   0.522 0.778 0.698 0.650   0.651 0.8890       6.415 6.415 0.000
VANMET_231 2018-04-18 19:50:00 231 11739.0   0.598 0.822 0.662 0.859   100.000   0.662 0.397 0.648 1.438 2.418 0.293 0.309 0.406 0.746 0.00 985.00 19.99 0.2000 14.37 24.19   0.613 0.833 0.954 0.677   0.677   0.567 0.795 0.759 0.640   0.641 0.4510       6.408 6.408 0.000
VANMET_231 2018-04-18 19:45:00 231 11739.0   0.622 0.843 0.685 0.846   100.000   0.686 0.396 0.648 1.437 2.418 0.293 0.309 0.406 0.746 0.00 985.00 20.03 0.2880 351.40 48.78   0.649 0.871 0.911 0.706   0.706   0.597 0.819 0.772 0.660   0.660 0.5360       6.419 6.420 0.000
VANMET_231 2018-04-18 19:40:00 231 11739.0   0.656 0.877 0.704 0.906   100.000   0.704 0.397 0.648 1.437 2.418 0.293 0.309 0.406 0.746 0.00 985.00 20.07 0.1440 10.47 0.00   0.680 0.892 0.967 0.732   0.732   0.629 0.852 0.845 0.686   0.686 0.3330       6.428 6.428 0.000
VANMET_231 2018-04-18 19:35:00 231 11739.0   0.687 0.907 0.735 0.930   100.000   0.736 0.396 0.647 1.437 2.418 0.293 0.309 0.406 0.746 0.00 984.50 20.11 0.3480 10.38 0.06   0.706 0.915 0.950 0.768   0.769   0.662 0.891 0.887 0.722   0.722 0.4770       6.442 6.443 0.000
VANMET_231 2018-04-18 19:30:00 231 11739.0   0.685 0.909 0.752 0.920   100.000   0.752 0.396 0.647 1.436 2.418 0.293 0.309 0.406 0.746 0.00 984.00 20.16 0.3320 10.77 0.44   0.718 0.925 0.947 0.768   0.768   0.662 0.899 0.882 0.735   0.735 0.5360       6.450 6.450 0.000
VANMET_231 2018-04-18 19:25:00 231 11739.0   0.738 0.953 0.799 0.943   100.000   0.799 0.396 0.647 1.436 2.418 0.293 0.310 0.406 0.746 0.00 984.00 20.24 0.2770 11.37 0.02   0.768 0.987 0.968 0.827   0.828   0.718 0.927 0.920 0.771   0.772 0.4380       6.472 6.472 0.000
VANMET_231 2018-04-18 19:20:00 231 11739.0   0.792 1.013 0.873 0.986   100.000   0.873 0.396 0.647 1.436 2.417 0.293 0.310 0.406 0.746 0.00 984.00 20.29 0.2670 9.14 3.21   0.812 1.044 0.993 0.913   0.914   0.772 0.991 0.971 0.834   0.834 0.4120       6.507 6.507 0.000
VANMET_231 2018-04-18 19:15:00 231 11739.0   0.863 1.096 0.987 1.057   100.000   0.988 0.396 0.647 1.436 2.417 0.293 0.310 0.406 0.746 0.01 984.00 20.30 0.0000 0.00 0.00   0.895 1.132 1.105 1.026   1.027   0.816 1.050 0.992 0.933   0.934 0.0000       6.561 6.561 0.000
VANMET_231 2018-04-18 19:10:00 231 11739.0   0.933 1.171 1.070 1.140   100.000   1.071 0.396 0.646 1.436 2.417 0.293 0.310 0.406 0.746 0.29 984.00 20.31 0.0000 0.00 0.00   0.970 1.206 1.170 1.115   1.116